[[{"header":{"parameterUnit":"m.s-1","parameterCategory":1,"la1":30.6,"la2":29.2853,"lo1":-89.7004,"lo2":-87.6739,"dy":0.0162,"dx":0.0183,"nx":112,"ny":82,"refTime":"2023-03-31T06:00:00:Z","depth":0,"parameterNumber":2,"parameterNumberName":"U-component_of_WINDS"},"data":[0.0,0.0,0.0,0.0,0.0,0.0,0.0,0.0,0.0,0.0,0.0,0.0,0.0,0.0,0.0,0.0,0.0,0.0,0.0,0.0,0.0,0.0,0.0,0.0,0.0,0.0,0.0,0.0,0.0,0.0,0.0,0.0,0.0,0.0,0.0,0.0,0.0,0.0,0.0,0.0,0.0,0.0,0.0,0.0,0.0,0.0,0.0,0.0,0.0,0.0,0.0,0.0,0.0,0.0,0.0,0.0,0.0,0.0,0.0,0.0,0.0,0.0,0.0,0.0,0.0,0.0,0.0,0.0,0.0,0.0,0.0,0.0,0.0,0.0,0.0,0.0,0.0,0.0,0.0,0.0,0.0,0.0,0.0,0.0,0.0,0.0,0.0,0.0,0.0,0.0,-5.6676,-6.3511,-7.208,-7.7237,-7.7127,-7.665,-7.3854,-6.7871,0.0,0.0,0.0,0.0,0.0,0.0,0.0,0.0,0.0,0.0,0.0,0.0,0.0,0.0,0.0,0.0,0.0,0.0,0.0,0.0,0.0,0.0,0.0,0.0,0.0,0.0,0.0,0.0,0.0,0.0,0.0,0.0,0.0,0.0,0.0,0.0,0.0,0.0,0.0,0.0,0.0,0.0,0.0,0.0,0.0,0.0,0.0,0.0,0.0,0.0,0.0,0.0,0.0,0.0,0.0,0.0,0.0,0.0,0.0,0.0,0.0,0.0,0.0,0.0,0.0,0.0,0.0,0.0,0.0,0.0,0.0,0.0,0.0,0.0,0.0,0.0,0.0,0.0,0.0,0.0,0.0,0.0,0.0,0.0,0.0,0.0,0.0,0.0,0.0,0.0,0.0,0.0,0.0,0.0,0.0,0.0,0.0,0.0,0.0,0.0,0.0,0.0,0.0,0.0,-6.0404,-6.8238,-7.3978,-7.7047,-7.635,-7.378,-7.0624,-6.6916,0.0,0.0,0.0,0.0,0.0,0.0,0.0,0.0,0.0,0.0,0.0,0.0,0.0,0.0,0.0,0.0,0.0,0.0,0.0,0.0,0.0,0.0,0.0,0.0,0.0,0.0,0.0,0.0,0.0,0.0,0.0,0.0,0.0,0.0,0.0,0.0,0.0,0.0,0.0,0.0,0.0,0.0,0.0,0.0,0.0,0.0,0.0,0.0,0.0,0.0,0.0,0.0,0.0,0.0,0.0,0.0,0.0,0.0,0.0,0.0,0.0,0.0,0.0,0.0,0.0,0.0,0.0,0.0,0.0,0.0,0.0,0.0,0.0,0.0,0.0,0.0,0.0,0.0,0.0,0.0,0.0,0.0,0.0,0.0,0.0,0.0,0.0,0.0,0.0,0.0,0.0,0.0,0.0,0.0,0.0,0.0,0.0,0.0,0.0,0.0,0.0,0.0,0.0,-5.8946,-6.3442,-7.0062,-7.4668,-7.6974,-7.6166,-7.356,-7.0403,-6.6733,-6.5595,0.0,0.0,0.0,0.0,0.0,0.0,0.0,0.0,0.0,0.0,0.0,0.0,0.0,0.0,0.0,0.0,0.0,0.0,0.0,0.0,0.0,0.0,0.0,0.0,0.0,0.0,0.0,0.0,0.0,0.0,0.0,0.0,0.0,0.0,0.0,0.0,0.0,0.0,0.0,0.0,0.0,0.0,0.0,0.0,0.0,0.0,0.0,0.0,0.0,0.0,0.0,0.0,0.0,0.0,0.0,0.0,0.0,0.0,0.0,0.0,0.0,0.0,0.0,0.0,0.0,0.0,0.0,0.0,0.0,0.0,0.0,0.0,0.0,0.0,0.0,0.0,0.0,0.0,0.0,0.0,0.0,0.0,0.0,0.0,0.0,0.0,0.0,0.0,0.0,0.0,0.0,0.0,0.0,0.0,0.0,0.0,0.0,0.0,0.0,0.0,0.0,0.0,-6.1623,-6.5218,-7.0466,-7.4448,-7.6423,-7.5616,-7.2789,-6.9706,-6.6439,-6.3356,0.0,0.0,0.0,0.0,0.0,0.0,0.0,0.0,0.0,0.0,0.0,0.0,0.0,0.0,0.0,0.0,0.0,0.0,0.0,0.0,0.0,0.0,0.0,0.0,0.0,0.0,0.0,0.0,0.0,0.0,0.0,0.0,0.0,0.0,0.0,0.0,0.0,0.0,0.0,0.0,0.0,0.0,0.0,0.0,0.0,0.0,0.0,0.0,0.0,0.0,0.0,0.0,0.0,0.0,0.0,0.0,0.0,0.0,0.0,0.0,0.0,0.0,0.0,0.0,0.0,0.0,0.0,0.0,0.0,0.0,0.0,0.0,0.0,0.0,0.0,0.0,0.0,0.0,0.0,0.0,0.0,0.0,0.0,0.0,0.0,0.0,0.0,0.0,0.0,0.0,0.0,0.0,0.0,0.0,0.0,0.0,0.0,0.0,0.0,0.0,0.0,0.0,-6.1585,-6.4933,-6.9668,-7.312,-7.4735,-7.3927,-6.9596,-6.6476,-6.5448,-6.097,0.0,0.0,0.0,0.0,0.0,0.0,0.0,0.0,0.0,0.0,0.0,0.0,0.0,0.0,0.0,0.0,0.0,0.0,0.0,0.0,0.0,0.0,0.0,0.0,0.0,0.0,0.0,0.0,0.0,0.0,0.0,0.0,0.0,0.0,0.0,0.0,0.0,0.0,0.0,0.0,0.0,0.0,0.0,0.0,0.0,0.0,0.0,0.0,0.0,0.0,0.0,0.0,0.0,0.0,0.0,0.0,0.0,0.0,0.0,0.0,0.0,0.0,0.0,0.0,0.0,0.0,0.0,0.0,0.0,0.0,0.0,0.0,0.0,0.0,0.0,0.0,0.0,0.0,0.0,0.0,0.0,0.0,0.0,0.0,0.0,0.0,0.0,0.0,0.0,0.0,0.0,0.0,0.0,0.0,0.0,0.0,0.0,0.0,0.0,0.0,0.0,0.0,-6.152,-6.4874,0.0,-7.2532,-7.3817,-7.301,-6.9926,-6.7026,-6.4714,0.0,0.0,0.0,0.0,0.0,0.0,0.0,0.0,0.0,0.0,0.0,0.0,0.0,0.0,0.0,0.0,0.0,0.0,0.0,0.0,0.0,0.0,0.0,0.0,0.0,0.0,0.0,0.0,0.0,0.0,0.0,0.0,0.0,0.0,0.0,0.0,0.0,0.0,0.0,0.0,0.0,0.0,0.0,0.0,0.0,0.0,0.0,0.0,0.0,0.0,0.0,0.0,0.0,0.0,0.0,0.0,0.0,0.0,0.0,0.0,0.0,0.0,0.0,0.0,0.0,0.0,0.0,0.0,0.0,0.0,0.0,0.0,0.0,0.0,0.0,0.0,0.0,0.0,0.0,0.0,0.0,0.0,0.0,0.0,0.0,0.0,0.0,0.0,0.0,0.0,0.0,0.0,0.0,0.0,0.0,0.0,0.0,0.0,0.0,0.0,0.0,0.0,-5.845,-6.0905,-6.3997,0.0,-7.1101,-7.2312,-7.1798,-6.8348,-6.5595,-6.4163,0.0,0.0,0.0,0.0,0.0,0.0,0.0,0.0,0.0,0.0,0.0,0.0,0.0,0.0,0.0,0.0,0.0,0.0,0.0,0.0,0.0,0.0,0.0,0.0,0.0,0.0,0.0,0.0,0.0,0.0,0.0,0.0,0.0,0.0,0.0,0.0,0.0,0.0,0.0,0.0,0.0,0.0,0.0,0.0,0.0,0.0,0.0,0.0,0.0,0.0,0.0,0.0,0.0,0.0,0.0,0.0,0.0,0.0,0.0,0.0,0.0,0.0,0.0,0.0,0.0,0.0,0.0,0.0,0.0,0.0,0.0,0.0,0.0,0.0,0.0,0.0,0.0,0.0,0.0,0.0,0.0,0.0,0.0,0.0,0.0,0.0,0.0,0.0,0.0,0.0,0.0,0.0,0.0,0.0,0.0,0.0,0.0,0.0,0.0,0.0,0.0,0.0,-5.7659,-5.9615,-6.2155,-6.605,-6.8641,-7.0073,-7.0073,-6.4127,-6.1447,0.0,0.0,0.0,0.0,0.0,0.0,0.0,0.0,0.0,0.0,0.0,0.0,0.0,0.0,0.0,0.0,0.0,0.0,0.0,0.0,0.0,0.0,0.0,0.0,0.0,0.0,0.0,0.0,0.0,0.0,0.0,0.0,0.0,0.0,0.0,0.0,0.0,0.0,0.0,0.0,0.0,0.0,0.0,0.0,0.0,0.0,0.0,0.0,0.0,0.0,0.0,0.0,0.0,0.0,0.0,0.0,0.0,0.0,0.0,0.0,0.0,0.0,0.0,0.0,0.0,0.0,0.0,0.0,0.0,0.0,0.0,0.0,0.0,0.0,0.0,0.0,0.0,0.0,0.0,0.0,0.0,0.0,0.0,0.0,0.0,0.0,0.0,0.0,0.0,0.0,0.0,0.0,0.0,0.0,0.0,0.0,0.0,0.0,0.0,0.0,0.0,0.0,0.0,-5.6782,-5.781,-6.008,-6.5134,-6.6806,-6.7797,-6.8348,-6.4016,-6.1557,-6.2291,0.0,0.0,0.0,0.0,0.0,0.0,0.0,0.0,0.0,0.0,0.0,0.0,0.0,0.0,0.0,0.0,0.0,0.0,0.0,0.0,0.0,0.0,0.0,0.0,0.0,0.0,0.0,0.0,0.0,0.0,0.0,0.0,0.0,0.0,0.0,0.0,0.0,0.0,0.0,0.0,0.0,0.0,0.0,0.0,0.0,0.0,0.0,0.0,0.0,0.0,0.0,0.0,0.0,0.0,0.0,0.0,0.0,0.0,0.0,0.0,0.0,0.0,0.0,0.0,0.0,0.0,0.0,0.0,0.0,0.0,0.0,0.0,0.0,0.0,0.0,0.0,0.0,0.0,0.0,0.0,0.0,0.0,0.0,0.0,0.0,0.0,0.0,0.0,0.0,0.0,0.0,0.0,0.0,0.0,0.0,0.0,0.0,0.0,0.0,0.0,0.0,0.0,-5.6393,-5.7029,-5.8968,-6.3778,-6.5338,-6.6072,-6.6256,-6.2805,-6.0493,-6.0162,0.0,0.0,0.0,0.0,0.0,0.0,0.0,0.0,0.0,0.0,0.0,0.0,0.0,0.0,0.0,0.0,0.0,0.0,0.0,0.0,0.0,0.0,0.0,0.0,0.0,0.0,0.0,0.0,0.0,0.0,0.0,0.0,0.0,0.0,0.0,0.0,0.0,0.0,0.0,0.0,0.0,0.0,0.0,0.0,0.0,0.0,0.0,0.0,0.0,0.0,0.0,0.0,0.0,0.0,0.0,0.0,0.0,0.0,0.0,0.0,0.0,0.0,0.0,0.0,0.0,0.0,0.0,0.0,0.0,0.0,0.0,0.0,0.0,0.0,0.0,0.0,0.0,0.0,0.0,0.0,0.0,0.0,0.0,0.0,0.0,0.0,0.0,0.0,0.0,0.0,0.0,0.0,0.0,0.0,0.0,0.0,0.0,0.0,0.0,0.0,0.0,0.0,-5.6323,-5.6894,-5.8402,-6.2203,-6.4016,-6.4677,-6.3906,-6.0933,-5.8804,-5.8033,0.0,0.0,0.0,0.0,0.0,0.0,0.0,0.0,0.0,0.0,0.0,0.0,0.0,0.0,0.0,0.0,0.0,0.0,0.0,0.0,0.0,0.0,0.0,0.0,0.0,0.0,0.0,0.0,0.0,0.0,0.0,0.0,0.0,0.0,0.0,0.0,0.0,0.0,0.0,0.0,0.0,0.0,0.0,0.0,0.0,0.0,0.0,0.0,0.0,0.0,0.0,0.0,0.0,0.0,0.0,0.0,0.0,0.0,0.0,0.0,-5.0947,0.0,0.0,0.0,0.0,0.0,0.0,0.0,0.0,0.0,0.0,0.0,0.0,0.0,0.0,0.0,0.0,0.0,0.0,0.0,0.0,0.0,0.0,0.0,0.0,0.0,0.0,0.0,0.0,0.0,0.0,0.0,0.0,0.0,0.0,0.0,0.0,0.0,0.0,0.0,0.0,0.0,-5.5524,-5.6085,-5.737,-6.0591,-6.1814,-6.2328,-6.2144,-5.9758,-5.818,-5.7997,-5.6492,0.0,0.0,0.0,0.0,0.0,0.0,0.0,0.0,0.0,0.0,0.0,0.0,0.0,0.0,0.0,0.0,0.0,0.0,0.0,0.0,0.0,0.0,0.0,0.0,0.0,0.0,0.0,0.0,0.0,0.0,0.0,0.0,0.0,0.0,0.0,0.0,0.0,0.0,0.0,0.0,0.0,0.0,0.0,0.0,0.0,0.0,0.0,0.0,0.0,0.0,0.0,0.0,0.0,0.0,0.0,0.0,0.0,0.0,0.0,0.0,-5.1691,0.0,0.0,0.0,0.0,0.0,0.0,0.0,0.0,0.0,0.0,0.0,0.0,0.0,0.0,0.0,0.0,0.0,0.0,0.0,0.0,0.0,0.0,0.0,0.0,0.0,0.0,0.0,0.0,0.0,0.0,0.0,0.0,0.0,0.0,0.0,0.0,0.0,0.0,0.0,0.0,-5.5369,-5.5793,-5.6887,-5.9553,-6.0529,-6.086,-6.0493,-5.8951,-5.7519,-5.6345,-5.5831,0.0,0.0,0.0,0.0,0.0,0.0,0.0,0.0,0.0,0.0,0.0,0.0,0.0,0.0,0.0,0.0,0.0,0.0,0.0,0.0,0.0,0.0,0.0,0.0,0.0,0.0,0.0,0.0,0.0,0.0,0.0,0.0,0.0,0.0,0.0,0.0,0.0,0.0,0.0,0.0,0.0,0.0,0.0,0.0,0.0,0.0,0.0,0.0,0.0,0.0,0.0,0.0,0.0,-5.1961,-5.3112,-5.5513,-5.5006,-5.4532,-5.4059,-5.3382,-5.2097,-5.0608,0.0,0.0,0.0,0.0,0.0,0.0,0.0,0.0,0.0,0.0,0.0,0.0,0.0,0.0,0.0,0.0,0.0,0.0,0.0,0.0,0.0,0.0,0.0,0.0,0.0,-5.4499,-5.3687,0.0,0.0,0.0,0.0,0.0,0.0,0.0,0.0,0.0,0.0,0.0,0.0,-5.5398,-5.5874,-5.6769,-5.877,-5.9722,-5.9869,-5.9038,-5.84,-5.7042,-5.473,-5.5207,-5.4987,0.0,0.0,0.0,0.0,0.0,0.0,0.0,0.0,0.0,0.0,0.0,0.0,0.0,0.0,0.0,0.0,0.0,0.0,0.0,0.0,0.0,0.0,0.0,0.0,0.0,0.0,0.0,0.0,0.0,0.0,0.0,0.0,-3.9274,-4.0558,0.0,0.0,0.0,0.0,0.0,0.0,0.0,0.0,0.0,0.0,0.0,0.0,0.0,-4.9942,-5.0551,-5.2031,-5.2604,-5.23,-5.3551,-5.4363,-5.4769,-5.531,-5.5852,-5.6359,-5.6258,0.0,-5.1995,-5.1657,0.0,0.0,0.0,0.0,0.0,0.0,0.0,0.0,0.0,0.0,0.0,0.0,0.0,0.0,0.0,0.0,0.0,0.0,0.0,0.0,0.0,0.0,-5.5006,-5.4025,-5.4126,-5.4431,0.0,-5.4532,-5.46,-5.46,-5.4093,0.0,0.0,0.0,0.0,0.0,0.0,0.0,-5.5504,-5.6366,-5.7168,-5.806,-5.8877,-5.9024,-5.8217,-5.807,-5.7262,-5.5537,-5.5559,-5.55,-5.528,-5.4693,0.0,0.0,0.0,0.0,0.0,0.0,0.0,0.0,0.0,0.0,0.0,0.0,0.0,0.0,0.0,0.0,0.0,0.0,0.0,0.0,0.0,0.0,0.0,0.0,0.0,0.0,0.0,0.0,0.0,-4.1334,-4.2119,-4.2426,-4.2959,-4.3738,0.0,0.0,0.0,0.0,0.0,0.0,0.0,0.0,0.0,-4.852,-4.9944,-5.0676,-5.0574,-5.2063,-5.3281,-5.4228,-5.531,-5.6494,-5.7712,-5.8017,-5.8355,-5.866,-5.866,-5.7442,-5.5344,-5.4228,-5.3382,-5.2773,0.0,0.0,0.0,0.0,-5.2604,-5.3078,-5.3923,-5.3754,0.0,0.0,0.0,0.0,0.0,0.0,0.0,0.0,0.0,0.0,0.0,0.0,0.0,-5.416,-5.4059,-5.4093,-5.4499,-5.4262,-5.4093,0.0,-5.4668,-5.46,-5.4194,0.0,0.0,0.0,0.0,-5.4477,-5.5561,-5.6402,-5.7167,-5.7937,-5.8327,-5.84,-5.8033,-5.7997,-5.7519,-5.6345,-5.6271,-5.5868,-5.495,-5.5464,-5.6014,0.0,0.0,0.0,0.0,0.0,0.0,0.0,0.0,0.0,0.0,0.0,0.0,0.0,0.0,0.0,0.0,0.0,0.0,0.0,0.0,0.0,0.0,0.0,0.0,0.0,0.0,0.0,0.0,-4.2408,-4.3718,-4.3478,-4.4163,-4.4982,0.0,0.0,0.0,0.0,0.0,0.0,-4.7106,-4.853,-4.9658,-5.0371,-5.1319,-5.1792,-5.1792,-5.3078,-5.4769,-5.6833,-5.7611,-5.893,-6.0689,-6.0486,-6.0419,-6.0385,-6.0182,-5.937,-5.8051,-5.6393,-5.4702,-5.3145,-5.2739,-5.2503,-5.2401,-5.2773,-5.3382,-5.4228,-5.5309,-5.5209,-5.4769,-5.5919,0.0,-5.3991,-5.3619,0.0,0.0,0.0,0.0,-5.3585,-5.3957,-5.3923,-5.3957,-5.4702,-5.4329,-5.3923,-5.4465,-5.416,-5.389,0.0,-5.4769,-5.4972,-5.4397,0.0,0.0,0.0,0.0,-5.5336,-5.5933,-5.6647,-5.7336,-5.7923,-5.7997,-5.7997,-5.7997,-5.7997,-5.7556,-5.6565,-5.6492,-5.5868,-5.4473,-5.5537,-5.6088,-5.5904,0.0,0.0,0.0,0.0,0.0,0.0,0.0,0.0,0.0,0.0,0.0,0.0,0.0,0.0,0.0,0.0,0.0,0.0,0.0,0.0,0.0,0.0,0.0,0.0,0.0,0.0,0.0,0.0,0.0,-4.2012,-4.3357,0.0,0.0,0.0,0.0,-4.6291,-4.7703,-4.863,-4.8861,-5.0274,-5.1085,-5.1117,-5.2604,-5.4397,-5.6427,-5.7239,-5.8389,-5.9877,-6.0689,-6.1501,-6.2245,-6.1569,-6.1231,-6.1197,-6.0419,-5.9674,-5.8795,-5.6594,-5.5614,-5.5377,-5.3991,-5.4296,-5.5377,-5.4735,-5.4938,-5.5615,-5.5683,-5.5209,-5.4938,-5.707,-5.6799,-5.5344,-5.3923,-5.3518,0.0,0.0,-5.4025,-5.3822,-5.5243,-5.5074,-5.4735,-5.548,-5.5074,-5.4532,-5.4566,-5.4566,-5.4329,0.0,-5.3585,-5.3619,-5.3551,0.0,-5.4544,-5.4544,-5.5836,-5.6763,-5.6825,-5.7462,-5.796,-5.7997,-5.7997,-5.7997,-5.7997,-5.7997,-5.7336,-5.578,-5.5647,-5.528,-5.4436,-5.4473,-5.5207,-5.6712,-5.6014,0.0,0.0,0.0,0.0,0.0,0.0,0.0,0.0,0.0,0.0,0.0,0.0,0.0,0.0,0.0,0.0,0.0,0.0,0.0,0.0,0.0,0.0,0.0,0.0,0.0,0.0,0.0,0.0,-4.7398,-4.7761,0.0,-4.8758,-4.7994,-4.7566,-4.7869,-4.9393,-5.0555,-5.1083,-5.257,-5.4025,-5.548,-5.5581,-5.6461,-5.822,-5.849,-5.9099,-6.0114,-6.0385,-6.0926,-6.167,-6.1434,-6.1298,-6.1332,-6.1501,-6.0858,-5.9641,-5.8863,-5.7408,-5.5615,-5.46,-5.4228,-5.4329,-5.4532,-5.5378,-5.6494,-5.6934,-5.6934,-5.6596,-5.5987,-5.5108,-5.4194,-5.3653,-5.3518,-5.3653,-5.4397,-5.4397,-5.4329,-5.4871,-5.5141,-5.5243,-5.504,-5.4769,-5.46,-5.46,-5.4228,-5.3822,-5.3551,-5.429,-5.4752,-5.4303,-5.4818,-5.532,-5.532,-5.6204,-5.6912,-5.6912,-5.7522,-5.7997,-5.7997,-5.7997,-5.7997,-5.7997,-5.7997,-5.7519,-5.6455,-5.6381,-5.5794,-5.4436,-5.4913,-5.5427,-5.6014,-5.5244,-5.5721,0.0,0.0,0.0,0.0,0.0,0.0,0.0,0.0,0.0,0.0,0.0,0.0,0.0,0.0,0.0,0.0,0.0,0.0,0.0,0.0,0.0,0.0,0.0,0.0,0.0,0.0,-4.8113,-5.0606,-5.0985,-5.1224,-5.169,-5.0624,-4.9892,-4.9892,-5.1665,-5.2942,-5.3416,-5.4871,-5.6258,-5.7476,-5.7306,-5.778,-5.8998,-5.9032,-5.937,-6.0114,-6.0114,-6.0385,-6.0892,-6.0655,-6.052,-6.0554,-6.0791,-6.0283,-5.937,-5.937,-5.822,-5.6393,-5.5886,-5.5547,-5.5412,-5.5919,-5.6697,-5.7611,-5.8084,-5.8084,-5.7611,-5.5886,-5.4837,-5.4262,-5.4262,-5.4262,-5.4397,-5.5141,-5.4972,-5.4702,-5.5209,-5.5344,-5.5209,-5.4702,-5.46,-5.4532,-5.4262,-5.3856,-5.3518,-5.3518,-5.4485,-5.5164,-5.4676,-5.5437,-5.6087,-5.6087,-5.6773,-5.7277,-5.7277,-5.7703,-5.7997,-5.7997,-5.7997,-5.7997,-5.7997,-5.7997,-5.7666,-5.6859,-5.6822,-5.6198,-5.484,-5.5574,-5.5978,-5.5978,-5.5464,-5.6014,-5.7593,0.0,0.0,0.0,0.0,0.0,0.0,0.0,0.0,0.0,0.0,0.0,0.0,0.0,0.0,0.0,0.0,0.0,0.0,0.0,0.0,0.0,0.0,0.0,-4.379,-4.7949,-5.0907,-5.1008,-5.2502,-5.301,-5.1522,-5.1995,-5.2435,-5.2435,-5.4532,-5.5749,-5.5749,-5.7171,-5.7611,-5.69,-5.7543,-5.8287,-5.8998,-5.9032,-5.937,-6.008,-6.008,-6.008,-6.0047,-5.9336,-5.9032,-5.8964,-5.8254,-5.7949,-5.7949,-5.7915,-5.7949,-5.7983,-5.7915,-5.8355,-5.8998,-5.8998,-5.8998,-5.9032,-5.9032,-5.8524,-5.7746,-5.7002,-5.6292,-5.5681,-5.5683,-5.5647,-5.5852,-5.6596,-5.575,-5.5006,-5.6427,-5.575,-5.4668,-5.4634,-5.4634,-5.4431,-5.3687,-5.3518,-5.3517,-5.3517,-5.4171,-5.4634,-5.4668,-5.5928,-5.6938,-5.6938,-5.7522,0.0,-5.7997,-5.7997,-5.7997,-5.7997,-5.7997,-5.7997,-5.7997,-5.7997,-5.7666,-5.6859,-5.6822,-5.6455,-5.5633,-5.6345,-5.6748,-5.6748,-5.6822,-5.6822,-5.6822,0.0,0.0,0.0,0.0,0.0,0.0,0.0,0.0,0.0,0.0,0.0,0.0,0.0,0.0,0.0,0.0,0.0,0.0,0.0,0.0,0.0,0.0,-4.5921,-4.6303,-4.8667,-5.1122,-5.3344,-5.4496,-5.5141,-5.5243,-5.4972,-5.5006,-5.5513,-5.663,-5.7306,-5.7306,-5.8693,-5.9167,-5.8423,-5.8592,-5.8795,-5.9032,-5.9032,-5.9133,-5.9302,-5.9302,-5.9302,-5.9302,-5.9099,-5.9032,-5.9032,-5.9336,-5.9505,-5.9438,-5.893,-5.937,-6.0182,-5.8524,-5.8017,-5.8186,-5.8186,-5.8558,-5.9032,-5.9032,-5.8524,-5.7679,-5.6427,-5.5886,-5.5615,-5.5074,-5.5277,-5.5852,-5.6596,-5.6528,-5.6292,-5.6697,-5.69,-5.6697,-5.5649,-5.5412,-5.5209,-5.4465,-5.4289,-5.4296,-5.4296,-5.5355,-5.6095,-5.5495,-5.6659,-5.7703,-5.7703,-5.7881,0.0,-5.7997,-5.7997,-5.7997,-5.7997,-5.7997,-5.7997,-5.7997,-5.7997,-5.7666,-5.6859,-5.6822,-5.6455,-5.5633,-5.5794,-5.5941,-5.5941,-5.7079,-5.7373,0.0,0.0,0.0,0.0,0.0,0.0,0.0,0.0,0.0,0.0,0.0,0.0,0.0,0.0,0.0,0.0,0.0,0.0,0.0,0.0,0.0,0.0,-4.6614,-4.879,-4.9664,-5.1043,-5.2839,-5.5242,-5.6156,-5.6799,-5.7205,-5.6867,-5.6799,-5.7239,-5.7949,-5.822,-5.7915,-5.8998,-5.9302,-5.8558,-5.8558,-5.8558,-5.8558,-5.8558,-5.8558,-5.8558,-5.8558,-5.8558,-5.8558,-5.8558,-5.8558,0.0,-5.8998,-5.9167,-5.9133,-5.8727,-5.9066,0.0,0.0,0.0,0.0,0.0,-5.8355,-5.8964,-5.866,-5.8051,-5.7306,-5.6461,-5.6156,-5.6089,-5.5649,-5.5818,-5.6325,-5.7036,-5.6833,-5.6359,-5.6359,-5.6664,-5.6596,-5.5141,-5.5277,-5.5412,-5.4363,-5.4622,-5.4988,-5.4641,-5.5844,0.0,-5.6286,-5.7216,-5.7997,-5.7997,-5.7997,-5.7997,-5.7997,-5.7997,-5.7997,-5.7997,-5.7997,-5.7997,-5.7997,-5.7997,0.0,0.0,0.0,-5.7079,-5.6602,-5.6602,0.0,0.0,0.0,-5.7776,-5.7299,0.0,0.0,0.0,-5.7776,-5.774,0.0,0.0,0.0,0.0,0.0,0.0,0.0,0.0,0.0,0.0,0.0,0.0,0.0,0.0,0.0,0.0,-4.8677,-5.1116,-5.3404,-5.4382,-5.531,-5.663,-5.7442,-5.7915,-5.8017,-5.7949,-5.7949,-5.8118,-5.8761,-5.8863,-5.8186,0.0,0.0,0.0,0.0,-5.8051,-5.7881,-5.7881,-5.7915,-5.8017,-5.7915,-5.7983,-5.8118,-5.7949,-5.7949,-5.8017,-5.7915,-5.7949,-5.8017,-5.7915,-5.7881,-5.7881,-5.7881,-5.8693,-5.9674,-5.8389,-5.8321,-5.8795,-5.8118,0.0,0.0,-5.6799,-5.6799,-5.6799,-5.6799,-5.6867,-5.707,-5.7712,-5.69,-5.5817,-5.5817,-5.5784,-5.5378,-5.3957,-5.4634,-5.5209,-5.3923,-5.4718,-5.5529,-5.4987,-5.6039,-5.7015,-5.7015,-5.7546,-5.7997,-5.7997,-5.7997,-5.7997,-5.7997,-5.7997,-5.7997,-5.7997,0.0,0.0,-5.7997,-5.7997,-5.7997,-5.7997,-5.7997,-5.7997,-5.7997,-5.7997,-5.7997,-5.7997,-5.7997,-5.7997,-5.7997,-5.7997,-5.7997,-5.7997,-5.7997,-5.7997,0.0,0.0,0.0,0.0,0.0,0.0,0.0,0.0,0.0,0.0,0.0,0.0,0.0,0.0,0.0,-4.9619,-5.0961,-5.2879,-5.6474,-5.6624,-5.6494,-5.6765,-5.7442,-5.8118,-5.8727,-5.8254,-5.8389,-5.9573,-5.981,-5.981,-5.9674,-6.0994,-6.0825,-5.8863,-5.937,-5.9099,-5.7915,-5.7881,-5.8186,-5.8795,0.0,0.0,-5.9641,-5.8423,-5.822,-5.8761,-5.8152,-5.822,-5.8761,-5.8152,-5.7881,-5.7881,-5.7881,-5.8051,-5.8287,-5.7983,-5.7983,-5.8084,-5.7949,-5.7408,-5.6799,-5.6799,-5.6799,-5.6799,-5.6799,-5.7205,0.0,-5.7848,-5.7273,-5.6596,-5.6596,-5.6156,-5.548,-5.46,-5.46,-5.4737,-5.4471,-5.5074,-5.5844,-5.6349,-5.7166,-5.7774,-5.7774,-5.7927,-5.7997,-5.7997,-5.7997,-5.7997,-5.7997,-5.7997,-5.7997,-5.7997,-5.7997,-5.7997,-5.7997,-5.7997,-5.7997,-5.7997,-5.7997,-5.7997,-5.7997,-5.7997,-5.7997,-5.7997,-5.7997,-5.7997,-5.7997,-5.7997,-5.7997,-5.7997,-5.7997,-5.7997,0.0,0.0,0.0,0.0,0.0,0.0,0.0,0.0,0.0,0.0,0.0,-4.5479,0.0,0.0,-4.9594,-5.226,-5.3953,-5.5791,-5.8113,-5.8457,-5.8321,-5.7949,-5.822,-5.8592,-5.8964,-5.8998,-5.9133,-5.9539,-5.9911,-5.9776,-5.9032,-6.0419,-6.0554,-5.9066,-5.937,-5.937,-5.8998,-5.8626,-5.8829,-5.9573,-5.9167,-5.937,-6.008,-5.9336,-5.9201,-5.9505,-5.8761,-5.866,-5.8964,-5.8186,-5.7881,-5.7881,-5.7881,-5.7881,-5.7881,-5.7881,-5.7881,-5.7881,-5.7881,-5.7408,-5.6799,-5.6799,-5.6799,-5.6799,-5.6799,-5.707,-5.734,-5.734,-5.6833,-5.6156,-5.5784,-5.5412,-5.4972,-5.4228,-5.46,-5.5031,-5.4686,-5.5783,-5.6859,-5.6907,-5.7498,-5.7997,-5.7997,-5.7997,-5.7997,-5.7997,-5.7997,-5.7997,-5.7997,-5.7997,-5.7997,-5.7997,-5.7997,-5.7997,-5.7997,-5.7997,-5.7997,-5.7997,-5.7997,-5.7997,-5.7997,-5.7997,-5.7997,-5.7997,-5.7997,-5.7997,-5.7997,-5.7997,-5.7997,-5.7997,-5.7997,-5.7997,0.0,0.0,0.0,0.0,0.0,0.0,0.0,-4.4529,-4.4854,-4.5438,-4.6284,-4.7357,-4.8952,-5.0634,-5.2518,-5.4642,-5.6633,-5.8254,-5.9302,-5.981,-5.9877,-5.9302,-5.9099,-5.9133,-5.9438,-5.9573,-5.9674,-5.9674,-5.9945,-5.9708,-5.8795,-5.9877,-6.0216,-5.9471,-5.9471,-5.9674,-6.0114,-5.9505,-5.9607,-6.0317,-6.0182,-6.025,-6.0554,-6.025,-6.0182,-6.0283,-5.9404,-5.893,-5.8761,-5.8152,-5.7881,-5.7881,-5.7881,-5.7881,-5.7881,-5.7881,-5.7881,-5.7881,-5.7881,-5.7408,-5.6833,-5.6968,-5.6934,-5.6833,-5.6968,-5.69,-5.6799,-5.6799,-5.619,-5.5378,-5.4938,-5.46,-5.4296,-5.399,-5.4754,-5.5397,-5.5109,-5.6509,-5.767,-5.721,-5.757,-5.7997,-5.7997,-5.7997,-5.7997,-5.7997,-5.7997,-5.7997,-5.7997,-5.7997,-5.7997,-5.7997,-5.7997,-5.7997,-5.7997,-5.7997,-5.7997,-5.7997,-5.7997,-5.7997,-5.7997,-5.7997,-5.7997,-5.7997,-5.7997,-5.7997,-5.7997,-5.7997,-5.7997,-5.7997,-5.7997,-5.7997,-4.2693,-4.174,-4.1681,-4.3606,-4.4843,-4.6182,0.0,-4.9813,-5.0318,-5.0419,-5.1563,-5.2438,-5.1967,-5.318,-5.4936,-5.7164,-5.7744,-5.8626,-6.0757,-6.0486,-6.008,-5.9979,-5.9404,-5.9539,-6.0926,-5.9268,-5.9201,-6.1806,-6.0825,-6.0622,-6.1806,-6.2042,-6.1806,-6.1061,-6.1028,-6.0757,-6.0114,-6.0013,-6.0385,-6.1163,-6.0452,-6.0825,-6.2076,-6.0723,-6.0486,-6.1095,-5.9641,-5.8626,-5.8017,-5.7915,-5.7881,-5.7881,-5.7881,-5.7881,-5.7881,-5.7881,-5.7881,-5.7881,-5.7881,-5.7408,-5.69,-5.7543,-5.734,-5.6934,-5.7577,-5.7306,-5.6799,-5.6799,-5.5784,-5.4837,-5.5446,-5.46,-5.3956,-5.5157,-5.5067,-5.5074,-5.6349,-5.6819,-5.7199,-5.7786,-5.795,-5.7997,-5.7997,-5.7997,-5.7997,-5.7997,-5.7997,-5.7997,-5.7997,-5.7997,-5.7997,-5.7997,-5.7997,-5.7997,-5.7997,-5.7997,-5.7997,-5.7997,-5.7997,-5.7997,-5.7997,-5.7997,-5.7997,-5.7997,-5.7997,-5.7997,-5.7997,-5.7997,-5.7997,-5.7997,-5.7997,-5.7997,-4.2166,-4.2351,-4.3313,-4.4227,-4.6681,-4.9357,-5.1014,-5.23,-5.3179,-5.3179,-5.4025,-5.4837,-5.4905,-5.5446,-5.6461,0.0,-5.8896,-5.9674,-6.1095,-6.1028,-6.0622,-6.0148,-5.9066,-5.8795,-5.9877,-5.9505,-5.9708,-6.096,-6.0892,-6.0689,-6.0419,-6.167,-6.1839,-6.0655,-6.1061,-6.1332,-6.1434,-6.0994,-6.1163,-6.1941,-6.1603,-6.1772,-6.2381,-6.1738,-6.1129,-6.0554,-5.9471,-5.8592,-5.7881,-5.7881,-5.7881,-5.7881,-5.7881,-5.7881,-5.7881,-5.7881,-5.7881,-5.7814,-5.7408,-5.707,-5.6867,-5.7171,-5.7036,-5.6934,-5.7679,-5.7374,-5.6804,-5.6816,-5.5758,-5.4771,-5.5516,-5.5271,-5.5092,-5.6171,-5.6526,-5.6827,-5.7457,-5.7543,-5.7655,-5.795,-5.7997,-5.7997,-5.7997,-5.7997,-5.7997,-5.7997,-5.7997,-5.7997,-5.7997,-5.7997,-5.7997,-5.7997,-5.7997,-5.7997,-5.7997,-5.7997,-5.7997,-5.7997,-5.7997,-5.7997,-5.7997,-5.7997,-5.7997,-5.7997,-5.7997,-5.7997,-5.7997,-5.7997,-5.7997,-5.7997,-5.7997,-5.7997,-4.2655,-4.3513,-4.4907,-4.6085,-4.9114,-5.2131,-5.3281,-5.4735,-5.5818,-5.5818,-5.6089,-5.6427,-5.6731,-5.6799,-5.7205,-5.849,-5.9505,-6.0317,-6.0892,-6.096,-6.0588,-5.9607,-5.8355,-5.7712,-5.8084,-5.8761,-5.9438,-6.0047,-6.0452,-6.0283,-5.937,-6.1061,-6.1569,-6.0452,-6.1197,-6.1873,-6.2381,-6.1873,-6.1873,-6.2381,-6.2381,-6.2381,-6.2381,-6.2178,-6.1264,-5.9776,-5.9235,-5.8592,-5.7881,-5.7881,-5.7881,-5.7881,-5.7881,-5.7881,-5.7881,-5.7881,-5.7881,-5.7814,-5.7273,-5.7103,-5.7103,-5.7103,-5.7103,-5.7205,-5.7712,-5.7374,-5.6841,-5.7048,-5.6228,-5.5448,-5.6432,-5.6578,-5.6706,-5.7658,-5.7982,-5.8182,-5.8362,-5.8178,-5.7997,-5.7997,-5.7997,-5.7997,-5.7997,-5.7997,-5.7997,-5.7997,-5.7997,-5.7997,-5.7997,-5.7997,-5.7997,-5.7997,-5.7997,-5.7997,-5.7997,-5.7997,-5.7997,-5.7997,-5.8217,-5.8217,-5.7997,-5.8217,-5.8217,-5.7997,-5.7997,-5.7997,-5.7997,-5.7997,-5.7997,-5.7997,-5.7997,-5.7997,-4.4795,-4.5094,-4.5635,-4.9934,-5.2199,-5.3991,-5.619,-5.7814,-5.8896,-5.8896,-5.8321,-5.7611,-5.6934,-5.6799,-5.7036,-5.7814,-5.9133,-6.0114,-6.0148,-6.0148,-5.9607,-5.8118,-5.7306,-5.6562,0.0,-5.6461,-5.778,-5.9945,-5.9471,-5.937,-6.0047,-6.0858,-6.1332,-6.1264,-6.1975,-6.2381,-6.2381,-6.2381,-6.2381,-6.2381,-6.2381,-6.2381,-6.2381,-6.167,-6.0486,-5.9032,-5.9032,-5.8592,-5.7881,-5.7881,-5.7881,-5.7881,-5.7881,-5.7881,-5.7881,-5.7881,-5.7881,-5.7881,-5.7848,-5.7848,-5.7848,-5.7848,-5.7848,-5.7848,-5.7881,-5.7374,-5.6978,-5.7736,-5.7413,-5.7187,-5.8799,-5.8656,-5.8508,-5.9949,-5.9159,-5.8311,-5.9005,-5.8561,-5.7997,-5.7997,-5.7997,-5.7997,-5.7997,-5.7997,-5.7997,-5.7997,-5.7997,-5.7997,-5.7997,-5.7997,-5.7997,-5.7997,-5.7997,-5.7997,-5.7997,-5.7997,-5.7997,-5.7997,-5.8731,-5.8804,-5.8033,-5.8767,-5.8804,-5.8033,-5.7997,-5.7997,-5.7997,-5.7997,-5.7997,-5.7997,-5.7997,-5.7997,-4.4553,-4.6921,-4.9695,-5.2706,-5.531,-5.7611,-5.9404,-6.0182,-6.025,-5.9235,-5.7239,-5.548,-5.4735,-5.416,-5.4397,-5.6156,-5.8084,-5.9539,-6.0047,-6.0554,-5.9979,-5.7476,-5.6934,0.0,0.0,0.0,0.0,-5.849,-5.8389,-5.8795,-6.0047,-6.0351,-6.0757,-6.1298,-6.1535,-6.1907,-6.2381,-6.2381,-6.2381,-6.2381,-6.2381,-6.2144,-6.1637,-6.0858,-5.9945,-5.8998,-5.849,-5.8118,-5.7881,-5.7881,-5.7881,-5.7881,-5.7881,-5.7881,-5.7881,-5.7881,-5.7881,-5.7814,-5.734,-5.7171,-5.7171,-5.7171,-5.7171,-5.7273,-5.7746,-5.7735,-5.7771,-5.8549,-5.8303,-5.8124,-5.9638,-5.9901,-5.9985,-6.0971,-6.0399,-5.9676,-5.9931,-5.8951,-5.7997,-5.7997,-5.7997,-5.7997,-5.7997,-5.7997,-5.7997,-5.7997,-5.7997,-5.7997,-5.7997,-5.7997,-5.7997,-5.7997,-5.7997,-5.7997,-5.7997,-5.7997,-5.7997,-5.7997,-5.8253,-5.829,-5.7997,-5.8253,-5.8547,-5.8804,-5.8253,-5.8253,-5.8804,-5.8253,-5.7997,-5.7997,-5.7997,-5.7997,-4.6684,-4.983,-5.3078,-5.5852,-5.822,-6.008,-6.1061,-6.1095,-6.0283,-5.8254,-5.5683,-5.3382,-5.2131,-5.1251,-5.1386,-5.3382,-5.5344,-5.707,-5.8355,-5.8761,-5.8389,-5.6968,-5.6325,-5.575,0.0,0.0,0.0,-5.7408,-5.7746,-5.8423,-5.9641,-5.9945,-6.0486,-6.1264,-6.1569,-6.1907,-6.2381,-6.2381,-6.2381,-6.2381,-6.2381,-6.1839,-6.0858,-6.0351,-5.9539,-5.8592,-5.8084,-5.7881,-5.7881,-5.7881,-5.7881,-5.7881,-5.7881,-5.7881,-5.7881,-5.7881,-5.8065,-5.8213,-5.7448,-5.7171,-5.7243,-5.7529,-5.76,-5.7773,-5.8565,-5.8799,-5.9032,-5.9834,-5.9744,-5.9695,-6.0928,-6.1287,-6.1432,-6.1914,-6.1197,-6.0419,-6.0419,-5.9134,-5.7997,-5.7997,-5.7997,-5.7997,-5.7997,-5.7997,-5.7997,-5.7997,-5.7997,-5.7997,-5.7997,-5.7997,-5.7997,-5.7997,-5.7997,-5.7997,-5.7997,-5.7997,-5.7997,-5.7997,-5.8253,-5.829,-5.7997,-5.829,-5.8547,-5.8767,-5.8253,-5.8253,-5.8767,-5.8253,-5.7997,-5.7997,-5.7997,-5.7997,-5.1048,-5.3653,-5.5784,-5.9302,-6.0757,-6.1332,-6.1264,-6.052,-5.9066,-5.6156,-5.3653,-5.1319,0.0,0.0,-4.8274,-4.9796,-5.142,-5.3281,-5.5513,-5.5277,-5.5378,0.0,0.0,0.0,0.0,0.0,0.0,-5.6867,0.0,-5.8186,-5.8964,-5.9674,-6.0419,-6.1264,-6.1975,-6.2347,-6.2381,-6.2381,-6.2381,-6.2381,-6.2381,-6.1569,-6.0114,-6.0114,-5.9302,-5.7881,-5.7881,-5.7881,-5.7881,-5.7881,-5.7881,-5.7881,-5.7881,-5.7881,-5.7881,-5.7954,-5.8424,-5.8976,-5.8281,-5.8027,-5.8137,-5.8943,-5.9178,-5.9311,-6.0149,-6.0432,-6.061,-6.1407,-6.1632,-6.1824,-6.2592,-6.278,-6.278,-6.278,-6.1594,-6.0419,-6.0419,-5.9134,-5.7997,-5.7997,-5.7997,-5.7997,-5.7997,-5.7997,-5.7997,-5.7997,-5.8033,-5.8033,-5.7997,-5.7997,-5.7997,-5.7997,-5.7997,-5.7997,-5.7997,-5.7997,-5.7997,-5.7997,-5.8731,-5.8804,-5.8033,-5.8731,-5.8804,-5.807,-5.8033,-5.8033,-5.807,-5.8033,-5.7997,-5.7997,-5.7997,-5.7997,-5.3179,-5.6731,-5.981,-6.0757,-6.1569,-6.1806,-6.0655,-5.8558,-5.6156,-5.3687,-5.0101,-4.7056,-4.5906,-4.6007,0.0,-4.8951,-5.2401,0.0,-5.7103,-5.8118,0.0,-5.7712,0.0,-5.69,-5.6562,-5.6528,0.0,0.0,-5.7611,-5.7645,-5.893,-5.9201,-5.9911,-6.1264,-6.1467,-6.1839,-6.2381,-6.2381,-6.2381,-6.2381,-6.2381,-6.1569,-6.0114,-6.0114,-5.9302,-5.7881,-5.7881,-5.7881,-5.7881,-5.7881,-5.7881,-5.7881,-5.7881,-5.7881,-5.7991,-5.8564,-5.8943,-5.9144,-5.9606,-5.9736,-5.9768,-5.9991,-6.0055,-6.0117,-6.0335,-6.082,-6.1314,-6.1548,-6.2023,-6.2541,-6.2755,-6.278,-6.278,-6.278,-6.1594,-6.0419,-6.0419,-5.9134,-5.7997,-5.7997,-5.7997,-5.7997,-5.7997,-5.7997,-5.7997,-5.7997,-5.851,-5.8694,-5.807,-5.7997,-5.7997,-5.7997,-5.7997,-5.7997,-5.7997,-5.7997,-5.7997,-5.7997,-5.818,-5.8217,-5.7997,-5.8217,-5.851,-5.8914,-5.8327,-5.829,-5.8914,-5.829,-5.7997,-5.7997,-5.7997,-5.7997,-5.6224,-5.9099,-6.1366,-6.1704,-6.1603,-6.0825,-5.866,-5.6122,-5.3315,-5.0067,-4.6887,-4.4384,-4.3301,-4.3436,-4.4553,0.0,0.0,0.0,-5.5987,-5.69,-5.7374,0.0,-5.7611,0.0,-5.7746,-5.778,-5.8254,0.0,-5.8118,-5.8084,-5.9911,-5.9674,-6.0182,-6.1738,-6.1772,-6.1975,-6.2381,-6.2381,-6.2381,-6.2381,-6.2381,-6.1569,-6.0114,-6.0452,-5.9641,-5.7915,0.0,-5.8186,-5.7881,-5.7881,-5.7881,-5.7881,-5.7881,-5.8101,-5.8459,-5.8943,-5.9571,-6.0269,-6.076,-6.1142,-6.1407,-6.1026,-6.0909,-6.0997,-6.135,-6.1742,-6.2103,-6.2103,-6.2464,-6.278,-6.278,-6.278,-6.278,-6.278,-6.1851,-6.0933,-6.0933,-5.9648,-5.8437,-5.807,-5.7997,-5.8107,-5.8474,-5.8547,-5.8657,-5.8988,-5.9134,-5.9038,-5.8584,-5.8547,-5.8547,-5.8547,-5.8217,-5.8143,-5.851,-5.8217,-5.7997,-5.7997,-5.7997,-5.7997,-5.7997,-5.7997,-5.8217,-5.8657,-5.8584,-5.8767,-5.9184,-5.8767,-5.8547,-5.851,-5.8143,-5.7997,-5.9438,-6.1061,-6.1873,-6.2415,-6.1231,-5.9201,-5.6258,-5.3585,-5.0507,-4.6278,-4.4181,-4.2665,-4.1305,-4.1204,-4.232,-4.5365,0.0,-4.9018,-5.416,-5.4329,-5.4972,-5.7712,-5.7374,-5.7543,-5.9032,-5.9066,-5.9404,-6.0317,-5.9032,-5.9032,-6.1028,-6.0588,-6.0926,-6.2347,-6.2381,-6.2381,-6.2381,-6.2381,-6.2381,-6.2381,-6.2279,-6.1501,-6.0114,-6.0825,-6.0013,-5.8084,0.0,0.0,-5.8017,-5.7915,-5.7881,-5.7881,-5.7881,-5.8388,-5.9111,-5.9245,-6.0269,-6.1632,-6.1715,-6.2219,-6.2705,-6.1996,-6.1742,-6.1915,-6.2592,-6.278,-6.278,-6.278,-6.278,-6.278,-6.278,-6.278,-6.278,-6.278,-6.2181,-6.1594,-6.1594,-6.0419,-5.9148,-5.8437,-5.8327,-5.8547,-5.9221,-5.9368,-5.9588,-6.0309,-5.9832,-5.9294,-5.9184,-5.9111,-5.9074,-5.9184,-5.8584,-5.8474,-5.9294,-5.8731,-5.8327,-5.8327,-5.8217,-5.8143,-5.8143,-5.807,-5.8033,-5.8143,-5.8841,-5.9258,-5.9368,-5.9258,-5.9184,-5.9184,-5.8364,-5.7997,-6.1298,-6.299,-6.3903,-6.3429,-6.1231,-5.8423,-5.5446,-5.1623,-4.7736,-4.4457,-4.2625,-4.1305,-4.0451,-4.1271,-4.3098,-4.6109,-4.824,-5.115,-5.5784,-5.6325,-5.6867,0.0,-5.8152,-5.8287,-5.9776,-5.937,0.0,0.0,0.0,-5.9877,-6.0283,-6.0825,-6.1501,-6.2347,-6.2381,-6.2381,-6.2381,-6.2381,-6.2381,-6.2381,-6.1772,-6.0994,-6.0114,-6.025,-5.9776,-5.8829,-5.8964,0.0,-5.8761,-5.8152,-5.7881,-5.7881,-5.7881,-5.8388,-5.9178,-5.9896,-6.079,-6.1687,-6.235,-6.2705,-6.278,-6.2618,-6.2592,-6.2618,-6.2755,-6.278,-6.278,-6.278,-6.278,-6.278,-6.278,-6.278,-6.278,-6.278,-6.2181,-6.1594,-6.1594,-6.086,-6.0162,-6.0015,-5.9979,-6.0015,-6.0162,-6.0199,-6.0236,-6.0382,-6.0272,-5.9942,-5.9294,-5.8621,-5.8474,-5.9111,-5.9074,-5.9294,-6.0126,-6.0052,-5.9979,-5.9979,-5.9355,-5.8964,-5.8964,-5.8364,-5.8327,-5.8964,-5.9111,-5.9515,-6.0199,-5.9515,-5.9184,-5.9184,-5.8364,-5.7997,-6.2347,-6.3497,-6.3869,-6.3125,-6.008,-5.6427,-5.301,-4.912,-4.5331,-4.2286,-4.1102,-4.0493,-4.018,-4.0967,-4.2455,-4.4688,-4.6278,-4.8781,-5.3281,-5.4228,-5.531,-5.7577,-5.7881,-5.8457,-5.9945,-5.9776,-6.0351,0.0,0.0,-6.1298,-6.1298,-6.167,-6.2009,-6.2381,-6.2381,-6.2381,-6.2381,-6.2381,-6.2381,-6.2381,-6.2042,-6.1467,-6.0723,-6.0723,-6.0317,-5.961,-6.0094,0.0,-5.9001,-5.9139,-5.8941,-5.8529,-5.8529,-5.9311,-6.0453,-6.0879,-6.1548,-6.2271,-6.2679,-6.278,-6.278,-6.278,-6.278,-6.278,-6.278,-6.278,-6.278,-6.278,-6.278,-6.278,-6.278,-6.278,-6.278,-6.278,-6.2511,-6.2108,-6.1704,-6.13,-6.0896,-6.0493,-6.0419,-6.0529,-6.0933,-6.1006,-6.119,-6.1594,-6.0933,-6.0419,-6.0456,-5.9391,-5.8951,-5.9758,-5.9808,-6.0162,-6.097,-6.0639,-6.0419,-6.0419,-6.0052,-5.9625,-5.9221,-5.8817,-5.8804,-5.9184,-5.9588,-6.0236,-6.1006,-6.0236,-5.9808,-5.9795,-5.8584,-5.7997,-6.2685,-6.3396,-6.3294,-6.2381,-5.8795,-5.4499,-5.071,-4.6989,-4.3565,-4.0688,-4.0113,-4.0113,-4.0113,-4.0561,-4.1508,-4.3105,-4.4079,-4.6172,-5.0608,-5.1995,-5.3619,-5.6461,-5.7577,0.0,-5.9742,-6.0013,0.0,0.0,0.0,0.0,-6.2381,-6.2381,-6.2381,-6.2381,-6.2381,-6.2381,-6.2381,-6.2381,-6.2313,-6.2144,-6.2144,-6.1772,-6.1028,-6.1028,-6.0689,-6.0118,-6.1079,0.0,0.0,-6.0255,-6.014,-5.9377,-5.9377,-6.03,-6.1604,-6.1604,-6.2103,-6.278,-6.278,-6.278,-6.278,-6.278,-6.278,-6.278,-6.278,-6.278,-6.278,-6.278,-6.278,-6.278,-6.278,-6.278,-6.278,-6.278,-6.278,-6.2658,-6.1998,-6.1851,-6.1667,-6.1043,-6.0933,-6.1117,-6.1741,-6.1851,-6.2071,-6.267,-6.1594,-6.0896,-6.152,-6.0493,-5.9979,-6.0603,-6.0676,-6.097,-6.1777,-6.1263,-6.0933,-6.0933,-6.075,-6.0309,-5.9478,-5.9294,-5.9258,-5.9441,-6.0089,-6.0896,-6.1851,-6.0896,-6.0419,-6.0382,-5.8731,-5.7997,-6.2042,-6.299,-6.3159,-6.1738,-5.8017,-5.3721,-4.9965,-4.621,-4.2861,-4.0587,-4.0113,-4.0113,-4.0113,-4.018,-4.0899,-4.3037,-4.4079,-4.6172,-5.0608,-5.2469,-5.4228,-5.6528,0.0,0.0,-5.9099,-5.9708,0.0,0.0,0.0,0.0,-6.2347,-6.2381,-6.2381,-6.2381,-6.2381,-6.2381,-6.2381,-6.2381,-6.2042,-6.14,-6.14,-6.0994,-6.0216,-6.0216,-6.0182,-6.0118,-6.1079,0.0,0.0,-6.1119,-6.1011,-6.0273,-6.0273,-6.082,-6.1604,-6.1604,-6.2103,-6.278,-6.278,-6.278,-6.278,-6.278,-6.278,-6.278,-6.278,-6.278,-6.278,-6.278,-6.278,-6.278,-6.278,-6.278,-6.278,-6.278,-6.278,-6.278,-6.2732,-6.2695,-6.267,-6.256,-6.256,-6.2597,-6.2695,-6.2695,-6.2732,-6.278,-6.2034,-6.152,-6.1594,-6.1484,-6.141,-6.1484,-6.1484,-6.1814,-6.2622,-6.2622,-6.256,-6.256,-6.1887,-6.1117,-6.0309,-5.9588,-5.9515,-6.0272,-6.0382,-6.1153,-6.2695,-6.1153,-6.0419,-6.0382,-5.8731,-5.7997,-6.0486,-6.1907,-6.2381,-6.0419,-5.6224,-5.1826,-4.8984,-4.5094,-4.1711,-4.0383,-4.0113,-4.0113,-4.0113,-4.0113,-4.0383,-4.1271,-4.1704,-4.2963,-4.6075,-4.7834,-5.0135,-5.3687,-5.5818,0.0,0.0,0.0,0.0,0.0,0.0,0.0,-6.1028,-6.1873,-6.2178,-6.1738,-6.1738,-6.1738,-6.1738,-6.1264,-6.1095,-6.1298,-6.0825,-6.0892,-6.1472,-6.0608,-6.0727,-6.1624,-6.2587,0.0,0.0,-6.2674,-6.2576,-6.1794,-6.1292,-6.1604,-6.2324,-6.2324,-6.2515,-6.278,-6.278,-6.278,-6.278,-6.278,-6.278,-6.278,-6.278,-6.278,-6.278,-6.278,-6.278,-6.278,-6.278,-6.278,-6.278,-6.278,-6.278,-6.278,-6.278,-6.278,-6.278,-6.278,-6.278,-6.278,-6.278,-6.278,-6.278,-6.278,-6.2108,-6.1777,-6.2254,-6.1887,-6.1777,-6.2291,-6.2328,-6.2438,-6.2743,-6.278,-6.278,-6.278,-6.2511,-6.1741,-6.0456,-6.0566,-6.0566,-6.0419,-6.0896,-6.1447,-6.2071,-6.097,-6.0162,-5.9625,-5.851,-5.7997,-5.7211,-5.9165,-6.0179,-5.818,-5.4262,-5.0236,-4.78,-4.4113,-4.1001,-4.0248,-4.0113,-4.0113,-4.0113,-4.0113,-4.0113,-4.0113,-4.0282,-4.1204,-4.3436,-4.506,-4.7428,-5.1183,0.0,-5.5852,0.0,0.0,0.0,0.0,0.0,0.0,0.0,-6.0892,-6.1467,-6.096,-6.096,-6.096,-6.096,-6.0385,-6.0283,-6.0622,-6.0283,-6.0554,-6.1371,-6.0629,-6.0843,-6.1953,0.0,0.0,0.0,-6.3834,-6.3747,-6.2767,-6.2187,-6.2298,-6.278,-6.278,-6.278,-6.278,-6.278,-6.278,-6.278,-6.278,-6.278,-6.278,-6.278,-6.278,-6.278,-6.278,-6.278,-6.278,-6.278,-6.278,-6.278,-6.278,-6.278,-6.278,-6.278,-6.278,-6.278,-6.278,-6.278,-6.278,-6.278,-6.278,-6.278,-6.278,-6.2108,-6.1814,-6.2365,-6.1961,-6.1814,-6.2401,-6.2658,-6.278,-6.278,-6.278,-6.278,-6.278,-6.278,-6.2181,-6.0823,-6.13,-6.1337,-6.0786,-6.13,-6.1594,-6.1594,-6.0786,-6.0015,-5.9184,-5.8364,-5.7997,-5.1897,-5.4357,-5.6193,-5.4965,-5.2367,-4.9323,-4.638,-4.3403,-4.1001,-4.0248,-4.0113,-4.0113,-4.0113,-4.0113,-4.0113,-4.0113,-4.0696,-4.1982,-4.4276,-4.5867,-4.7597,0.0,0.0,-5.4126,0.0,0.0,0.0,0.0,0.0,0.0,0.0,-5.9302,-6.0114,-6.0114,-6.0114,-6.0114,-6.0114,-6.0114,-5.9742,-5.9032,-5.9776,-5.9742,-5.9032,-5.9942,-6.0324,0.0,0.0,0.0,0.0,-6.428,-6.4284,-6.278,-6.278,-6.278,-6.278,-6.278,-6.278,-6.278,-6.278,-6.278,-6.278,-6.278,-6.278,-6.278,-6.278,-6.278,-6.278,-6.278,-6.278,-6.278,-6.278,-6.278,-6.278,-6.278,-6.278,-6.278,-6.278,-6.278,-6.278,-6.278,-6.278,-6.278,-6.278,-6.278,-6.278,-6.278,-6.2108,-6.1594,-6.1594,-6.1594,-6.1594,-6.1594,-6.2328,-6.278,-6.278,-6.278,-6.278,-6.278,-6.278,-6.2438,-6.163,-6.1594,-6.1594,-6.1594,-6.1594,-6.1594,-6.1594,-6.0786,-6.0015,-5.9184,-5.8364,-5.7997,-4.8034,-4.9888,-5.1121,-5.0247,-4.8173,-4.594,-4.4485,-4.2219,-4.0383,-4.0146,-4.0113,-4.0113,-4.0113,-4.0113,-4.0282,-4.0764,-4.1035,-4.1644,0.0,0.0,0.0,-4.9763,-5.4329,-5.7442,0.0,0.0,0.0,0.0,0.0,0.0,0.0,-5.8321,-5.8829,-5.9336,-5.937,-5.937,-5.937,-5.8863,-5.8727,-5.8998,-5.9279,-5.9872,-6.0664,-6.1027,0.0,0.0,0.0,0.0,0.0,-6.416,-6.4163,-6.3613,-6.3025,-6.278,-6.278,-6.278,-6.278,-6.278,-6.278,-6.278,-6.278,-6.278,-6.278,-6.278,-6.278,-6.278,-6.278,-6.278,-6.278,-6.278,-6.278,-6.278,-6.278,-6.278,-6.278,-6.278,-6.278,-6.278,-6.278,-6.278,-6.278,-6.278,-6.278,-6.278,-6.278,-6.278,-6.2108,-6.1777,-6.2365,-6.1924,-6.1814,-6.2365,-6.2658,-6.278,-6.278,-6.278,-6.278,-6.278,-6.278,-6.2438,-6.163,-6.2144,-6.2144,-6.1594,-6.2144,-6.2144,-6.1594,-6.1337,-6.0529,-5.9184,-5.8364,-5.7997,-4.404,-4.5832,-4.7144,-4.709,-4.5602,-4.3944,-4.3166,-4.1474,-4.0113,-4.0113,-4.0113,-4.0113,-4.0113,-4.0113,-4.0248,-4.0696,-4.0764,-4.1238,0.0,0.0,0.0,-5.0507,0.0,0.0,0.0,0.0,0.0,0.0,0.0,0.0,0.0,-5.7881,-5.7983,-5.8186,-5.8457,-5.8592,-5.8592,-5.8118,-5.8267,-5.9069,-5.9116,-5.9799,-6.1039,-6.1396,0.0,0.0,0.0,0.0,0.0,-6.3943,-6.3906,-6.3576,-6.3025,-6.278,-6.278,-6.278,-6.278,-6.278,-6.278,-6.278,-6.278,-6.278,-6.278,-6.278,-6.278,-6.278,-6.278,-6.278,-6.278,-6.278,-6.278,-6.278,-6.278,-6.278,-6.278,-6.278,-6.278,-6.278,-6.278,-6.278,-6.278,-6.278,-6.278,-6.278,-6.278,-6.278,-6.1851,-6.1447,-6.2254,-6.163,-6.1447,-6.2254,-6.2622,-6.278,-6.278,-6.278,-6.278,-6.278,-6.278,-6.2585,-6.2071,-6.2548,-6.2585,-6.2071,-6.2548,-6.2401,-6.1594,-6.1006,-6.0346,-5.9648,-5.8841,-5.8621,0.0,-4.2206,-4.3912,-4.5027,-4.4248,-4.2997,-4.2286,-4.1094,0.0,-4.0113,-4.0113,-4.0113,-4.018,-4.0146,-4.0146,-4.0248,-4.0248,-4.1001,0.0,-4.5026,0.0,0.0,0.0,0.0,0.0,0.0,0.0,0.0,0.0,0.0,0.0,-5.7746,-5.7408,-5.6731,-5.7374,-5.7712,-5.7712,-5.7785,-5.8182,-5.8972,-5.914,-5.9564,-6.0347,-6.1207,0.0,0.0,0.0,0.0,0.0,-6.3649,-6.3539,-6.278,-6.278,-6.278,-6.278,-6.278,-6.278,-6.278,-6.278,-6.278,-6.278,-6.278,-6.278,-6.278,-6.278,-6.278,-6.278,-6.278,-6.278,-6.278,-6.278,-6.278,-6.278,-6.278,-6.278,-6.278,-6.278,-6.278,-6.278,-6.278,-6.278,-6.278,-6.278,-6.278,-6.278,-6.278,-6.1484,-6.0786,-6.1594,-6.097,-6.0786,-6.1594,-6.2365,-6.278,-6.278,-6.2743,-6.2768,-6.278,-6.2743,-6.2743,-6.278,-6.278,-6.278,-6.278,-6.278,-6.2438,-6.1667,-6.0089,-5.9698,-6.0456,-5.9588,-5.9648,-3.8181,0.0,-3.9618,-4.1064,-4.1162,-4.0857,0.0,-4.035,-4.0113,-4.0113,-4.0113,-4.0282,-4.0832,-4.0485,-4.0485,-4.1576,-4.1805,-4.2354,-4.4079,0.0,0.0,0.0,0.0,0.0,0.0,0.0,0.0,0.0,0.0,0.0,0.0,-5.6528,-5.6156,-5.5987,-5.6156,-5.6224,-5.6224,-5.6782,-5.715,-5.7346,-5.8591,-5.9294,-5.9526,-6.0929,0.0,0.0,0.0,0.0,-6.1961,-6.2768,-6.2989,-6.278,-6.278,-6.278,-6.278,-6.278,-6.278,-6.278,-6.278,-6.278,-6.278,-6.278,-6.278,-6.278,-6.278,-6.278,-6.278,-6.278,-6.278,-6.278,-6.278,-6.278,-6.278,-6.278,-6.278,-6.278,-6.278,-6.278,-6.278,-6.278,-6.278,-6.278,-6.278,-6.278,-6.278,-6.278,-6.1961,-6.1594,-6.2401,-6.1814,-6.163,-6.2438,-6.2695,-6.278,-6.278,-6.2254,-6.2144,-6.2768,-6.2218,-6.2144,-6.2743,-6.278,-6.278,-6.278,-6.278,-6.2732,-6.2511,-6.0896,-6.0529,-6.1263,-5.9869,-5.9648,-3.7921,-3.793,-3.8108,-3.9262,-3.985,-4.0113,-4.0113,-4.0113,-4.0113,-4.0113,-4.0113,-4.0214,-4.0595,-4.0383,-4.0485,-4.161,-4.2083,0.0,0.0,0.0,0.0,0.0,0.0,0.0,0.0,0.0,0.0,0.0,0.0,0.0,0.0,-5.5919,-5.5547,-5.5209,-5.5209,-5.5378,-5.5681,-5.6435,-5.7019,-5.7429,-5.8609,-5.9417,-5.9765,-6.0652,-6.0823,0.0,0.0,0.0,-6.108,-6.152,-6.1704,-6.1741,-6.2108,-6.2254,-6.2254,-6.2254,-6.2475,-6.267,-6.1961,-6.1704,-6.1814,-6.256,-6.2548,-6.2328,-6.2695,-6.278,-6.278,-6.278,-6.278,-6.278,-6.278,-6.278,-6.278,-6.278,-6.278,-6.278,-6.278,-6.278,-6.278,-6.278,-6.278,-6.278,-6.278,-6.278,-6.278,-6.278,-6.2108,-6.1887,-6.267,-6.2108,-6.1924,-6.2732,-6.278,-6.278,-6.278,-6.2071,-6.1924,-6.2743,-6.2401,-6.2365,-6.278,-6.278,-6.278,-6.278,-6.278,-6.2622,-6.2254,-6.1374,-6.1153,-6.1557,-6.0713,-6.075,-3.8249,-3.8091,-3.7947,-3.8723,-3.9473,-4.0113,-4.0113,-4.0113,-4.0113,-4.0113,-3.9978,-3.9986,-4.0223,-4.0248,0.0,0.0,0.0,0.0,0.0,0.0,0.0,0.0,0.0,0.0,0.0,0.0,0.0,0.0,0.0,0.0,0.0,-5.5446,-5.5074,-5.4431,-5.4534,-5.4907,-5.5518,-5.6255,-5.7044,-5.7917,-5.8646,-5.9376,-6.0052,-6.0162,-6.0162,0.0,0.0,0.0,-6.0236,-6.0346,-6.0419,-6.0456,-6.1153,-6.141,-6.141,-6.141,-6.1851,-6.2254,-6.086,-6.0419,-6.0639,-6.2144,-6.2144,-6.1741,-6.2585,-6.278,-6.278,-6.278,-6.278,-6.278,-6.278,-6.278,-6.278,-6.278,-6.278,-6.278,-6.278,-6.278,-6.278,-6.278,-6.278,-6.278,-6.278,-6.278,-6.278,-6.278,-6.2218,-6.2034,-6.2732,-6.2218,-6.2034,-6.2732,-6.278,-6.278,-6.278,-6.2181,-6.2071,-6.2768,-6.2695,-6.267,-6.278,-6.278,-6.278,-6.278,-6.278,-6.2475,-6.1777,-6.1667,-6.1667,-6.1777,-6.1667,-6.2034,-3.7541,-3.7634,-3.7837,-3.8683,-3.9473,-4.0113,-4.0113,-4.0113,-4.0113,-4.0113,-3.9558,-3.9488,-4.0796,-4.103,-4.1472,0.0,0.0,0.0,0.0,0.0,0.0,0.0,0.0,0.0,0.0,0.0,0.0,0.0,0.0,0.0,0.0,-5.4194,-5.3788,-5.3687,-5.4278,-5.4661,-5.4765,-5.5494,-5.6276,-5.7117,-5.7838,-5.827,-5.84,-5.9098,-5.9024,0.0,0.0,-6.0015,-5.9441,-6.0126,-6.0419,-6.0419,-6.0529,-6.0566,-6.0566,-6.0566,-6.0676,-6.075,-6.0493,-6.0419,-6.0566,-6.1484,-6.1704,-6.1741,-6.2585,-6.278,-6.278,-6.278,-6.278,-6.278,-6.278,-6.278,-6.278,-6.278,-6.278,-6.278,-6.278,-6.278,-6.278,-6.278,-6.278,-6.278,-6.278,-6.278,-6.278,-6.278,-6.267,-6.2658,-6.278,-6.267,-6.2658,-6.2805,-6.278,-6.278,-6.278,-6.2695,-6.267,-6.278,-6.2144,-6.2108,-6.2743,-6.278,-6.278,-6.278,-6.278,-6.2768,-6.2622,-6.1924,-6.1961,-6.2622,-6.1924,-6.2034,-3.7015,-3.6982,-3.7279,-3.8084,-3.915,-4.0,-4.0079,-4.0417,-4.0458,-3.9625,-4.0134,-4.0729,-4.0608,0.0,-4.3882,-4.6591,0.0,0.0,0.0,0.0,0.0,0.0,0.0,0.0,0.0,0.0,0.0,0.0,0.0,0.0,0.0,0.0,-5.3684,-5.4074,-5.4419,-5.4999,-5.5844,-5.6177,-5.6536,-5.6912,-5.7655,-5.7997,-5.7997,-5.84,-5.8364,-5.8033,0.0,-5.8877,-5.8584,-5.8951,-5.9098,-5.9134,-5.9575,-5.9758,-5.9795,-6.0236,-5.9869,-5.9245,-6.0089,-5.9832,-5.9318,-6.0566,-6.0676,-6.0456,-6.1263,-6.1814,-6.2144,-6.2144,-6.2475,-6.278,-6.278,-6.278,-6.278,-6.278,-6.278,-6.278,-6.278,-6.278,-6.278,-6.278,-6.278,-6.278,-6.278,-6.278,-6.278,-6.278,-6.278,-6.278,-6.278,-6.278,-6.278,-6.278,-6.278,-6.278,-6.278,-6.278,-6.278,-6.278,-6.2475,-6.2401,-6.278,-6.278,-6.278,-6.278,-6.278,-6.2585,-6.2144,-6.2218,-6.2218,-6.2144,-6.2695,-6.3135,-3.6626,-3.6548,-3.6724,-3.7356,-3.8577,-3.9869,-4.0676,-4.1305,-4.1519,-4.0878,-4.1866,-4.2467,0.0,-4.3306,0.0,-4.956,0.0,0.0,0.0,0.0,0.0,0.0,0.0,0.0,0.0,0.0,0.0,0.0,0.0,0.0,0.0,0.0,-5.4044,-5.4606,-5.4939,-5.5702,-5.6887,-5.7065,-5.7141,-5.7141,-5.7726,-5.7997,-5.7997,-5.7997,-5.7997,-5.7997,-5.7997,-5.7997,-5.7997,-5.7997,-5.7997,-5.807,-5.8694,-5.8914,-5.8964,-5.9612,-5.9061,-5.818,-5.9428,-5.9024,-5.8217,-5.9648,-5.9698,-5.9331,-6.0162,-6.097,-6.1594,-6.1594,-6.2181,-6.278,-6.278,-6.278,-6.278,-6.278,-6.278,-6.278,-6.278,-6.278,-6.278,-6.278,-6.278,-6.278,-6.278,-6.278,-6.278,-6.278,-6.278,-6.2879,-6.3099,-6.3099,-6.3172,-6.3392,-6.3246,-6.3025,-6.2817,-6.278,-6.278,-6.278,-6.278,-6.278,-6.278,-6.278,-6.278,-6.278,-6.278,-6.2511,-6.1887,-6.2511,-6.2585,-6.2218,-6.3503,-6.42,-3.6507,-3.6514,-3.6534,-3.6662,-3.7819,-3.9692,-4.253,-4.3172,-4.3815,-4.5814,-4.5243,-4.4338,-4.4282,-4.5573,-4.7394,-4.9695,0.0,0.0,0.0,0.0,0.0,0.0,0.0,0.0,0.0,0.0,0.0,0.0,0.0,0.0,0.0,0.0,0.0,-5.4606,-5.5984,-5.6809,-5.6912,-5.7607,-5.7927,-5.7927,-5.7973,-5.7997,-5.7997,-5.7997,-5.7997,-5.7997,-5.7997,-5.7997,-5.7997,-5.7997,-5.7997,-5.7997,-5.807,-5.8107,-5.8107,-5.8143,-5.8107,-5.8033,-5.8143,-5.8107,-5.8143,-5.9024,-5.9258,-5.9331,-6.0162,-6.097,-6.1594,-6.1594,-6.2181,-6.278,-6.278,-6.278,-6.278,-6.278,-6.278,-6.278,-6.278,-6.278,-6.278,-6.278,-6.278,-6.278,-6.278,-6.278,-6.278,-6.278,-6.278,-6.3099,-6.3906,-6.4016,-6.4273,-6.5044,-6.4457,-6.3686,-6.2879,-6.278,-6.278,-6.278,-6.278,-6.278,-6.278,-6.278,-6.278,-6.278,-6.278,-6.2743,-6.2732,-6.2743,-6.3209,-6.3906,-6.4016,-6.4494,-3.5998,-3.6178,-3.6529,-3.6569,-3.7368,-3.8905,-4.2009,-4.306,-4.376,-4.509,-4.6377,-4.7295,-4.7331,0.0,-4.8883,0.0,0.0,0.0,0.0,0.0,0.0,0.0,0.0,0.0,0.0,0.0,0.0,0.0,0.0,0.0,0.0,0.0,0.0,-5.4499,-5.5091,-5.586,-5.6817,-5.7111,-5.7262,-5.7262,-5.7776,-5.7997,-5.7997,-5.7997,-5.7997,-5.7997,-5.7997,-5.7997,-5.7997,-5.7997,-5.7997,-5.7997,-5.7997,-5.7997,-5.7997,-5.7997,-5.7997,-5.7997,-5.7997,-5.7997,-5.8033,-5.8364,-5.8437,-5.851,-5.8804,-5.9465,-6.0236,-6.0713,-6.1447,-6.2181,-6.267,-6.278,-6.278,-6.278,-6.278,-6.278,-6.278,-6.278,-6.278,-6.278,-6.278,-6.278,-6.278,-6.278,-6.278,-6.278,-6.278,-6.3135,-6.398,-6.409,-6.442,-6.5228,-6.5044,-6.453,-6.3686,-6.3613,-6.3392,-6.2817,-6.278,-6.278,-6.278,-6.278,-6.278,-6.278,-6.278,-6.278,-6.278,-6.3356,-6.3759,-6.4127,-6.5118,-6.5742,-3.5699,-3.5818,-3.6222,-3.6256,-3.6903,-3.8428,-4.1753,-4.3095,-4.432,-4.6832,-4.8205,-4.9018,-4.9018,0.0,0.0,0.0,0.0,0.0,0.0,0.0,0.0,0.0,0.0,0.0,0.0,0.0,0.0,0.0,0.0,0.0,0.0,0.0,0.0,0.0,-5.4738,-5.5361,-5.6418,-5.6418,-5.6418,-5.6418,-5.6969,-5.7373,-5.7629,-5.7886,-5.7997,-5.7997,-5.7997,-5.7997,-5.7997,-5.7997,-5.7997,-5.7997,-5.7997,-5.7997,-5.7997,-5.7997,-5.7997,-5.7997,-5.7997,-5.7997,-5.7997,-5.7997,-5.7997,-5.7997,-5.7997,-5.8731,-5.9685,-6.0272,-6.1153,-6.2108,-6.2658,-6.278,-6.278,-6.278,-6.278,-6.278,-6.278,-6.278,-6.278,-6.278,-6.278,-6.278,-6.278,-6.278,-6.278,-6.278,-6.3025,-6.3539,-6.4383,-6.4677,-6.5081,-6.5632,-6.5705,-6.5264,-6.42,-6.409,-6.3723,-6.2853,-6.278,-6.278,-6.278,-6.278,-6.278,-6.278,-6.278,-6.2952,-6.3209,-6.3796,-6.4347,-6.4861,-6.5999,-6.6623,-3.5669,-3.5519,-3.5519,-3.5519,-3.6477,-3.8405,-4.205,-4.3513,-4.589,-5.2203,-5.1116,-4.9018,-4.9018,-4.9018,0.0,0.0,0.0,0.0,0.0,0.0,0.0,0.0,0.0,0.0,0.0,0.0,0.0,0.0,0.0,0.0,0.0,0.0,0.0,0.0,-5.5186,-5.5596,-5.5574,-5.5574,-5.5574,-5.5574,-5.5596,-5.6014,-5.6822,-5.7629,-5.7997,-5.7997,-5.7997,-5.7997,-5.7997,-5.7997,-5.7997,-5.7997,-5.7997,-5.7997,-5.7997,-5.7997,-5.7997,-5.7997,-5.7997,-5.7997,-5.7997,-5.7997,-5.7997,-5.7997,-5.7997,-5.9098,-6.0382,-6.0419,-6.1557,-6.278,-6.278,-6.278,-6.278,-6.278,-6.278,-6.278,-6.278,-6.278,-6.278,-6.278,-6.278,-6.278,-6.278,-6.278,-6.278,-6.278,-6.3539,-6.4383,-6.5228,-6.5999,-6.6512,-6.6512,-6.6512,-6.5852,-6.4237,-6.409,-6.3723,-6.2853,-6.278,-6.278,-6.278,-6.278,-6.278,-6.278,-6.278,-6.3246,-6.409,-6.4127,-6.4934,-6.6512,-6.6512,-6.6953,-3.5549,-3.5848,-3.6178,-3.6178,-3.7165,-3.9068,-4.2762,-4.4278,-4.6413,-5.1564,-5.1522,-5.0574,-5.0574,-5.0574,0.0,0.0,0.0,0.0,0.0,0.0,0.0,0.0,0.0,0.0,0.0,0.0,0.0,0.0,0.0,0.0,0.0,0.0,0.0,0.0,-5.3778,-5.4179,-5.473,-5.4766,-5.4766,-5.4766,-5.5317,-5.5721,-5.5978,-5.6785,-5.7152,-5.7189,-5.774,-5.7997,-5.7997,-5.7997,-5.7997,-5.7997,-5.7997,-5.7997,-5.7997,-5.7997,-5.7997,-5.7997,-5.7997,-5.7997,-5.7997,-5.7997,-5.7997,-5.7997,-5.7997,-5.8327,-5.8951,-6.0089,-6.075,-6.1374,-6.2511,-6.278,-6.278,-6.278,-6.278,-6.278,-6.278,-6.278,-6.278,-6.278,-6.278,-6.278,-6.278,-6.278,-6.3025,-6.3613,-6.3906,-6.4604,-6.5962,-6.6843,-6.732,-6.732,-6.732,-6.6696,-6.5081,-6.4934,-6.4347,-6.289,-6.3392,-6.3429,-6.2817,-6.278,-6.278,-6.278,-6.3392,-6.3833,-6.409,-6.5228,-6.6035,-6.6512,-6.7063,-6.7467,-3.5579,-3.5998,-3.6537,-3.6776,-3.8033,-4.0293,-4.4351,-4.6625,-4.8742,-5.156,-5.163,-5.1286,-5.1589,-5.142,0.0,0.0,0.0,0.0,0.0,0.0,0.0,0.0,0.0,0.0,0.0,0.0,0.0,0.0,0.0,0.0,0.0,0.0,0.0,0.0,-5.3203,-5.3424,-5.3922,-5.3922,-5.3922,-5.3922,-5.4399,-5.4656,-5.4693,-5.5794,-5.6308,-5.6381,-5.7152,-5.7519,-5.7556,-5.7886,-5.7997,-5.7997,-5.7997,-5.7997,-5.7997,-5.7997,-5.7997,-5.7997,-5.7997,-5.7997,-5.7997,-5.7997,-5.7997,-5.7997,-5.7997,-5.8437,-5.9171,-6.0126,-6.086,-6.1594,-6.2523,-6.278,-6.278,-6.278,-6.278,-6.278,-6.278,-6.278,-6.278,-6.278,-6.278,-6.278,-6.278,-6.278,-6.2989,-6.3503,-6.4163,-6.5154,-6.6769,-6.7393,-6.7687,-6.7687,-6.7687,-6.7173,-6.5888,-6.5485,-6.4897,-6.387,-6.398,-6.4016,-6.3796,-6.3771,-6.3771,-6.3771,-6.431,-6.4714,-6.5044,-6.6035,-6.6659,-6.699,-6.7467,-6.7687,-3.5669,-3.5998,-3.6656,-3.7345,-3.908,-4.1826,-4.6294,-4.9531,-5.1615,-5.1795,0.0,-5.142,-5.2097,-5.1725,0.0,0.0,0.0,0.0,0.0,0.0,0.0,0.0,0.0,0.0,0.0,0.0,0.0,0.0,0.0,0.0,0.0,0.0,0.0,0.0,-5.2983,-5.2983,-5.2983,-5.2983,-5.2983,0.0,-5.2983,-5.3041,-5.3151,-5.4766,-5.5537,-5.5647,-5.6381,-5.6748,-5.6859,-5.7519,-5.785,-5.7997,-5.7923,-5.7923,-5.7997,-5.7997,-5.7997,-5.7997,-5.7997,-5.7997,-5.7997,-5.7997,-5.7997,-5.7997,-5.7997,-5.9024,-6.0199,-6.0346,-6.1447,-6.2622,-6.2743,-6.278,-6.278,-6.278,-6.278,-6.278,-6.278,-6.278,-6.278,-6.278,-6.278,-6.278,-6.278,-6.278,-6.2853,-6.3,-6.4383,-6.5962,-6.7504,-6.7687,-6.7687,-6.7687,-6.7687,-6.732,-6.6476,-6.5742,-6.5264,-6.5191,-6.4567,-6.4567,-6.5375,-6.5338,-6.5301,-6.5301,-6.5375,-6.5778,-6.6512,-6.6549,-6.699,-6.7687,-6.7687,-6.7687,-3.5549,-3.5998,-3.6746,-3.7883,-4.0457,-4.3486,-4.6575,-4.8212,-4.9502,-5.1028,-5.1257,-5.1219,-5.142,0.0,0.0,0.0,0.0,0.0,0.0,0.0,0.0,0.0,0.0,0.0,0.0,0.0,0.0,0.0,0.0,0.0,0.0,0.0,0.0,-5.1353,-5.1316,-5.1316,-5.1316,-5.1316,-5.1316,0.0,-5.1316,-5.1646,-5.2307,-5.3922,-5.4987,-5.5633,-5.5757,-5.6235,-5.6748,-5.6308,-5.6859,-5.7923,-5.7299,-5.7446,-5.7997,-5.7997,-5.7997,-5.7997,-5.7997,-5.7997,-5.7997,-5.7997,-5.7997,-5.7997,-5.7997,-5.8253,-5.8767,-6.0052,-6.0639,-6.1227,-6.245,-6.278,-6.278,-6.278,-6.278,-6.278,-6.278,-6.278,-6.278,-6.278,-6.278,-6.278,-6.278,-6.278,-6.3246,-6.4541,-6.5632,-6.6586,-6.7577,-6.7687,-6.7687,-6.7687,-6.7687,-6.71,-6.5705,-6.5411,-6.5044,-6.4383,-6.4787,-6.5411,-6.6219,-6.5632,-6.5301,-6.5301,-6.5925,-6.6329,-6.6512,-6.7136,-6.7504,-6.7687,-6.7687,-6.7687,-3.5968,-3.6237,-3.6956,-3.8871,0.0,-4.3823,-4.5739,-4.7002,-4.8106,-4.9294,-5.0419,-5.1185,0.0,0.0,0.0,0.0,0.0,0.0,0.0,0.0,0.0,0.0,0.0,0.0,0.0,0.0,0.0,0.0,0.0,0.0,0.0,-5.1426,-5.1242,-5.0802,-5.0802,-5.0802,-5.0802,-5.0802,-5.0802,-5.0802,-5.0802,-5.1206,-5.205,-5.3261,-5.4069,-5.4473,-5.484,-5.5244,-5.5647,-5.5611,-5.6088,-5.6859,-5.6822,-5.7079,-5.7483,-5.785,-5.7997,-5.7997,-5.7997,-5.7997,-5.7997,-5.7997,-5.7997,-5.7997,-5.7997,-5.8253,-5.8841,-6.0052,-6.0419,-6.0786,-6.2401,-6.2511,-6.2328,-6.2732,-6.278,-6.278,-6.278,-6.278,-6.278,-6.278,-6.278,-6.278,-6.278,-6.3172,-6.3723,-6.4604,-6.5742,-6.6659,-6.7063,-6.7136,-6.7136,-6.7136,-6.7136,-6.6769,-6.5962,-6.5521,-6.5448,-6.5778,-6.5485,-6.5852,-6.7026,-6.6659,-6.6439,-6.6439,-6.6843,-6.7063,-6.7063,-6.7504,-6.7687,-6.7687,-6.7687,-6.7907,-3.6543,-3.6567,-3.7225,-3.9619,-4.1534,0.0,-4.4483,-4.5765,-4.684,-4.744,-4.9184,0.0,0.0,0.0,0.0,0.0,0.0,0.0,0.0,0.0,0.0,0.0,0.0,0.0,0.0,0.0,0.0,0.0,0.0,0.0,-5.0655,-5.0582,-5.0508,-5.0362,-5.0362,-5.0362,-5.0362,-5.0362,-5.0362,-5.0362,-5.0508,-5.0949,-5.161,-5.2417,-5.2968,-5.3261,-5.3922,-5.4289,-5.4436,-5.495,-5.5354,-5.5647,-5.6345,-5.6675,-5.6895,-5.7703,-5.7997,-5.7997,-5.7997,-5.7997,-5.7997,-5.7997,-5.7997,-5.7997,-5.7997,-5.8474,-5.9148,-5.9979,-6.0309,-6.0713,-6.201,-6.1998,-6.1741,-6.2254,-6.2511,-6.2658,-6.2743,-6.278,-6.278,-6.278,-6.278,-6.278,-6.278,-6.3392,-6.3906,-6.4053,-6.5228,-6.6145,-6.6256,-6.6292,-6.6366,-6.6476,-6.6512,-6.6439,-6.6292,-6.5705,-6.5888,-6.7173,-6.6035,-6.6035,-6.7614,-6.7687,-6.7687,-6.7687,-6.7834,-6.7834,-6.7687,-6.7834,-6.7907,-6.7907,-6.7907,-6.8348,-3.6679,0.0,-3.7644,0.0,-4.0187,-4.1388,0.0,0.0,-4.498,0.0,0.0,0.0,0.0,0.0,0.0,0.0,0.0,0.0,0.0,0.0,0.0,0.0,0.0,0.0,0.0,0.0,0.0,0.0,0.0,0.0,-4.9794,-4.9757,-4.9407,-4.8673,-4.8636,-4.8636,-4.8636,-4.8636,-4.8636,-4.8636,-4.9407,-4.9831,-4.9941,-5.0765,-5.1903,-5.3203,-5.3314,-5.3775,-5.4363,-5.3775,-5.4326,-5.5633,-5.5721,-5.6198,-5.6895,-5.7703,-5.7997,-5.7997,-5.7997,-5.7997,-5.7997,-5.7997,-5.7997,-5.7997,-5.7997,-5.807,-5.8327,-5.9111,-5.9869,-6.0456,-6.0676,-6.1153,-6.1447,-6.086,-6.1263,-6.1961,-6.2658,-6.278,-6.278,-6.278,-6.278,-6.278,-6.278,-6.2915,-6.3246,-6.398,-6.4273,-6.4677,-6.5375,-6.5485,-6.5742,-6.6439,-6.6512,-6.6219,-6.5521,-6.5375,-6.5411,-6.5632,-6.5411,-6.6035,-6.7614,-6.7687,-6.7687,-6.7687,-6.8385,-6.8385,-6.7687,-6.8385,-6.8752,-6.8752,-6.8752,-6.9155,-3.6381,-3.6118,-3.6656,0.0,-3.8512,-3.9224,-4.1148,0.0,-4.3783,0.0,0.0,0.0,0.0,0.0,0.0,0.0,0.0,0.0,0.0,0.0,0.0,0.0,0.0,0.0,0.0,0.0,0.0,0.0,0.0,-4.9554,-4.8269,-4.8196,-4.7829,-4.6985,-4.6948,-4.6948,-4.6948,-4.6948,-4.7168,-4.7626,-4.8489,-4.9133,-4.9647,-5.0435,-5.1206,-5.1903,-5.2344,-5.2747,-5.3041,-5.3151,-5.3628,-5.4326,-5.5244,-5.5794,-5.6271,-5.7519,-5.7997,-5.7997,-5.7997,-5.7997,-5.7997,-5.7997,-5.7997,-5.7997,-5.7997,-5.7997,-5.818,-5.8964,-5.9134,-5.9245,-6.0162,-6.0346,-6.0382,-6.0933,-6.1337,-6.1814,-6.2658,-6.278,-6.278,-6.278,-6.278,-6.278,-6.278,-6.3209,-6.3503,-6.3392,-6.4163,-6.4751,-6.464,-6.464,-6.4751,-6.5118,-6.5558,-6.5705,-6.5338,-6.5705,-6.6145,-6.6623,-6.6219,-6.6476,-6.7677,-6.7687,-6.7687,-6.7687,-6.8495,-6.8495,-6.7687,-6.8495,-6.8678,-6.8238,-6.8238,-6.8898,-3.5984,0.0,-3.5759,-3.6896,-3.7165,-3.7586,0.0,0.0,0.0,0.0,0.0,0.0,0.0,0.0,0.0,0.0,0.0,0.0,0.0,0.0,0.0,0.0,0.0,0.0,0.0,0.0,0.0,0.0,0.0,-4.8086,-4.6856,-4.6782,-4.6544,-4.592,-4.5883,-4.5883,-4.5883,-4.5883,-4.6214,-4.6782,-4.7425,-4.8122,-4.8967,-4.9591,-4.9994,-5.0215,-5.1463,-5.1977,-5.205,-5.2858,-5.3203,-5.3314,-5.473,-5.5427,-5.578,-5.7189,-5.7813,-5.7997,-5.7997,-5.7997,-5.7997,-5.7997,-5.7997,-5.7997,-5.7997,-5.7997,-5.8143,-5.8731,-5.8621,-5.8547,-5.9538,-5.9501,-5.9478,-6.0713,-6.1153,-6.1557,-6.2585,-6.278,-6.278,-6.278,-6.278,-6.278,-6.278,-6.3356,-6.3539,-6.2915,-6.387,-6.4457,-6.3833,-6.3759,-6.3833,-6.4053,-6.464,-6.5081,-6.5301,-6.5852,-6.6549,-6.732,-6.6843,-6.6843,-6.765,-6.7687,-6.7687,-6.7687,-6.8495,-6.8495,-6.7687,-6.8715,-6.8898,-6.8311,-6.8531,-6.9376,0.0,-3.5519,0.0,-3.6357,-3.6537,-3.7122,0.0,0.0,0.0,0.0,0.0,0.0,0.0,0.0,0.0,0.0,0.0,0.0,0.0,0.0,0.0,0.0,0.0,0.0,0.0,0.0,0.0,0.0,0.0,-4.6067,-4.5957,-4.5957,-4.5957,-4.5883,-4.5883,-4.5883,-4.5883,-4.5883,-4.592,-4.5957,-4.5993,-4.6471,-4.7223,-4.7259,-4.77,-4.8563,-5.0949,-5.1977,-5.205,-5.2858,-5.3203,-5.3277,-5.4142,-5.4913,-5.5684,-5.6565,-5.7336,-5.7997,-5.7997,-5.7997,-5.7997,-5.7997,-5.7997,-5.7997,-5.7997,-5.7997,-5.7997,-5.8033,-5.8584,-5.8964,-5.829,-5.8657,-5.9221,-5.9294,-5.9905,-6.0896,-6.2475,-6.278,-6.278,-6.278,-6.278,-6.278,-6.278,-6.2842,-6.2853,-6.278,-6.2853,-6.289,-6.2879,-6.2879,-6.3172,-6.4016,-6.4127,-6.4457,-6.5264,-6.5338,-6.5705,-6.6512,-6.6512,-6.6843,-6.765,-6.7687,-6.7687,-6.7687,-6.8495,-6.8495,-6.7687,-6.9265,-7.0,-7.0,-7.077,-7.1578,0.0,0.0,0.0,-3.6254,-3.6227,-3.6507,-3.8743,0.0,0.0,0.0,0.0,0.0,0.0,0.0,0.0,0.0,0.0,0.0,0.0,0.0,0.0,0.0,0.0,0.0,0.0,0.0,0.0,0.0,0.0,0.0,-4.5149,-4.5149,-4.4892,-4.4378,-4.4342,-4.4342,-4.4342,-4.4342,-4.4599,-4.5149,-4.5149,-4.5828,-4.7113,-4.7113,-4.7553,-4.8379,-4.9811,-5.0749,-5.1279,-5.2087,-5.2747,-5.3277,-5.4106,-5.4583,-5.4987,-5.6308,-5.6969,-5.7299,-5.7813,-5.7997,-5.7997,-5.7997,-5.7997,-5.7997,-5.7997,-5.7997,-5.7997,-5.7997,-5.8217,-5.8364,-5.807,-5.8621,-5.9441,-6.0493,-6.1374,-6.2108,-6.2695,-6.278,-6.278,-6.278,-6.278,-6.278,-6.278,-6.278,-6.278,-6.278,-6.278,-6.278,-6.278,-6.278,-6.289,-6.3246,-6.3759,-6.442,-6.5228,-6.5778,-6.6402,-6.721,-6.7247,-6.7393,-6.7687,-6.7687,-6.7687,-6.7687,-6.7981,-6.8238,-6.8458,-6.9559,-7.011,-7.011,-7.0403,-7.0954,-3.5943,-3.5546,0.0,0.0,0.0,-3.6782,-3.8504,0.0,0.0,0.0,0.0,0.0,0.0,0.0,0.0,0.0,0.0,0.0,0.0,0.0,0.0,0.0,0.0,0.0,0.0,0.0,0.0,0.0,0.0,0.0,-4.4342,-4.4305,-4.4048,-4.3515,-4.3515,-4.3515,-4.3515,-4.3515,-4.3754,-4.4305,-4.4305,-4.5002,-4.6305,-4.6562,-4.7149,-4.792,-4.8783,-4.9627,-5.0472,-5.1536,-5.2307,-5.2894,-5.3702,-5.4179,-5.4546,-5.5611,-5.6345,-5.6895,-5.7409,-5.7776,-5.7997,-5.7997,-5.7997,-5.7997,-5.7997,-5.7997,-5.7997,-5.7997,-5.7997,-5.7997,-5.7997,-5.8804,-5.9942,-6.1263,-6.2218,-6.278,-6.278,-6.278,-6.278,-6.278,-6.278,-6.278,-6.278,-6.278,-6.278,-6.278,-6.278,-6.278,-6.278,-6.278,-6.278,-6.278,-6.3319,-6.4127,-6.5228,-6.5778,-6.6549,-6.7614,-6.7687,-6.7687,-6.7687,-6.7687,-6.7687,-6.7687,-6.7687,-6.8091,-6.8898,-6.9449,-6.9853,-7.011,-7.0367,-7.0807,0.0,0.0,0.0,0.0,0.0,0.0,-3.8772,0.0,0.0,0.0,0.0,0.0,0.0,0.0,0.0,0.0,0.0,0.0,0.0,0.0,0.0,0.0,0.0,0.0,0.0,0.0,0.0,0.0,0.0,-4.3515,-4.3515,-4.3515,-4.3515,-4.3515,-4.3515,-4.3515,-4.3515,-4.3515,-4.3515,-4.3515,-4.3515,-4.3901,-4.4728,-4.5516,-4.6324,-4.7149,-4.792,-4.8746,-4.9684,-5.1242,-5.194,-5.2087,-5.2858,-5.3665,-5.4363,-5.4399,-5.539,-5.6748,-5.6785,-5.7299,-5.796,-5.7997,-5.7997,-5.7997,-5.7997,-5.7997,-5.7997,-5.7997,-5.7997,-5.7997,-5.8033,-5.9208,-6.0566,-6.1374,-6.2181,-6.2743,-6.2743,-6.278,-6.278,-6.278,-6.278,-6.278,-6.278,-6.278,-6.278,-6.278,-6.278,-6.278,-6.278,-6.278,-6.278,-6.278,-6.278,-6.3503,-6.5154,-6.5301,-6.5999,-6.7577,-6.7687,-6.7687,-6.7687,-6.7724,-6.7724,-6.7687,-6.7724,-6.8128,-6.8898,-6.8898,-6.9339,-7.0146,-7.0954,-7.1293,-3.6998,0.0,0.0,0.0,0.0,0.0,0.0,0.0,0.0,0.0,0.0,0.0,0.0,0.0,0.0,0.0,0.0,0.0,0.0,0.0,0.0,0.0,0.0,0.0,0.0,0.0,0.0,0.0,-4.3515,-4.3515,-4.3515,-4.3515,-4.3515,-4.3515,-4.3515,-4.3515,-4.3515,-4.3515,-4.3515,-4.3515,-4.3515,-4.3901,-4.4709,-4.4929,-4.5792,-4.7113,-4.7333,-4.7902,-4.8746,-4.9831,-5.0969,-5.2013,-5.2234,-5.2821,-5.3592,-5.4179,-5.4693,-5.5244,-5.6418,-5.6969,-5.7226,-5.7813,-5.7997,-5.7997,-5.7997,-5.7997,-5.7997,-5.7997,-5.7997,-5.8143,-5.8731,-5.9184,-5.9735,-6.0529,-6.1337,-6.1924,-6.1924,-6.2401,-6.278,-6.278,-6.278,-6.278,-6.278,-6.278,-6.278,-6.278,-6.278,-6.278,-6.278,-6.278,-6.278,-6.278,-6.278,-6.3503,-6.5154,-6.5301,-6.5999,-6.7577,-6.7687,-6.7687,-6.7687,-6.8238,-6.8274,-6.7714,-6.8825,-6.9265,-6.8898,-6.8898,-6.9633,-7.0991,-7.1798,-7.1872,-3.8427,-3.8412,-3.886,0.0,0.0,0.0,-3.9978,-3.9876,0.0,0.0,0.0,0.0,0.0,0.0,0.0,0.0,0.0,0.0,0.0,0.0,0.0,0.0,0.0,0.0,0.0,0.0,0.0,-4.3515,-4.3515,-4.3515,-4.3515,-4.3515,-4.3515,-4.3515,-4.3515,-4.3515,-4.3515,-4.3515,-4.3515,-4.3515,-4.3515,-4.3754,-4.4195,-4.4562,-4.5205,-4.6122,-4.6819,-4.7369,-4.7846,-4.871,-5.0031,-5.1536,-5.1867,-5.2491,-5.324,-5.3739,-5.4106,-5.4583,-5.5868,-5.6528,-5.6932,-5.774,-5.7997,-5.7997,-5.7997,-5.7997,-5.7997,-5.7997,-5.7997,-5.818,-5.8964,-5.9184,-5.9404,-6.0236,-6.1006,-6.1594,-6.1594,-6.2218,-6.278,-6.278,-6.278,-6.278,-6.278,-6.278,-6.278,-6.278,-6.2511,-6.2291,-6.2291,-6.2291,-6.2291,-6.2291,-6.2622,-6.3503,-6.5154,-6.5301,-6.5999,-6.7577,-6.7687,-6.7687,-6.7687,-6.8128,-6.8348,-6.8201,-6.9119,-6.9522,-6.9412,-6.9412,-7.0073,-7.1293,-7.1798,-7.1578,-4.024,-4.0271,-4.0325,-4.0332,0.0,0.0,-4.0214,-3.9673,-3.9073,0.0,0.0,0.0,0.0,0.0,0.0,0.0,0.0,0.0,0.0,0.0,0.0,0.0,0.0,0.0,0.0,-4.3389,-4.3355,-4.3299,-4.3299,-4.3318,-4.3391,-4.348,-4.3515,-4.3515,-4.3515,-4.3515,-4.3515,-4.3515,-4.3515,-4.3515,-4.3515,-4.3515,-4.3515,-4.4232,-4.4635,-4.4764,-4.6195,-4.6929,-4.7149,-4.7846,-4.915,-5.0765,-5.1536,-5.2344,-5.3078,-5.3167,-5.3665,-5.4363,-5.517,-5.5941,-5.6675,-5.7593,-5.7886,-5.7886,-5.796,-5.7997,-5.7997,-5.7997,-5.7997,-5.8143,-5.8854,-5.9074,-5.9245,-5.9979,-6.075,-6.1337,-6.1337,-6.1961,-6.2523,-6.2523,-6.2695,-6.278,-6.278,-6.278,-6.278,-6.278,-6.2108,-6.1594,-6.1594,-6.1594,-6.1594,-6.1594,-6.2401,-6.3576,-6.5191,-6.5375,-6.6072,-6.7577,-6.7687,-6.7724,-6.7834,-6.7907,-6.8311,-6.9009,-6.9119,-6.9559,-7.0367,-7.0293,-7.0587,-7.1293,-7.1366,-7.0991,-4.1314,-4.1394,0.0,0.0,0.0,0.0,-4.1001,-4.0392,-3.974,0.0,0.0,0.0,0.0,0.0,0.0,0.0,0.0,0.0,0.0,0.0,0.0,0.0,0.0,0.0,0.0,-4.2741,-4.2611,-4.1959,-4.1887,-4.2159,-4.281,-4.3268,-4.3515,-4.3515,-4.3515,-4.3515,-4.3515,-4.3515,-4.3515,-4.3515,-4.3515,-4.3515,-4.3515,-4.3644,-4.4085,-4.4728,-4.5021,-4.5902,-4.7113,-4.7259,-4.8306,-4.9904,-5.0729,-5.1536,-5.2307,-5.2968,-5.3298,-5.3555,-5.4363,-5.473,-5.5097,-5.6565,-5.7042,-5.7152,-5.7813,-5.7997,-5.7997,-5.7997,-5.7997,-5.8033,-5.818,-5.8217,-5.8253,-5.8437,-5.9098,-5.9661,-5.9661,-6.0309,-6.086,-6.086,-6.1924,-6.278,-6.278,-6.278,-6.278,-6.278,-6.2108,-6.1594,-6.1594,-6.1594,-6.1594,-6.1594,-6.2952,-6.4237,-6.5228,-6.5888,-6.6659,-6.7614,-6.7687,-6.7981,-6.8641,-6.9302,-6.9706,-6.9853,-7.0513,-7.1248,-7.2018,-7.1394,-7.1174,-7.1293,-7.1982,-7.1835,0.0,0.0,0.0,-4.2388,0.0,0.0,0.0,-4.0629,-3.991,0.0,0.0,0.0,0.0,0.0,0.0,0.0,0.0,0.0,0.0,0.0,0.0,0.0,0.0,0.0,0.0,-4.177,-4.1694,-4.1638,-4.1929,-4.2279,-4.2693,-4.3214,-4.3515,-4.3515,-4.3515,-4.3515,-4.3515,-4.3515,-4.3515,-4.3515,-4.3515,-4.3515,-4.3515,-4.3515,-4.3718,-4.4121,-4.4525,-4.5388,-4.6544,-4.6929,-4.781,-4.9077,-5.0325,-5.1279,-5.2087,-5.2894,-5.3203,-5.3314,-5.4106,-5.4399,-5.4583,-5.5794,-5.6455,-5.6895,-5.7299,-5.7666,-5.7997,-5.7997,-5.7997,-5.7997,-5.7997,-5.7997,-5.7997,-5.7997,-5.8621,-5.9184,-5.9184,-5.9832,-6.0419,-6.0419,-6.1043,-6.1741,-6.2144,-6.2548,-6.278,-6.278,-6.2108,-6.1594,-6.1594,-6.1594,-6.1594,-6.1594,-6.3099,-6.442,-6.5228,-6.6035,-6.6843,-6.7677,-6.7687,-6.8054,-6.8862,-6.9302,-6.9889,-7.0697,-7.1505,-7.2092,-7.2496,-7.2092,-7.1688,-7.1293,-7.2129,-7.1872,0.0,0.0,0.0,0.0,0.0,-4.161,0.0,0.0,0.0,0.0,0.0,0.0,0.0,0.0,0.0,0.0,0.0,0.0,0.0,0.0,0.0,0.0,0.0,0.0,0.0,-4.074,-4.0793,-4.1416,-4.2017,-4.2377,-4.2501,-4.316,-4.3515,-4.3515,-4.3515,-4.3515,-4.3515,-4.3515,-4.3515,-4.3515,-4.3515,-4.3515,-4.3515,-4.3515,-4.3515,-4.3551,-4.4195,-4.4929,-4.5736,-4.6526,-4.7333,-4.8233,-4.9921,-5.1059,-5.1867,-5.2674,-5.3078,-5.3277,-5.3959,-5.4179,-5.4289,-5.5097,-5.5904,-5.6602,-5.6748,-5.7262,-5.7813,-5.796,-5.7997,-5.7997,-5.7997,-5.7997,-5.7997,-5.7997,-5.851,-5.8964,-5.8964,-5.9501,-5.9942,-5.9942,-6.0052,-6.0456,-6.141,-6.2144,-6.2622,-6.278,-6.1998,-6.141,-6.1557,-6.1447,-6.1484,-6.1777,-6.3319,-6.464,-6.5485,-6.6256,-6.699,-6.765,-6.7834,-6.8274,-6.9119,-6.9449,-7.022,-7.1541,-7.2165,-7.2496,-7.2496,-7.2496,-7.2092,-7.1293,-7.1982,-7.1505,0.0,0.0,0.0,0.0,-4.3741,0.0,0.0,0.0,0.0,0.0,0.0,0.0,0.0,0.0,0.0,0.0,0.0,0.0,0.0,0.0,0.0,0.0,0.0,0.0,0.0,0.0,-4.0009,-4.0285,-4.0701,-4.1212,-4.1881,-4.2903,-4.3515,-4.3515,-4.3515,-4.3515,-4.3515,-4.3515,-4.3515,-4.3515,-4.3515,-4.3515,-4.3515,-4.3515,-4.3515,-4.3515,-4.3625,-4.4085,-4.4874,-4.57,-4.6507,-4.7406,-4.9077,-5.0215,-5.1022,-5.183,-5.2601,-5.3203,-5.3298,-5.3314,-5.3482,-5.4289,-5.506,-5.5868,-5.6602,-5.6859,-5.7079,-5.7813,-5.7997,-5.7997,-5.7997,-5.7997,-5.7997,-5.7997,-5.807,-5.8143,-5.8143,-5.8217,-5.8253,-5.8253,-5.8841,-5.9808,-6.1337,-6.1667,-6.1998,-6.267,-6.152,-6.0786,-6.152,-6.097,-6.108,-6.2511,-6.4163,-6.5485,-6.6292,-6.71,-6.7577,-6.7687,-6.8385,-6.9119,-6.9926,-7.1321,-7.2165,-7.2349,-7.2459,-7.2496,-7.2496,-7.2496,-7.2092,-7.1293,-7.1366,-7.0954,0.0,0.0,0.0,0.0,0.0,0.0,-4.3031,0.0,-4.1102,0.0,0.0,0.0,0.0,0.0,0.0,0.0,0.0,0.0,0.0,0.0,0.0,0.0,0.0,0.0,0.0,0.0,0.0,0.0,0.0,-4.1477,-4.1775,-4.2866,-4.3515,-4.3515,-4.3515,-4.3515,-4.3515,-4.3515,-4.3515,-4.3515,-4.3515,-4.3515,-4.3515,-4.3515,-4.3515,-4.3515,-4.3515,-4.3975,-4.4764,-4.5553,-4.6361,-4.7223,-4.8379,-4.937,-5.0251,-5.1536,-5.2197,-5.2564,-5.3041,-5.3203,-5.3335,-5.4142,-5.462,-5.5133,-5.6418,-5.6822,-5.6969,-5.7776,-5.7997,-5.7997,-5.7997,-5.7997,-5.7997,-5.7997,-5.7997,-5.7997,-5.7997,-5.7997,-5.7997,-5.7997,-5.8253,-5.8877,-6.0015,-6.097,-6.1557,-6.1447,-6.163,-6.1741,-6.163,-6.1704,-6.2254,-6.3429,-6.4604,-6.5632,-6.6439,-6.7247,-6.7687,-6.7687,-6.8898,-6.9743,-7.0073,-7.1651,-7.2496,-7.2496,-7.2496,-7.2496,-7.2496,-7.2496,-7.1835,-7.0624,-7.1101,-7.0881,-4.4615,0.0,0.0,0.0,0.0,0.0,0.0,0.0,0.0,0.0,0.0,0.0,0.0,0.0,0.0,0.0,0.0,0.0,0.0,0.0,0.0,0.0,0.0,0.0,0.0,0.0,0.0,-3.9691,-4.0612,-4.1307,-4.1665,-4.2614,-4.3294,-4.3515,-4.3515,-4.3515,-4.3515,-4.3515,-4.3515,-4.3515,-4.3515,-4.3515,-4.3515,-4.3515,-4.3515,-4.3515,-4.3515,-4.3828,-4.4452,-4.548,-4.625,-4.6856,-4.7902,-4.8673,-4.9427,-5.0822,-5.161,-5.2087,-5.2674,-5.3041,-5.3298,-5.3885,-5.4216,-5.4656,-5.6051,-5.6638,-5.6969,-5.7776,-5.7997,-5.7997,-5.7997,-5.7997,-5.7997,-5.7997,-5.7997,-5.7997,-5.7997,-5.7997,-5.7997,-5.7997,-5.7997,-5.818,-5.8767,-6.0015,-6.0823,-6.0456,-6.141,-6.2034,-6.163,-6.2108,-6.2989,-6.4273,-6.4971,-6.5742,-6.6733,-6.7357,-6.7797,-6.8017,-6.9493,-7.0448,-7.0669,-7.1996,-7.2733,-7.2733,-7.2573,-7.2386,-7.2165,-7.2386,-7.1688,-7.011,-7.0697,-7.0772,0.0,0.0,0.0,-4.4615,0.0,0.0,0.0,0.0,-4.2902,0.0,0.0,0.0,0.0,0.0,0.0,0.0,0.0,0.0,0.0,0.0,0.0,0.0,0.0,0.0,0.0,0.0,0.0,-3.8627,-3.9217,-4.0119,-4.1355,-4.1992,-4.269,-4.3478,-4.3515,-4.3515,-4.3515,-4.3515,-4.3515,-4.3515,-4.3515,-4.3515,-4.3515,-4.3515,-4.3515,-4.3515,-4.3515,-4.3497,-4.3662,-4.5259,-4.592,-4.6104,-4.7682,-4.8343,-4.8453,-4.9353,-5.0675,-5.1977,-5.2013,-5.2564,-5.3203,-5.3203,-5.3775,-5.4546,-5.539,-5.6161,-5.6969,-5.7776,-5.7997,-5.7997,-5.7997,-5.7997,-5.7997,-5.7997,-5.7997,-5.7997,-5.7997,-5.7997,-5.7997,-5.7997,-5.7997,-5.7997,-5.8033,-5.8731,-5.9515,-6.0309,-6.0456,-6.075,-6.1484,-6.163,-6.2585,-6.5007,-6.5301,-6.5925,-6.7504,-6.7687,-6.8017,-6.8825,-7.0187,-7.1342,-7.21,-7.2919,-7.3366,-7.3366,-7.2789,-7.2129,-7.1329,-7.2129,-7.1688,-7.011,-7.011,-7.0417,0.0,0.0,-4.4615,-4.4615,0.0,0.0,0.0,0.0,0.0,0.0,0.0,0.0,0.0,0.0,0.0,0.0,0.0,0.0,0.0,0.0,0.0,0.0,0.0,0.0,0.0,0.0,0.0,-3.8545,-3.9147,-4.0068,0.0,-4.1956,-4.2653,-4.3478,-4.3515,-4.3515,-4.3515,-4.3515,-4.3515,-4.3515,-4.3515,-4.3515,-4.3515,-4.3515,-4.3515,-4.3515,-4.3515,-4.3515,-4.3608,-4.5223,-4.5883,-4.6067,-4.7682,-4.8306,-4.8416,-4.928,-4.9941,-5.0565,-5.161,-5.2527,-5.3203,-5.3203,-5.3408,-5.3775,-5.4546,-5.5354,-5.6161,-5.6969,-5.7593,-5.7997,-5.7997,-5.7997,-5.7997,-5.7997,-5.7997,-5.7997,-5.7997,-5.7997,-5.7997,-5.7997,-5.7997,-5.7997,-5.7997,-5.8217,-5.851,-5.8767,-6.0162,-6.108,-6.086,-6.1741,-6.3135,-6.5081,-6.5301,-6.5962,-6.754,-6.7687,-6.7973,-6.8593,-7.0127,-7.1298,-7.1914,-7.3252,-7.3794,-7.3417,-7.3198,-7.2778,-7.2092,-7.2386,-7.1945,-7.0881,-7.0881,-7.1192,-4.4513,-4.4615,0.0,-4.4215,-4.4181,0.0,-4.32,0.0,0.0,0.0,0.0,0.0,0.0,0.0,0.0,0.0,0.0,0.0,0.0,-3.6569,0.0,0.0,0.0,0.0,0.0,0.0,-3.7365,-3.8049,-3.8707,-3.9773,0.0,0.0,-4.2653,-4.3478,-4.3515,-4.3515,-4.3515,-4.3515,-4.3515,-4.3515,-4.3515,-4.3515,-4.3515,-4.3515,-4.3515,-4.3515,-4.3515,-4.3515,-4.3608,-4.5223,-4.5883,-4.6067,-4.7682,-4.8306,-4.8416,-4.928,-4.9978,-5.0639,-5.1977,-5.2784,-5.3203,-5.3203,-5.3408,-5.3739,-5.4252,-5.495,-5.5684,-5.6235,-5.6969,-5.7556,-5.7556,-5.7776,-5.7997,-5.7997,-5.7997,-5.7997,-5.7997,-5.7997,-5.7997,-5.7997,-5.7997,-5.7997,-5.7997,-5.7997,-5.7997,-5.7997,-5.9795,-6.1006,-6.0456,-6.1814,-6.3441,-6.5118,-6.5301,-6.6029,-6.7834,-6.8266,-6.8655,-6.9222,-7.0802,-7.1936,-7.2505,-7.3683,-7.4117,-7.3723,-7.3029,-7.2307,-7.1651,-7.1945,-7.1651,-7.0881,-7.1468,-7.2176]},{"header":{"parameterUnit":"m.s-1","parameterCategory":1,"la1":30.6,"la2":29.2853,"lo1":-89.7004,"lo2":-87.6739,"dy":0.0162,"dx":0.0183,"nx":112,"ny":82,"refTime":"2023-03-31T06:00:00:Z","depth":0,"parameterNumber":3,"parameterNumberName":"V-component_of_WINDS"},"data":[0.0,0.0,0.0,0.0,0.0,0.0,0.0,0.0,0.0,0.0,0.0,0.0,0.0,0.0,0.0,0.0,0.0,0.0,0.0,0.0,0.0,0.0,0.0,0.0,0.0,0.0,0.0,0.0,0.0,0.0,0.0,0.0,0.0,0.0,0.0,0.0,0.0,0.0,0.0,0.0,0.0,0.0,0.0,0.0,0.0,0.0,0.0,0.0,0.0,0.0,0.0,0.0,0.0,0.0,0.0,0.0,0.0,0.0,0.0,0.0,0.0,0.0,0.0,0.0,0.0,0.0,0.0,0.0,0.0,0.0,0.0,0.0,0.0,0.0,0.0,0.0,0.0,0.0,0.0,0.0,0.0,0.0,0.0,0.0,0.0,0.0,0.0,0.0,0.0,0.0,-2.5308,-2.5178,-2.6949,-2.8207,-2.8167,-2.7993,-2.6881,-2.4703,0.0,0.0,0.0,0.0,0.0,0.0,0.0,0.0,0.0,0.0,0.0,0.0,0.0,0.0,0.0,0.0,0.0,0.0,0.0,0.0,0.0,0.0,0.0,0.0,0.0,0.0,0.0,0.0,0.0,0.0,0.0,0.0,0.0,0.0,0.0,0.0,0.0,0.0,0.0,0.0,0.0,0.0,0.0,0.0,0.0,0.0,0.0,0.0,0.0,0.0,0.0,0.0,0.0,0.0,0.0,0.0,0.0,0.0,0.0,0.0,0.0,0.0,0.0,0.0,0.0,0.0,0.0,0.0,0.0,0.0,0.0,0.0,0.0,0.0,0.0,0.0,0.0,0.0,0.0,0.0,0.0,0.0,0.0,0.0,0.0,0.0,0.0,0.0,0.0,0.0,0.0,0.0,0.0,0.0,0.0,0.0,0.0,0.0,0.0,0.0,0.0,0.0,0.0,0.0,-2.6343,-2.5513,-2.7109,-2.8043,-2.7789,-2.6854,-2.5705,-2.4356,0.0,0.0,0.0,0.0,0.0,0.0,0.0,0.0,0.0,0.0,0.0,0.0,0.0,0.0,0.0,0.0,0.0,0.0,0.0,0.0,0.0,0.0,0.0,0.0,0.0,0.0,0.0,0.0,0.0,0.0,0.0,0.0,0.0,0.0,0.0,0.0,0.0,0.0,0.0,0.0,0.0,0.0,0.0,0.0,0.0,0.0,0.0,0.0,0.0,0.0,0.0,0.0,0.0,0.0,0.0,0.0,0.0,0.0,0.0,0.0,0.0,0.0,0.0,0.0,0.0,0.0,0.0,0.0,0.0,0.0,0.0,0.0,0.0,0.0,0.0,0.0,0.0,0.0,0.0,0.0,0.0,0.0,0.0,0.0,0.0,0.0,0.0,0.0,0.0,0.0,0.0,0.0,0.0,0.0,0.0,0.0,0.0,0.0,0.0,0.0,0.0,0.0,0.0,-2.7019,-2.5874,-2.5761,-2.7269,-2.8016,-2.7722,-2.6774,-2.5625,-2.4289,-2.3875,0.0,0.0,0.0,0.0,0.0,0.0,0.0,0.0,0.0,0.0,0.0,0.0,0.0,0.0,0.0,0.0,0.0,0.0,0.0,0.0,0.0,0.0,0.0,0.0,0.0,0.0,0.0,0.0,0.0,0.0,0.0,0.0,0.0,0.0,0.0,0.0,0.0,0.0,0.0,0.0,0.0,0.0,0.0,0.0,0.0,0.0,0.0,0.0,0.0,0.0,0.0,0.0,0.0,0.0,0.0,0.0,0.0,0.0,0.0,0.0,0.0,0.0,0.0,0.0,0.0,0.0,0.0,0.0,0.0,0.0,0.0,0.0,0.0,0.0,0.0,0.0,0.0,0.0,0.0,0.0,0.0,0.0,0.0,0.0,0.0,0.0,0.0,0.0,0.0,0.0,0.0,0.0,0.0,0.0,0.0,0.0,0.0,0.0,0.0,0.0,0.0,0.0,-2.6476,-2.5855,-2.5909,-2.7189,-2.7816,-2.7522,-2.6493,-2.5371,-2.4182,-2.306,0.0,0.0,0.0,0.0,0.0,0.0,0.0,0.0,0.0,0.0,0.0,0.0,0.0,0.0,0.0,0.0,0.0,0.0,0.0,0.0,0.0,0.0,0.0,0.0,0.0,0.0,0.0,0.0,0.0,0.0,0.0,0.0,0.0,0.0,0.0,0.0,0.0,0.0,0.0,0.0,0.0,0.0,0.0,0.0,0.0,0.0,0.0,0.0,0.0,0.0,0.0,0.0,0.0,0.0,0.0,0.0,0.0,0.0,0.0,0.0,0.0,0.0,0.0,0.0,0.0,0.0,0.0,0.0,0.0,0.0,0.0,0.0,0.0,0.0,0.0,0.0,0.0,0.0,0.0,0.0,0.0,0.0,0.0,0.0,0.0,0.0,0.0,0.0,0.0,0.0,0.0,0.0,0.0,0.0,0.0,0.0,0.0,0.0,0.0,0.0,0.0,0.0,-2.7823,-2.7479,-2.5702,-2.6613,-2.7201,-2.6907,-2.5331,-2.4195,-2.3821,-2.2191,0.0,0.0,0.0,0.0,0.0,0.0,0.0,0.0,0.0,0.0,0.0,0.0,0.0,0.0,0.0,0.0,0.0,0.0,0.0,0.0,0.0,0.0,0.0,0.0,0.0,0.0,0.0,0.0,0.0,0.0,0.0,0.0,0.0,0.0,0.0,0.0,0.0,0.0,0.0,0.0,0.0,0.0,0.0,0.0,0.0,0.0,0.0,0.0,0.0,0.0,0.0,0.0,0.0,0.0,0.0,0.0,0.0,0.0,0.0,0.0,0.0,0.0,0.0,0.0,0.0,0.0,0.0,0.0,0.0,0.0,0.0,0.0,0.0,0.0,0.0,0.0,0.0,0.0,0.0,0.0,0.0,0.0,0.0,0.0,0.0,0.0,0.0,0.0,0.0,0.0,0.0,0.0,0.0,0.0,0.0,0.0,0.0,0.0,0.0,0.0,0.0,0.0,-2.691,-2.6293,0.0,-2.64,-2.6867,-2.6573,-2.5451,-2.4396,-2.3554,0.0,0.0,0.0,0.0,0.0,0.0,0.0,0.0,0.0,0.0,0.0,0.0,0.0,0.0,0.0,0.0,0.0,0.0,0.0,0.0,0.0,0.0,0.0,0.0,0.0,0.0,0.0,0.0,0.0,0.0,0.0,0.0,0.0,0.0,0.0,0.0,0.0,0.0,0.0,0.0,0.0,0.0,0.0,0.0,0.0,0.0,0.0,0.0,0.0,0.0,0.0,0.0,0.0,0.0,0.0,0.0,0.0,0.0,0.0,0.0,0.0,0.0,0.0,0.0,0.0,0.0,0.0,0.0,0.0,0.0,0.0,0.0,0.0,0.0,0.0,0.0,0.0,0.0,0.0,0.0,0.0,0.0,0.0,0.0,0.0,0.0,0.0,0.0,0.0,0.0,0.0,0.0,0.0,0.0,0.0,0.0,0.0,0.0,0.0,0.0,0.0,0.0,-2.7256,-2.6561,-2.5857,0.0,-2.5879,-2.6319,-2.6132,-2.4877,-2.3875,-2.3354,0.0,0.0,0.0,0.0,0.0,0.0,0.0,0.0,0.0,0.0,0.0,0.0,0.0,0.0,0.0,0.0,0.0,0.0,0.0,0.0,0.0,0.0,0.0,0.0,0.0,0.0,0.0,0.0,0.0,0.0,0.0,0.0,0.0,0.0,0.0,0.0,0.0,0.0,0.0,0.0,0.0,0.0,0.0,0.0,0.0,0.0,0.0,0.0,0.0,0.0,0.0,0.0,0.0,0.0,0.0,0.0,0.0,0.0,0.0,0.0,0.0,0.0,0.0,0.0,0.0,0.0,0.0,0.0,0.0,0.0,0.0,0.0,0.0,0.0,0.0,0.0,0.0,0.0,0.0,0.0,0.0,0.0,0.0,0.0,0.0,0.0,0.0,0.0,0.0,0.0,0.0,0.0,0.0,0.0,0.0,0.0,0.0,0.0,0.0,0.0,0.0,0.0,-2.7194,-2.7247,-2.6624,-2.4449,-2.4983,-2.5504,-2.5504,-2.334,-2.2365,0.0,0.0,0.0,0.0,0.0,0.0,0.0,0.0,0.0,0.0,0.0,0.0,0.0,0.0,0.0,0.0,0.0,0.0,0.0,0.0,0.0,0.0,0.0,0.0,0.0,0.0,0.0,0.0,0.0,0.0,0.0,0.0,0.0,0.0,0.0,0.0,0.0,0.0,0.0,0.0,0.0,0.0,0.0,0.0,0.0,0.0,0.0,0.0,0.0,0.0,0.0,0.0,0.0,0.0,0.0,0.0,0.0,0.0,0.0,0.0,0.0,0.0,0.0,0.0,0.0,0.0,0.0,0.0,0.0,0.0,0.0,0.0,0.0,0.0,0.0,0.0,0.0,0.0,0.0,0.0,0.0,0.0,0.0,0.0,0.0,0.0,0.0,0.0,0.0,0.0,0.0,0.0,0.0,0.0,0.0,0.0,0.0,0.0,0.0,0.0,0.0,0.0,0.0,-2.6856,-2.6498,-2.5812,-2.411,-2.4315,-2.4676,-2.4877,-2.33,-2.2405,-2.2672,0.0,0.0,0.0,0.0,0.0,0.0,0.0,0.0,0.0,0.0,0.0,0.0,0.0,0.0,0.0,0.0,0.0,0.0,0.0,0.0,0.0,0.0,0.0,0.0,0.0,0.0,0.0,0.0,0.0,0.0,0.0,0.0,0.0,0.0,0.0,0.0,0.0,0.0,0.0,0.0,0.0,0.0,0.0,0.0,0.0,0.0,0.0,0.0,0.0,0.0,0.0,0.0,0.0,0.0,0.0,0.0,0.0,0.0,0.0,0.0,0.0,0.0,0.0,0.0,0.0,0.0,0.0,0.0,0.0,0.0,0.0,0.0,0.0,0.0,0.0,0.0,0.0,0.0,0.0,0.0,0.0,0.0,0.0,0.0,0.0,0.0,0.0,0.0,0.0,0.0,0.0,0.0,0.0,0.0,0.0,0.0,0.0,0.0,0.0,0.0,0.0,0.0,-2.6672,-2.614,-2.5334,-2.3608,-2.3781,-2.4048,-2.4115,-2.2859,-2.2017,-2.1897,0.0,0.0,0.0,0.0,0.0,0.0,0.0,0.0,0.0,0.0,0.0,0.0,0.0,0.0,0.0,0.0,0.0,0.0,0.0,0.0,0.0,0.0,0.0,0.0,0.0,0.0,0.0,0.0,0.0,0.0,0.0,0.0,0.0,0.0,0.0,0.0,0.0,0.0,0.0,0.0,0.0,0.0,0.0,0.0,0.0,0.0,0.0,0.0,0.0,0.0,0.0,0.0,0.0,0.0,0.0,0.0,0.0,0.0,0.0,0.0,0.0,0.0,0.0,0.0,0.0,0.0,0.0,0.0,0.0,0.0,0.0,0.0,0.0,0.0,0.0,0.0,0.0,0.0,0.0,0.0,0.0,0.0,0.0,0.0,0.0,0.0,0.0,0.0,0.0,0.0,0.0,0.0,0.0,0.0,0.0,0.0,0.0,0.0,0.0,0.0,0.0,0.0,-2.6639,-2.6153,-2.5167,-2.3025,-2.33,-2.3541,-2.326,-2.2178,-2.1403,-2.1122,0.0,0.0,0.0,0.0,0.0,0.0,0.0,0.0,0.0,0.0,0.0,0.0,0.0,0.0,0.0,0.0,0.0,0.0,0.0,0.0,0.0,0.0,0.0,0.0,0.0,0.0,0.0,0.0,0.0,0.0,0.0,0.0,0.0,0.0,0.0,0.0,0.0,0.0,0.0,0.0,0.0,0.0,0.0,0.0,0.0,0.0,0.0,0.0,0.0,0.0,0.0,0.0,0.0,0.0,0.0,0.0,0.0,0.0,0.0,0.0,-2.9414,0.0,0.0,0.0,0.0,0.0,0.0,0.0,0.0,0.0,0.0,0.0,0.0,0.0,0.0,0.0,0.0,0.0,0.0,0.0,0.0,0.0,0.0,0.0,0.0,0.0,0.0,0.0,0.0,0.0,0.0,0.0,0.0,0.0,0.0,0.0,0.0,0.0,0.0,0.0,0.0,0.0,-2.6409,-2.5855,-2.4797,-2.2428,-2.2498,-2.2686,-2.2619,-2.175,-2.1176,-2.1109,-2.0561,0.0,0.0,0.0,0.0,0.0,0.0,0.0,0.0,0.0,0.0,0.0,0.0,0.0,0.0,0.0,0.0,0.0,0.0,0.0,0.0,0.0,0.0,0.0,0.0,0.0,0.0,0.0,0.0,0.0,0.0,0.0,0.0,0.0,0.0,0.0,0.0,0.0,0.0,0.0,0.0,0.0,0.0,0.0,0.0,0.0,0.0,0.0,0.0,0.0,0.0,0.0,0.0,0.0,0.0,0.0,0.0,0.0,0.0,0.0,0.0,-2.9844,0.0,0.0,0.0,0.0,0.0,0.0,0.0,0.0,0.0,0.0,0.0,0.0,0.0,0.0,0.0,0.0,0.0,0.0,0.0,0.0,0.0,0.0,0.0,0.0,0.0,0.0,0.0,0.0,0.0,0.0,0.0,0.0,0.0,0.0,0.0,0.0,0.0,0.0,0.0,0.0,-2.6188,-2.4987,-2.3636,-2.197,-2.2031,-2.2151,-2.2017,-2.1456,-2.0935,-2.0508,-2.0321,0.0,0.0,0.0,0.0,0.0,0.0,0.0,0.0,0.0,0.0,0.0,0.0,0.0,0.0,0.0,0.0,0.0,0.0,0.0,0.0,0.0,0.0,0.0,0.0,0.0,0.0,0.0,0.0,0.0,0.0,0.0,0.0,0.0,0.0,0.0,0.0,0.0,0.0,0.0,0.0,0.0,0.0,0.0,0.0,0.0,0.0,0.0,0.0,0.0,0.0,0.0,0.0,0.0,-3.0,-3.0664,-3.2051,-3.1758,-3.1484,-3.1211,-3.082,-3.0078,-2.9219,0.0,0.0,0.0,0.0,0.0,0.0,0.0,0.0,0.0,0.0,0.0,0.0,0.0,0.0,0.0,0.0,0.0,0.0,0.0,0.0,0.0,0.0,0.0,0.0,0.0,-3.1465,-3.0996,0.0,0.0,0.0,0.0,0.0,0.0,0.0,0.0,0.0,0.0,0.0,0.0,-2.6127,-2.4222,-2.2577,-2.1609,-2.1737,-2.179,-2.1561,-2.1256,-2.0762,-1.992,-2.0094,-2.0013,0.0,0.0,0.0,0.0,0.0,0.0,0.0,0.0,0.0,0.0,0.0,0.0,0.0,0.0,0.0,0.0,0.0,0.0,0.0,0.0,0.0,0.0,0.0,0.0,0.0,0.0,0.0,0.0,0.0,0.0,0.0,0.0,-3.2375,-3.1902,0.0,0.0,0.0,0.0,0.0,0.0,0.0,0.0,0.0,0.0,0.0,0.0,0.0,-2.9199,-2.9628,-3.0192,-3.0371,-3.0195,-3.0918,-3.1387,-3.1621,-3.1934,-3.2246,-3.2539,-3.248,0.0,-3.0019,-2.9824,0.0,0.0,0.0,0.0,0.0,0.0,0.0,0.0,0.0,0.0,0.0,0.0,0.0,0.0,0.0,0.0,0.0,0.0,0.0,0.0,0.0,0.0,-3.1758,-3.1191,-3.125,-3.1426,0.0,-3.1484,-3.1523,-3.1523,-3.123,0.0,0.0,0.0,0.0,0.0,0.0,0.0,-2.6177,-2.4363,-2.2736,-2.1276,-2.143,-2.1483,-2.1189,-2.1136,-2.0842,-2.0214,-2.0153,-2.0201,-2.012,-1.9907,0.0,0.0,0.0,0.0,0.0,0.0,0.0,0.0,0.0,0.0,0.0,0.0,0.0,0.0,0.0,0.0,0.0,0.0,0.0,0.0,0.0,0.0,0.0,0.0,0.0,0.0,0.0,0.0,0.0,-3.3621,-3.3204,-3.2554,-3.3715,-3.4557,0.0,0.0,0.0,0.0,0.0,0.0,0.0,0.0,0.0,-2.9298,-2.9273,-2.9258,-2.9199,-3.0059,-3.0762,-3.1309,-3.1934,-3.2617,-3.332,-3.3496,-3.3691,-3.3867,-3.3867,-3.3164,-3.1953,-3.1309,-3.082,-3.0469,0.0,0.0,0.0,0.0,-3.0371,-3.0644,-3.1133,-3.1035,0.0,0.0,0.0,0.0,0.0,0.0,0.0,0.0,0.0,0.0,0.0,0.0,0.0,-3.1269,-3.1211,-3.123,-3.1465,-3.1328,-3.123,0.0,-3.1562,-3.1523,-3.1289,0.0,0.0,0.0,0.0,-2.6423,-2.6056,-2.3579,-2.1659,-2.1159,-2.1229,-2.1256,-2.1122,-2.1109,-2.0935,-2.0508,-2.0481,-2.0334,-2.0,-2.0187,-2.0388,0.0,0.0,0.0,0.0,0.0,0.0,0.0,0.0,0.0,0.0,0.0,0.0,0.0,0.0,0.0,0.0,0.0,0.0,0.0,0.0,0.0,0.0,0.0,0.0,0.0,0.0,0.0,0.0,-3.3657,-3.3244,-3.2393,-3.2978,-3.3513,0.0,0.0,0.0,0.0,0.0,0.0,-2.9435,-3.0178,-3.0133,-2.9082,-2.9629,-2.9902,-2.9902,-3.0644,-3.1621,-3.2812,-3.3262,-3.4023,-3.5039,-3.4922,-3.4883,-3.4863,-3.4746,-3.4277,-3.3516,-3.2559,-3.1582,-3.0684,-3.0449,-3.0312,-3.0254,-3.0469,-3.082,-3.1309,-3.2013,-3.1875,-3.1621,-3.2285,0.0,-3.1172,-3.0957,0.0,0.0,0.0,0.0,-3.0937,-3.1152,-3.1133,-3.1152,-3.1582,-3.1367,-3.1133,-3.1445,-3.1269,-3.1113,0.0,-3.1621,-3.1738,-3.1406,0.0,0.0,0.0,0.0,-2.5145,-2.5343,-2.2672,-2.0869,-2.1082,-2.1109,-2.1109,-2.1109,-2.1109,-2.0949,-2.0588,-2.0561,-2.0334,-1.9826,-2.0214,-2.0414,-2.0347,0.0,0.0,0.0,0.0,0.0,0.0,0.0,0.0,0.0,0.0,0.0,0.0,0.0,0.0,0.0,0.0,0.0,0.0,0.0,0.0,0.0,0.0,0.0,0.0,0.0,0.0,0.0,0.0,0.0,-2.9691,-3.0359,0.0,0.0,0.0,0.0,-2.999,-3.061,-3.024,-2.8495,-2.9172,-2.9643,-2.9587,-3.0371,-3.1406,-3.2578,-3.3047,-3.3711,-3.457,-3.5039,-3.5508,-3.5937,-3.5547,-3.5351,-3.5332,-3.4883,-3.4453,-3.3945,-3.2757,-3.219,-3.2053,-3.1172,-3.1348,-3.2053,-3.1601,-3.1719,-3.2109,-3.2148,-3.1875,-3.1719,-3.2949,-3.2793,-3.1953,-3.1133,-3.0898,0.0,0.0,-3.1191,-3.1074,-3.1894,-3.1797,-3.1601,-3.2031,-3.1797,-3.1484,-3.1504,-3.1504,-3.1367,0.0,-3.0937,-3.0957,-3.0918,0.0,-2.8545,-2.8545,-2.5741,-2.373,-2.3683,-2.2201,-2.1096,-2.1109,-2.1109,-2.1109,-2.1109,-2.1109,-2.0869,-2.0233,-2.0254,-2.012,-1.9813,-1.9826,-2.0094,-2.0641,-2.0388,0.0,0.0,0.0,0.0,0.0,0.0,0.0,0.0,0.0,0.0,0.0,0.0,0.0,0.0,0.0,0.0,0.0,0.0,0.0,0.0,0.0,0.0,0.0,0.0,0.0,0.0,0.0,0.0,-3.1223,-3.1239,0.0,-3.1063,-3.1168,-3.1038,-3.0569,-3.0268,-2.9928,-2.9567,-3.0351,-3.1191,-3.2031,-3.209,-3.2598,-3.3613,-3.3769,-3.4121,-3.4707,-3.4863,-3.5176,-3.5605,-3.5469,-3.5391,-3.541,-3.5508,-3.5137,-3.4434,-3.3984,-3.3144,-3.2109,-3.1523,-3.1309,-3.1367,-3.1484,-3.1973,-3.2617,-3.2871,-3.2871,-3.2676,-3.2324,-3.1816,-3.1289,-3.0976,-3.0898,-3.0976,-3.1406,-3.1406,-3.1367,-3.168,-3.1836,-3.1894,-3.1777,-3.1621,-3.1523,-3.1523,-3.1309,-3.1074,-3.0918,-3.0249,-2.9651,-2.9331,-2.7931,-2.6832,-2.6832,-2.5024,-2.3574,-2.3574,-2.2153,-2.1109,-2.1109,-2.1109,-2.1109,-2.1109,-2.1109,-2.0935,-2.0548,-2.0521,-2.0307,-1.9813,-1.9987,-2.0174,-2.0388,-2.0107,-2.0281,0.0,0.0,0.0,0.0,0.0,0.0,0.0,0.0,0.0,0.0,0.0,0.0,0.0,0.0,0.0,0.0,0.0,0.0,0.0,0.0,0.0,0.0,0.0,0.0,0.0,0.0,-3.177,-3.2162,-3.1705,-3.1467,-3.1753,-3.1175,-3.0724,-3.0724,-3.0585,-3.0566,-3.084,-3.168,-3.248,-3.3184,-3.3086,-3.3359,-3.4062,-3.4082,-3.4277,-3.4707,-3.4707,-3.4863,-3.5156,-3.5019,-3.4941,-3.4961,-3.5098,-3.4805,-3.4277,-3.4277,-3.3613,-3.2559,-3.2266,-3.207,-3.1992,-3.2285,-3.2734,-3.3262,-3.3535,-3.3535,-3.3262,-3.2266,-3.166,-3.1328,-3.1328,-3.1328,-3.1406,-3.1836,-3.1738,-3.1582,-3.1875,-3.1953,-3.1875,-3.1582,-3.1523,-3.1484,-3.1328,-3.1094,-3.0898,-3.0898,-2.9814,-2.8793,-2.8462,-2.6591,-2.5192,-2.5192,-2.3807,-2.2779,-2.2779,-2.179,-2.1109,-2.1109,-2.1109,-2.1109,-2.1109,-2.1109,-2.0989,-2.0695,-2.0681,-2.0454,-1.996,-2.0227,-2.0374,-2.0374,-2.0187,-2.0388,-2.0962,0.0,0.0,0.0,0.0,0.0,0.0,0.0,0.0,0.0,0.0,0.0,0.0,0.0,0.0,0.0,0.0,0.0,0.0,0.0,0.0,0.0,0.0,0.0,-3.3148,-3.2647,-3.2197,-3.2184,-3.1469,-3.0605,-2.9746,-3.0019,-3.0273,-3.0273,-3.1484,-3.2268,-3.2268,-3.3008,-3.3262,-3.2851,-3.3223,-3.3652,-3.4062,-3.4082,-3.4277,-3.4687,-3.4687,-3.4687,-3.4668,-3.4258,-3.4082,-3.4043,-3.3633,-3.3457,-3.3457,-3.3437,-3.3457,-3.3476,-3.3437,-3.3691,-3.4062,-3.4062,-3.4062,-3.4082,-3.4082,-3.3789,-3.334,-3.291,-3.25,-3.2229,-3.2148,-3.2209,-3.2246,-3.2676,-3.2187,-3.1758,-3.2578,-3.2187,-3.1562,-3.1543,-3.1543,-3.1426,-3.0996,-3.0898,-3.082,-3.082,-2.9412,-2.8289,-2.8307,-2.5635,-2.3512,-2.3512,-2.2153,0.0,-2.1109,-2.1109,-2.1109,-2.1109,-2.1109,-2.1109,-2.1109,-2.1109,-2.0989,-2.0695,-2.0681,-2.0548,-2.018,-2.0508,-2.0655,-2.0655,-2.0681,-2.0681,-2.0681,0.0,0.0,0.0,0.0,0.0,0.0,0.0,0.0,0.0,0.0,0.0,0.0,0.0,0.0,0.0,0.0,0.0,0.0,0.0,0.0,0.0,0.0,-3.2755,-3.3027,-3.2136,-3.1558,-3.1658,-3.1781,-3.1836,-3.1894,-3.1738,-3.1758,-3.2051,-3.2695,-3.3086,-3.3086,-3.3887,-3.416,-3.373,-3.3828,-3.3945,-3.4082,-3.4082,-3.4141,-3.4238,-3.4238,-3.4238,-3.4238,-3.4121,-3.4082,-3.4082,-3.4258,-3.4355,-3.4316,-3.4023,-3.4277,-3.4746,-3.3789,-3.3496,-3.3594,-3.3594,-3.3809,-3.4082,-3.4082,-3.3789,-3.3301,-3.2578,-3.2266,-3.2109,-3.1797,-3.1914,-3.2246,-3.2676,-3.2637,-3.25,-3.2734,-3.2851,-3.2734,-3.2129,-3.1992,-3.1875,-3.1445,-3.017,-2.9098,-2.9098,-2.6849,-2.5269,-2.647,-2.3977,-2.179,-2.179,-2.1425,0.0,-2.1109,-2.1109,-2.1109,-2.1109,-2.1109,-2.1109,-2.1109,-2.1109,-2.0989,-2.0695,-2.0681,-2.0548,-2.018,-2.0307,-2.0361,-2.0361,-2.0775,-2.0882,0.0,0.0,0.0,0.0,0.0,0.0,0.0,0.0,0.0,0.0,0.0,0.0,0.0,0.0,0.0,0.0,0.0,0.0,0.0,0.0,0.0,0.0,-3.2791,-3.2447,-3.3106,-3.2128,-3.1514,-3.1974,-3.2422,-3.2793,-3.3027,-3.2832,-3.2793,-3.3047,-3.3457,-3.3613,-3.3437,-3.4062,-3.4238,-3.3809,-3.3809,-3.3809,-3.3809,-3.3809,-3.3809,-3.3809,-3.3809,-3.3809,-3.3809,-3.3809,-3.3809,0.0,-3.4062,-3.416,-3.4141,-3.3906,-3.4101,0.0,0.0,0.0,0.0,0.0,-3.3691,-3.4043,-3.3867,-3.3516,-3.3086,-3.2598,-3.2422,-3.2383,-3.2129,-3.2226,-3.2519,-3.293,-3.2812,-3.2539,-3.2539,-3.2715,-3.2676,-3.1836,-3.1914,-3.1992,-3.1387,-2.9889,-2.8625,-2.8444,-2.5818,0.0,-2.484,-2.2827,-2.1109,-2.1109,-2.1109,-2.1109,-2.1109,-2.1109,-2.1109,-2.1109,-2.1109,-2.1109,-2.1109,-2.1109,0.0,0.0,0.0,-2.0775,-2.0601,-2.0601,0.0,0.0,0.0,-2.1029,-2.0855,0.0,0.0,0.0,-2.1029,-2.1015,0.0,0.0,0.0,0.0,0.0,0.0,0.0,0.0,0.0,0.0,0.0,0.0,0.0,0.0,0.0,0.0,-3.2756,-3.1864,-3.3289,-3.2435,-3.1934,-3.2695,-3.3164,-3.3437,-3.3496,-3.3457,-3.3457,-3.3555,-3.3926,-3.3984,-3.3594,0.0,0.0,0.0,0.0,-3.3516,-3.3418,-3.3418,-3.3437,-3.3496,-3.3437,-3.3476,-3.3555,-3.3457,-3.3457,-3.3496,-3.3437,-3.3457,-3.3496,-3.3437,-3.3418,-3.3418,-3.3418,-3.3887,-3.4453,-3.3711,-3.3672,-3.3945,-3.3555,0.0,0.0,-3.2793,-3.2793,-3.2793,-3.2793,-3.2832,-3.2949,-3.332,-3.2851,-3.2307,-3.2307,-3.2207,-3.1973,-3.1152,-3.1543,-3.1875,-3.082,-2.9632,-2.8599,-2.7942,-2.5391,-2.3325,-2.3325,-2.209,-2.1109,-2.1109,-2.1109,-2.1109,-2.1109,-2.1109,-2.1109,-2.1109,0.0,0.0,-2.1109,-2.1109,-2.1109,-2.1109,-2.1109,-2.1109,-2.1109,-2.1109,-2.1109,-2.1109,-2.1109,-2.1109,-2.1109,-2.1109,-2.1109,-2.1109,-2.1109,-2.1109,0.0,0.0,0.0,0.0,0.0,0.0,0.0,0.0,0.0,0.0,0.0,0.0,0.0,0.0,0.0,-3.2609,-3.2622,-3.2802,-3.3349,-3.2939,-3.2617,-3.2773,-3.3164,-3.3555,-3.3906,-3.3633,-3.3711,-3.4394,-3.4531,-3.4531,-3.4453,-3.5215,-3.5117,-3.3984,-3.4277,-3.4121,-3.3437,-3.3418,-3.3594,-3.3945,0.0,0.0,-3.4434,-3.373,-3.3613,-3.3926,-3.3574,-3.3613,-3.3926,-3.3574,-3.3418,-3.3418,-3.3418,-3.3516,-3.3652,-3.3476,-3.3476,-3.3535,-3.3457,-3.3144,-3.2793,-3.2793,-3.2793,-3.2793,-3.2793,-3.3027,0.0,-3.3398,-3.3066,-3.2676,-3.2676,-3.2422,-3.2031,-3.1523,-3.1523,-3.1127,-2.9268,-2.7684,-2.6189,-2.4794,-2.2952,-2.1601,-2.1601,-2.1299,-2.1109,-2.1109,-2.1109,-2.1109,-2.1109,-2.1109,-2.1109,-2.1109,-2.1109,-2.1109,-2.1109,-2.1109,-2.1109,-2.1109,-2.1109,-2.1109,-2.1109,-2.1109,-2.1109,-2.1109,-2.1109,-2.1109,-2.1109,-2.1109,-2.1109,-2.1109,-2.1109,-2.1109,0.0,0.0,0.0,0.0,0.0,0.0,0.0,0.0,0.0,0.0,0.0,-3.155,0.0,0.0,-3.2361,-3.3054,-3.3144,-3.3275,-3.3721,-3.375,-3.3672,-3.3457,-3.3613,-3.3828,-3.4043,-3.4062,-3.4141,-3.4375,-3.459,-3.4512,-3.4082,-3.4883,-3.4961,-3.4101,-3.4277,-3.4277,-3.4062,-3.3848,-3.3965,-3.4394,-3.416,-3.4277,-3.4687,-3.4258,-3.418,-3.4355,-3.3926,-3.3867,-3.4043,-3.3594,-3.3418,-3.3418,-3.3418,-3.3418,-3.3418,-3.3418,-3.3418,-3.3418,-3.3418,-3.3144,-3.2793,-3.2793,-3.2793,-3.2793,-3.2793,-3.2949,-3.3105,-3.3105,-3.2812,-3.2422,-3.2207,-3.1992,-3.1738,-3.1309,-3.0734,-2.9957,-2.8696,-2.6682,-2.4797,-2.379,-2.2215,-2.1109,-2.1109,-2.1109,-2.1109,-2.1109,-2.1109,-2.1109,-2.1109,-2.1109,-2.1109,-2.1109,-2.1109,-2.1109,-2.1109,-2.1109,-2.1109,-2.1109,-2.1109,-2.1109,-2.1109,-2.1109,-2.1109,-2.1109,-2.1109,-2.1109,-2.1109,-2.1109,-2.1109,-2.1109,-2.1109,-2.1109,0.0,0.0,0.0,0.0,0.0,0.0,0.0,-2.9964,-3.0041,-3.0432,-3.0853,-3.1568,-3.2555,-3.2335,-3.242,-3.3813,-3.3693,-3.3633,-3.4238,-3.4531,-3.457,-3.4238,-3.4121,-3.4141,-3.4316,-3.4394,-3.4453,-3.4453,-3.4609,-3.4473,-3.3945,-3.457,-3.4766,-3.4336,-3.4336,-3.4453,-3.4707,-3.4355,-3.4414,-3.4824,-3.4746,-3.4785,-3.4961,-3.4785,-3.4746,-3.4805,-3.4297,-3.4023,-3.3926,-3.3574,-3.3418,-3.3418,-3.3418,-3.3418,-3.3418,-3.3418,-3.3418,-3.3418,-3.3418,-3.3144,-3.2812,-3.2891,-3.2871,-3.2812,-3.2891,-3.2851,-3.2793,-3.2793,-3.2441,-3.1973,-3.1719,-3.1523,-3.1269,-3.0702,-2.9729,-2.8684,-2.7702,-2.5678,-2.3888,-2.326,-2.2027,-2.1109,-2.1109,-2.1109,-2.1109,-2.1109,-2.1109,-2.1109,-2.1109,-2.1109,-2.1109,-2.1109,-2.1109,-2.1109,-2.1109,-2.1109,-2.1109,-2.1109,-2.1109,-2.1109,-2.1109,-2.1109,-2.1109,-2.1109,-2.1109,-2.1109,-2.1109,-2.1109,-2.1109,-2.1109,-2.1109,-2.1109,-2.7133,-2.7171,-2.7262,-2.8386,-2.7749,-2.7271,0.0,-2.9342,-2.9639,-2.9699,-3.0373,-3.0888,-3.0611,-3.1091,-3.1957,-3.3254,-3.3422,-3.3848,-3.5078,-3.4922,-3.4687,-3.4629,-3.4297,-3.4375,-3.5176,-3.4219,-3.418,-3.5684,-3.5117,-3.5,-3.5684,-3.582,-3.5684,-3.5254,-3.5234,-3.5078,-3.4707,-3.4648,-3.4863,-3.5312,-3.4902,-3.5117,-3.584,-3.5059,-3.4922,-3.5273,-3.4434,-3.3848,-3.3496,-3.3437,-3.3418,-3.3418,-3.3418,-3.3418,-3.3418,-3.3418,-3.3418,-3.3418,-3.3418,-3.3144,-3.2851,-3.3223,-3.3105,-3.2871,-3.3242,-3.3086,-3.2793,-3.2793,-3.2207,-3.166,-3.2012,-3.1523,-3.0683,-2.9559,-2.8895,-2.7684,-2.4794,-2.3899,-2.3183,-2.1677,-2.1235,-2.1109,-2.1109,-2.1109,-2.1109,-2.1109,-2.1109,-2.1109,-2.1109,-2.1109,-2.1109,-2.1109,-2.1109,-2.1109,-2.1109,-2.1109,-2.1109,-2.1109,-2.1109,-2.1109,-2.1109,-2.1109,-2.1109,-2.1109,-2.1109,-2.1109,-2.1109,-2.1109,-2.1109,-2.1109,-2.1109,-2.1109,-2.6284,-2.6208,-2.6283,-2.7703,-2.8188,-2.8496,-2.9453,-3.0195,-3.0703,-3.0703,-3.1191,-3.166,-3.1699,-3.2012,-3.2598,0.0,-3.4004,-3.4453,-3.5273,-3.5234,-3.5,-3.4726,-3.4101,-3.3945,-3.457,-3.4355,-3.4473,-3.5195,-3.5156,-3.5039,-3.4883,-3.5605,-3.5703,-3.5019,-3.5254,-3.541,-3.5469,-3.5215,-3.5312,-3.5762,-3.5566,-3.5664,-3.6016,-3.5644,-3.5293,-3.4961,-3.4336,-3.3828,-3.3418,-3.3418,-3.3418,-3.3418,-3.3418,-3.3418,-3.3418,-3.3418,-3.3418,-3.3379,-3.3144,-3.2949,-3.2832,-3.3008,-3.293,-3.2871,-3.3301,-3.3125,-3.2549,-3.1332,-3.1226,-3.1304,-3.0615,-3.0088,-2.968,-2.9397,-2.7569,-2.545,-2.4094,-2.2957,-2.1915,-2.1235,-2.1109,-2.1109,-2.1109,-2.1109,-2.1109,-2.1109,-2.1109,-2.1109,-2.1109,-2.1109,-2.1109,-2.1109,-2.1109,-2.1109,-2.1109,-2.1109,-2.1109,-2.1109,-2.1109,-2.1109,-2.1109,-2.1109,-2.1109,-2.1109,-2.1109,-2.1109,-2.1109,-2.1109,-2.1109,-2.1109,-2.1109,-2.1109,-2.6011,-2.5952,-2.6124,-2.7965,-2.922,-3.0098,-3.0762,-3.1601,-3.2226,-3.2226,-3.2383,-3.2578,-3.2754,-3.2793,-3.3027,-3.3769,-3.4355,-3.4824,-3.5156,-3.5195,-3.498,-3.4414,-3.3691,-3.332,-3.3535,-3.3926,-3.4316,-3.4668,-3.4902,-3.4805,-3.4277,-3.5254,-3.5547,-3.4902,-3.5332,-3.5723,-3.6016,-3.5723,-3.5723,-3.6016,-3.6016,-3.6016,-3.6016,-3.5898,-3.5371,-3.4512,-3.4199,-3.3828,-3.3418,-3.3418,-3.3418,-3.3418,-3.3418,-3.3418,-3.3418,-3.3418,-3.3418,-3.3379,-3.3066,-3.2969,-3.2969,-3.2969,-3.2969,-3.3027,-3.332,-3.3125,-3.2405,-3.0413,-3.0371,-3.0577,-2.9064,-2.8518,-2.835,-2.8277,-2.6119,-2.3877,-2.3432,-2.2187,-2.1109,-2.1109,-2.1109,-2.1109,-2.1109,-2.1109,-2.1109,-2.1109,-2.1109,-2.1109,-2.1109,-2.1109,-2.1109,-2.1109,-2.1109,-2.1109,-2.1109,-2.1109,-2.1109,-2.1109,-2.1189,-2.1189,-2.1109,-2.1189,-2.1189,-2.1109,-2.1109,-2.1109,-2.1109,-2.1109,-2.1109,-2.1109,-2.1109,-2.1109,-2.5928,-2.6035,-2.6348,-2.8902,-3.0213,-3.1172,-3.2441,-3.3379,-3.4004,-3.4004,-3.3672,-3.3262,-3.2871,-3.2793,-3.293,-3.3379,-3.4141,-3.4707,-3.4726,-3.4726,-3.4414,-3.3555,-3.3086,-3.2656,0.0,-3.2598,-3.3359,-3.4609,-3.4336,-3.4277,-3.4668,-3.5137,-3.541,-3.5371,-3.5781,-3.6016,-3.6016,-3.6016,-3.6016,-3.6016,-3.6016,-3.6016,-3.6016,-3.5605,-3.4922,-3.4082,-3.4082,-3.3828,-3.3418,-3.3418,-3.3418,-3.3418,-3.3418,-3.3418,-3.3418,-3.3418,-3.3418,-3.3418,-3.3398,-3.3398,-3.3398,-3.3398,-3.3398,-3.3398,-3.3418,-3.3125,-3.2401,-3.0699,-2.9887,-2.9217,-2.7889,-2.7274,-2.6663,-2.5524,-2.458,-2.3559,-2.1988,-2.1387,-2.1109,-2.1109,-2.1109,-2.1109,-2.1109,-2.1109,-2.1109,-2.1109,-2.1109,-2.1109,-2.1109,-2.1109,-2.1109,-2.1109,-2.1109,-2.1109,-2.1109,-2.1109,-2.1109,-2.1109,-2.1376,-2.1403,-2.1122,-2.139,-2.1403,-2.1122,-2.1109,-2.1109,-2.1109,-2.1109,-2.1109,-2.1109,-2.1109,-2.1109,-2.5723,-2.709,-2.8691,-3.043,-3.1934,-3.3262,-3.4297,-3.4746,-3.4785,-3.4199,-3.3047,-3.2031,-3.1601,-3.1269,-3.1406,-3.2422,-3.3535,-3.4375,-3.4668,-3.4961,-3.4629,-3.3184,-3.2871,0.0,0.0,0.0,0.0,-3.3769,-3.3711,-3.3945,-3.4668,-3.4844,-3.5078,-3.5391,-3.5527,-3.5742,-3.6016,-3.6016,-3.6016,-3.6016,-3.6016,-3.5879,-3.5586,-3.5137,-3.4609,-3.4062,-3.3769,-3.3555,-3.3418,-3.3418,-3.3418,-3.3418,-3.3418,-3.3418,-3.3418,-3.3418,-3.3418,-3.3379,-3.3105,-3.3008,-3.3008,-3.3008,-3.3008,-3.3066,-3.334,-3.2333,-3.0717,-2.9032,-2.8201,-2.749,-2.6241,-2.5735,-2.5539,-2.5411,-2.402,-2.2535,-2.1961,-2.1456,-2.1109,-2.1109,-2.1109,-2.1109,-2.1109,-2.1109,-2.1109,-2.1109,-2.1109,-2.1109,-2.1109,-2.1109,-2.1109,-2.1109,-2.1109,-2.1109,-2.1109,-2.1109,-2.1109,-2.1109,-2.1203,-2.1216,-2.1109,-2.1203,-2.1309,-2.1403,-2.1203,-2.1203,-2.1403,-2.1203,-2.1109,-2.1109,-2.1109,-2.1109,-2.6953,-2.8769,-3.0644,-3.2246,-3.3613,-3.4687,-3.5254,-3.5273,-3.4805,-3.3633,-3.2148,-3.082,-3.0098,-2.959,-2.9668,-3.082,-3.1953,-3.2949,-3.3691,-3.3926,-3.3711,-3.2891,-3.2519,-3.2187,0.0,0.0,0.0,-3.3144,-3.334,-3.373,-3.4434,-3.4609,-3.4922,-3.5371,-3.5547,-3.5742,-3.6016,-3.6016,-3.6016,-3.6016,-3.6016,-3.5703,-3.5137,-3.4844,-3.4375,-3.3828,-3.3535,-3.3418,-3.3418,-3.3418,-3.3418,-3.3418,-3.3418,-3.3418,-3.3418,-3.3418,-3.3019,-3.2518,-3.2918,-3.3008,-3.2883,-3.23,-3.2093,-3.2024,-3.1633,-3.0609,-2.9112,-2.7426,-2.6678,-2.6111,-2.4694,-2.4219,-2.4276,-2.4545,-2.3262,-2.1991,-2.1991,-2.1523,-2.1109,-2.1109,-2.1109,-2.1109,-2.1109,-2.1109,-2.1109,-2.1109,-2.1109,-2.1109,-2.1109,-2.1109,-2.1109,-2.1109,-2.1109,-2.1109,-2.1109,-2.1109,-2.1109,-2.1109,-2.1203,-2.1216,-2.1109,-2.1216,-2.1309,-2.139,-2.1203,-2.1203,-2.139,-2.1203,-2.1109,-2.1109,-2.1109,-2.1109,-2.9473,-3.0976,-3.2207,-3.4238,-3.5078,-3.541,-3.5371,-3.4941,-3.4101,-3.2422,-3.0976,-2.9629,0.0,0.0,-2.7871,-2.875,-2.9687,-3.0762,-3.2051,-3.1914,-3.1973,0.0,0.0,0.0,0.0,0.0,0.0,-3.2832,0.0,-3.3594,-3.4043,-3.4453,-3.4883,-3.5371,-3.5781,-3.5996,-3.6016,-3.6016,-3.6016,-3.6016,-3.6016,-3.5547,-3.4707,-3.4707,-3.4238,-3.3418,-3.3418,-3.3418,-3.3418,-3.3418,-3.3418,-3.3418,-3.3418,-3.3418,-3.3418,-3.3292,-3.2218,-3.1029,-3.2556,-3.3165,-3.2892,-3.1176,-3.0642,-3.0384,-2.8689,-2.818,-2.7701,-2.5987,-2.545,-2.4979,-2.3324,-2.2928,-2.2928,-2.2928,-2.2418,-2.1991,-2.1991,-2.1523,-2.1109,-2.1109,-2.1109,-2.1109,-2.1109,-2.1109,-2.1109,-2.1109,-2.1122,-2.1122,-2.1109,-2.1109,-2.1109,-2.1109,-2.1109,-2.1109,-2.1109,-2.1109,-2.1109,-2.1109,-2.1376,-2.1403,-2.1122,-2.1376,-2.1403,-2.1136,-2.1122,-2.1122,-2.1136,-2.1122,-2.1109,-2.1109,-2.1109,-2.1109,-3.0703,-3.2754,-3.4531,-3.5078,-3.5547,-3.5684,-3.5019,-3.3809,-3.2422,-3.0996,-2.8926,-2.7168,-2.6504,-2.6562,0.0,-2.8262,-3.0254,0.0,-3.2969,-3.3555,0.0,-3.332,0.0,-3.2851,-3.2656,-3.2637,0.0,0.0,-3.3262,-3.3281,-3.4023,-3.418,-3.459,-3.5371,-3.5488,-3.5703,-3.6016,-3.6016,-3.6016,-3.6016,-3.6016,-3.5547,-3.4707,-3.4707,-3.4238,-3.3418,-3.3418,-3.3418,-3.3418,-3.3418,-3.3418,-3.3418,-3.3418,-3.3418,-3.3228,-3.1963,-3.1176,-3.0707,-2.98,-2.954,-2.9474,-2.9017,-2.8886,-2.8755,-2.8295,-2.7238,-2.6105,-2.5651,-2.4588,-2.3461,-2.2996,-2.2928,-2.2928,-2.2928,-2.2418,-2.1991,-2.1991,-2.1523,-2.1109,-2.1109,-2.1109,-2.1109,-2.1109,-2.1109,-2.1109,-2.1109,-2.1296,-2.1363,-2.1136,-2.1109,-2.1109,-2.1109,-2.1109,-2.1109,-2.1109,-2.1109,-2.1109,-2.1109,-2.1176,-2.1189,-2.1109,-2.1189,-2.1296,-2.1443,-2.1229,-2.1216,-2.1443,-2.1216,-2.1109,-2.1109,-2.1109,-2.1109,-3.2461,-3.4121,-3.543,-3.5625,-3.5566,-3.5117,-3.3867,-3.2402,-3.0781,-2.8906,-2.707,-2.5625,-2.5,-2.5078,-2.5723,0.0,0.0,0.0,-3.2324,-3.2851,-3.3125,0.0,-3.3262,0.0,-3.334,-3.3359,-3.3633,0.0,-3.3555,-3.3535,-3.459,-3.4453,-3.4746,-3.5644,-3.5664,-3.5781,-3.6016,-3.6016,-3.6016,-3.6016,-3.6016,-3.5547,-3.4707,-3.4902,-3.4434,-3.3437,0.0,-3.3594,-3.3418,-3.3418,-3.3418,-3.3418,-3.3418,-3.2956,-3.2155,-3.1176,-2.9782,-2.8344,-2.737,-2.6506,-2.5987,-2.6773,-2.7039,-2.6839,-2.6121,-2.5181,-2.4385,-2.4385,-2.3665,-2.2928,-2.2928,-2.2928,-2.2928,-2.2928,-2.2512,-2.2178,-2.2178,-2.171,-2.1269,-2.1136,-2.1109,-2.1149,-2.1283,-2.1309,-2.1349,-2.147,-2.1523,-2.1561,-2.1323,-2.1309,-2.1309,-2.1309,-2.1189,-2.1162,-2.1296,-2.1189,-2.1109,-2.1109,-2.1109,-2.1109,-2.1109,-2.1109,-2.1189,-2.1349,-2.1323,-2.139,-2.1614,-2.139,-2.1309,-2.1296,-2.1162,-2.1109,-3.4316,-3.5254,-3.5723,-3.6035,-3.5351,-3.418,-3.248,-3.0937,-2.916,-2.6719,-2.5508,-2.4695,-2.3848,-2.3789,-2.4434,-2.6191,0.0,-2.8301,-3.1269,-3.1367,-3.1738,-3.332,-3.3125,-3.3223,-3.4082,-3.4101,-3.4297,-3.4824,-3.4082,-3.4082,-3.5234,-3.498,-3.5176,-3.5996,-3.6016,-3.6016,-3.6016,-3.6016,-3.6016,-3.6016,-3.5957,-3.5508,-3.4707,-3.5117,-3.4648,-3.3535,0.0,0.0,-3.3496,-3.3437,-3.3418,-3.3418,-3.3418,-3.2365,-3.0771,-3.0513,-2.8344,-2.545,-2.5248,-2.4196,-2.3133,-2.4655,-2.5181,-2.4858,-2.3324,-2.2928,-2.2928,-2.2928,-2.2928,-2.2928,-2.2928,-2.2928,-2.2928,-2.2928,-2.2632,-2.2418,-2.2418,-2.1991,-2.1601,-2.1269,-2.1229,-2.1309,-2.1628,-2.1681,-2.1762,-2.1951,-2.1777,-2.1655,-2.1614,-2.1588,-2.1574,-2.1614,-2.1323,-2.1283,-2.1655,-2.1376,-2.1229,-2.1229,-2.1189,-2.1162,-2.1162,-2.1136,-2.1122,-2.1162,-2.1416,-2.1641,-2.1681,-2.1641,-2.1614,-2.1614,-2.1243,-2.1109,-3.5391,-3.6367,-3.6894,-3.6621,-3.5351,-3.373,-3.2012,-2.9805,-2.763,-2.5732,-2.4609,-2.3848,-2.3296,-2.3828,-2.4883,-2.6621,-2.7851,-2.9531,-3.2207,-3.2519,-3.2832,0.0,-3.3574,-3.3652,-3.4512,-3.4277,0.0,0.0,0.0,-3.457,-3.4805,-3.5117,-3.5508,-3.5996,-3.6016,-3.6016,-3.6016,-3.6016,-3.6016,-3.6016,-3.5664,-3.5215,-3.4707,-3.4785,-3.4512,-3.3965,-3.4043,0.0,-3.3926,-3.3574,-3.3418,-3.3418,-3.3418,-3.2365,-3.0642,-2.9213,-2.7304,-2.5315,-2.3856,-2.3133,-2.2928,-2.3256,-2.3324,-2.3256,-2.2996,-2.2928,-2.2928,-2.2928,-2.2928,-2.2928,-2.2928,-2.2928,-2.2928,-2.2928,-2.2632,-2.2418,-2.2418,-2.2151,-2.1897,-2.1844,-2.183,-2.1844,-2.1897,-2.1911,-2.1924,-2.1977,-2.1937,-2.1817,-2.1655,-2.1336,-2.1283,-2.1588,-2.1574,-2.1655,-2.1884,-2.1857,-2.183,-2.183,-2.1603,-2.1534,-2.1534,-2.1243,-2.1229,-2.1534,-2.1588,-2.1735,-2.1911,-2.1735,-2.1614,-2.1614,-2.1243,-2.1109,-3.5996,-3.666,-3.6875,-3.6445,-3.4687,-3.2578,-3.0605,-2.8359,-2.6172,-2.4414,-2.373,-2.3379,-2.314,-2.3652,-2.4512,-2.5801,-2.6719,-2.8164,-3.0762,-3.1309,-3.1934,-3.3242,-3.3418,-3.375,-3.4609,-3.4512,-3.4844,0.0,0.0,-3.5391,-3.5391,-3.5605,-3.5801,-3.6016,-3.6016,-3.6016,-3.6016,-3.6016,-3.6016,-3.6016,-3.582,-3.5488,-3.5059,-3.5059,-3.4824,-3.4329,-3.3396,0.0,-3.3979,-3.2781,-3.2169,-3.2027,-3.2027,-3.0384,-2.7949,-2.7105,-2.5651,-2.406,-2.3201,-2.2928,-2.2928,-2.2928,-2.2928,-2.2928,-2.2928,-2.2928,-2.2928,-2.2928,-2.2928,-2.2928,-2.2928,-2.2928,-2.2928,-2.2928,-2.2752,-2.2605,-2.2458,-2.2311,-2.2164,-2.2017,-2.1991,-2.2031,-2.2178,-2.2205,-2.2271,-2.2418,-2.2178,-2.1991,-2.2004,-2.1617,-2.1456,-2.175,-2.1842,-2.1897,-2.2191,-2.2071,-2.1991,-2.1991,-2.1857,-2.1775,-2.1628,-2.148,-2.1403,-2.1614,-2.1762,-2.1924,-2.2205,-2.1924,-2.1842,-2.1764,-2.1323,-2.1109,-3.6191,-3.6601,-3.6543,-3.6016,-3.3945,-3.1465,-2.9277,-2.7129,-2.5089,-2.3432,-2.3101,-2.3101,-2.3101,-2.3418,-2.3965,-2.4949,-2.5449,-2.659,-2.9219,-3.0019,-3.0957,-3.2598,-3.3242,0.0,-3.4492,-3.4648,0.0,0.0,0.0,0.0,-3.6016,-3.6016,-3.6016,-3.6016,-3.6016,-3.6016,-3.6016,-3.6016,-3.5976,-3.5879,-3.5879,-3.5664,-3.5234,-3.5234,-3.5039,-3.4622,-3.2733,0.0,0.0,-3.145,-3.0478,-3.0254,-3.0254,-2.8279,-2.5517,-2.5517,-2.4385,-2.2928,-2.2928,-2.2928,-2.2928,-2.2928,-2.2928,-2.2928,-2.2928,-2.2928,-2.2928,-2.2928,-2.2928,-2.2928,-2.2928,-2.2928,-2.2928,-2.2928,-2.2928,-2.2806,-2.2565,-2.2512,-2.2445,-2.2218,-2.2178,-2.2245,-2.2472,-2.2512,-2.2592,-2.2887,-2.2418,-2.2164,-2.2392,-2.2017,-2.183,-2.2058,-2.2084,-2.2191,-2.2485,-2.2298,-2.2178,-2.2178,-2.2111,-2.1951,-2.1722,-2.1655,-2.1641,-2.1708,-2.1871,-2.2164,-2.2512,-2.2164,-2.1991,-2.1977,-2.1376,-2.1109,-3.582,-3.6367,-3.6465,-3.5644,-3.3496,-3.1016,-2.8848,-2.668,-2.4746,-2.3374,-2.3101,-2.3101,-2.3101,-2.314,-2.3613,-2.491,-2.5449,-2.659,-2.9219,-3.0293,-3.1309,-3.2637,0.0,0.0,-3.4121,-3.4473,0.0,0.0,0.0,0.0,-3.5996,-3.6016,-3.6016,-3.6016,-3.6016,-3.6016,-3.6016,-3.6016,-3.582,-3.5449,-3.5449,-3.5215,-3.4766,-3.4766,-3.4746,-3.4622,-3.2733,0.0,0.0,-2.9645,-2.8693,-2.8427,-2.8427,-2.7238,-2.5517,-2.5517,-2.4385,-2.2928,-2.2928,-2.2928,-2.2928,-2.2928,-2.2928,-2.2928,-2.2928,-2.2928,-2.2928,-2.2928,-2.2928,-2.2928,-2.2928,-2.2928,-2.2928,-2.2928,-2.2928,-2.2928,-2.2832,-2.2819,-2.2887,-2.2847,-2.2847,-2.2861,-2.2819,-2.2819,-2.2832,-2.2928,-2.2579,-2.2392,-2.2418,-2.2378,-2.2352,-2.2378,-2.2378,-2.2498,-2.2792,-2.2792,-2.2847,-2.2847,-2.2525,-2.2245,-2.1951,-2.1762,-2.1735,-2.1937,-2.1977,-2.2258,-2.2819,-2.2258,-2.1991,-2.1977,-2.1376,-2.1109,-3.4922,-3.5742,-3.6016,-3.4883,-3.2461,-2.9922,-2.8281,-2.6035,-2.4082,-2.3257,-2.3101,-2.3101,-2.3101,-2.3101,-2.3257,-2.3828,-2.4017,-2.4805,-2.6602,-2.7617,-2.8945,-3.0996,-3.2226,0.0,0.0,0.0,0.0,0.0,0.0,0.0,-3.5234,-3.5723,-3.5898,-3.5644,-3.5644,-3.5644,-3.5644,-3.5371,-3.5273,-3.5391,-3.5117,-3.5156,-3.5402,-3.3596,-3.2972,-3.3285,-3.002,0.0,0.0,-2.8068,-2.7128,-2.6869,-2.6651,-2.5517,-2.3924,-2.3924,-2.3529,-2.2928,-2.2928,-2.2928,-2.2928,-2.2928,-2.2928,-2.2928,-2.2928,-2.2928,-2.2928,-2.2928,-2.2928,-2.2928,-2.2928,-2.2928,-2.2928,-2.2928,-2.2928,-2.2928,-2.2928,-2.2928,-2.2928,-2.2928,-2.2928,-2.2928,-2.2928,-2.2928,-2.2928,-2.2928,-2.2605,-2.2485,-2.2659,-2.2525,-2.2485,-2.2672,-2.2686,-2.2726,-2.2914,-2.2928,-2.2928,-2.2928,-2.2752,-2.2472,-2.2004,-2.2044,-2.2044,-2.1991,-2.2164,-2.2365,-2.2592,-2.2191,-2.1897,-2.1775,-2.1296,-2.1109,-3.3868,-3.4938,-3.5448,-3.376,-3.1328,-2.9004,-2.7598,-2.5469,-2.3672,-2.3179,-2.3101,-2.3101,-2.3101,-2.3101,-2.3101,-2.3101,-2.3198,-2.3789,-2.5078,-2.6016,-2.7383,-2.9551,0.0,-3.2246,0.0,0.0,0.0,0.0,0.0,0.0,0.0,-3.5156,-3.5488,-3.5195,-3.5195,-3.5195,-3.5195,-3.4863,-3.4805,-3.5,-3.4805,-3.4961,-3.5343,-3.2662,-3.1757,-3.2079,0.0,0.0,0.0,-2.6359,-2.5432,-2.5042,-2.481,-2.3992,-2.2928,-2.2928,-2.2928,-2.2928,-2.2928,-2.2928,-2.2928,-2.2928,-2.2928,-2.2928,-2.2928,-2.2928,-2.2928,-2.2928,-2.2928,-2.2928,-2.2928,-2.2928,-2.2928,-2.2928,-2.2928,-2.2928,-2.2928,-2.2928,-2.2928,-2.2928,-2.2928,-2.2928,-2.2928,-2.2928,-2.2928,-2.2928,-2.2605,-2.2498,-2.2699,-2.2552,-2.2498,-2.2712,-2.2806,-2.2928,-2.2928,-2.2928,-2.2928,-2.2928,-2.2928,-2.2632,-2.2138,-2.2311,-2.2325,-2.2124,-2.2311,-2.2418,-2.2418,-2.2124,-2.1844,-2.1614,-2.1243,-2.1109,-3.2824,-3.4049,-3.4943,-3.2216,-3.0234,-2.8476,-2.6777,-2.5059,-2.3672,-2.3179,-2.3101,-2.3101,-2.3101,-2.3101,-2.3101,-2.3101,-2.3496,-2.4238,-2.5499,-2.6415,-2.748,0.0,0.0,-3.125,0.0,0.0,0.0,0.0,0.0,0.0,0.0,-3.4238,-3.4707,-3.4707,-3.4707,-3.4707,-3.4707,-3.4707,-3.4492,-3.4082,-3.4512,-3.4492,-3.4082,-3.2208,-3.1402,0.0,0.0,0.0,0.0,-2.4274,-2.3477,-2.2928,-2.2928,-2.2928,-2.2928,-2.2928,-2.2928,-2.2928,-2.2928,-2.2928,-2.2928,-2.2928,-2.2928,-2.2928,-2.2928,-2.2928,-2.2928,-2.2928,-2.2928,-2.2928,-2.2928,-2.2928,-2.2928,-2.2928,-2.2928,-2.2928,-2.2928,-2.2928,-2.2928,-2.2928,-2.2928,-2.2928,-2.2928,-2.2928,-2.2928,-2.2928,-2.2605,-2.2418,-2.2418,-2.2418,-2.2418,-2.2418,-2.2686,-2.2928,-2.2928,-2.2928,-2.2928,-2.2928,-2.2928,-2.2726,-2.2432,-2.2418,-2.2418,-2.2418,-2.2418,-2.2418,-2.2418,-2.2124,-2.1844,-2.1614,-2.1243,-2.1109,-3.0527,-3.1249,-3.1634,-2.9451,-2.7812,-2.6523,-2.5684,-2.4375,-2.3257,-2.312,-2.3101,-2.3101,-2.3101,-2.3101,-2.3198,-2.3535,-2.3691,-2.4043,0.0,0.0,0.0,-2.873,-3.1367,-3.3164,0.0,0.0,0.0,0.0,0.0,0.0,0.0,-3.3672,-3.3965,-3.4258,-3.4277,-3.4277,-3.4277,-3.3984,-3.3906,-3.4062,-3.269,-3.2255,-3.2596,-2.9027,0.0,0.0,0.0,0.0,0.0,-2.359,-2.3354,-2.3153,-2.2939,-2.2928,-2.2928,-2.2928,-2.2928,-2.2928,-2.2928,-2.2928,-2.2928,-2.2928,-2.2928,-2.2928,-2.2928,-2.2928,-2.2928,-2.2928,-2.2928,-2.2928,-2.2928,-2.2928,-2.2928,-2.2928,-2.2928,-2.2928,-2.2928,-2.2928,-2.2928,-2.2928,-2.2928,-2.2928,-2.2928,-2.2928,-2.2928,-2.2928,-2.2605,-2.2485,-2.2699,-2.2539,-2.2498,-2.2699,-2.2806,-2.2928,-2.2928,-2.2928,-2.2928,-2.2928,-2.2928,-2.2726,-2.2432,-2.2619,-2.2619,-2.2418,-2.2619,-2.2619,-2.2418,-2.2325,-2.2031,-2.1614,-2.1243,-2.1109,-2.9219,-2.9835,-3.0179,-2.7807,-2.6328,-2.5371,-2.4922,-2.3945,-2.3101,-2.3101,-2.3101,-2.3101,-2.3101,-2.3101,-2.3179,-2.3496,-2.3535,-2.3809,0.0,0.0,0.0,-2.916,0.0,0.0,0.0,0.0,0.0,0.0,0.0,0.0,0.0,-3.3418,-3.3476,-3.3594,-3.375,-3.3828,-3.3828,-3.3555,-3.3218,-3.2827,-3.1433,-3.0716,-3.0516,-2.7095,0.0,0.0,0.0,0.0,0.0,-2.3273,-2.326,-2.314,-2.2939,-2.2928,-2.2928,-2.2928,-2.2928,-2.2928,-2.2928,-2.2928,-2.2928,-2.2928,-2.2928,-2.2928,-2.2928,-2.2928,-2.2928,-2.2928,-2.2928,-2.2928,-2.2928,-2.2928,-2.2928,-2.2928,-2.2928,-2.2928,-2.2928,-2.2928,-2.2928,-2.2928,-2.2928,-2.2928,-2.2928,-2.2928,-2.2928,-2.2928,-2.2512,-2.2365,-2.2659,-2.2432,-2.2365,-2.2659,-2.2792,-2.2928,-2.2928,-2.2928,-2.2928,-2.2928,-2.2928,-2.2779,-2.2592,-2.2766,-2.2779,-2.2592,-2.2766,-2.2712,-2.2418,-2.2205,-2.1964,-2.171,-2.1416,-2.1336,0.0,-2.9484,-2.9899,-2.6921,-2.5547,-2.4824,-2.4414,-2.3666,0.0,-2.3101,-2.3101,-2.3101,-2.314,-2.312,-2.312,-2.3179,-2.3179,-2.3672,0.0,-2.5996,0.0,0.0,0.0,0.0,0.0,0.0,0.0,0.0,0.0,0.0,0.0,-3.334,-3.3144,-3.2754,-3.3125,-3.332,-3.332,-3.3194,-3.2334,-3.0699,-3.0459,-2.9535,-2.79,-2.606,0.0,0.0,0.0,0.0,0.0,-2.3166,-2.3126,-2.2928,-2.2928,-2.2928,-2.2928,-2.2928,-2.2928,-2.2928,-2.2928,-2.2928,-2.2928,-2.2928,-2.2928,-2.2928,-2.2928,-2.2928,-2.2928,-2.2928,-2.2928,-2.2928,-2.2928,-2.2928,-2.2928,-2.2928,-2.2928,-2.2928,-2.2928,-2.2928,-2.2928,-2.2928,-2.2928,-2.2928,-2.2928,-2.2928,-2.2928,-2.2928,-2.2378,-2.2124,-2.2418,-2.2191,-2.2124,-2.2418,-2.2699,-2.2928,-2.2928,-2.2914,-2.2846,-2.2928,-2.2914,-2.2914,-2.2928,-2.2928,-2.2928,-2.2928,-2.2928,-2.2726,-2.2445,-2.1871,-2.1802,-2.2004,-2.1762,-2.171,-2.9231,0.0,-2.6975,-2.4491,-2.3705,-2.353,0.0,-2.3237,-2.3101,-2.3101,-2.3101,-2.3198,-2.3574,-2.3315,-2.3315,-2.4004,-2.4075,-2.4453,-2.5449,0.0,0.0,0.0,0.0,0.0,0.0,0.0,0.0,0.0,0.0,0.0,0.0,-3.2637,-3.2422,-3.2324,-3.2422,-3.2461,-3.2461,-3.1232,-3.0387,-2.9932,-2.7322,-2.5859,-2.5421,-2.3847,0.0,0.0,0.0,0.0,-2.2552,-2.2846,-2.2926,-2.2928,-2.2928,-2.2928,-2.2928,-2.2928,-2.2928,-2.2928,-2.2928,-2.2928,-2.2928,-2.2928,-2.2928,-2.2928,-2.2928,-2.2928,-2.2928,-2.2928,-2.2928,-2.2928,-2.2928,-2.2928,-2.2928,-2.2928,-2.2928,-2.2928,-2.2928,-2.2928,-2.2928,-2.2928,-2.2928,-2.2928,-2.2928,-2.2928,-2.2928,-2.2928,-2.2552,-2.2418,-2.2712,-2.2498,-2.2432,-2.2726,-2.2819,-2.2928,-2.2928,-2.2659,-2.2619,-2.2846,-2.2645,-2.2619,-2.2914,-2.2928,-2.2928,-2.2928,-2.2928,-2.2832,-2.2752,-2.2164,-2.2031,-2.2298,-2.179,-2.171,-2.9694,-2.7939,-2.6069,-2.4296,-2.3474,-2.3101,-2.3101,-2.3101,-2.3101,-2.3101,-2.3101,-2.3159,-2.3437,-2.3257,-2.3315,-2.4023,-2.4297,0.0,0.0,0.0,0.0,0.0,0.0,0.0,0.0,0.0,0.0,0.0,0.0,0.0,0.0,-3.2285,-3.207,-3.1875,-3.1875,-3.1973,-3.2229,-3.0562,-2.9288,-2.8477,-2.5865,-2.4157,-2.3392,-2.2602,-2.2138,0.0,0.0,0.0,-2.2231,-2.2392,-2.2458,-2.2472,-2.2605,-2.2659,-2.2659,-2.2659,-2.2739,-2.2887,-2.2552,-2.2458,-2.2498,-2.2847,-2.2766,-2.2686,-2.2819,-2.2928,-2.2928,-2.2928,-2.2928,-2.2928,-2.2928,-2.2928,-2.2928,-2.2928,-2.2928,-2.2928,-2.2928,-2.2928,-2.2928,-2.2928,-2.2928,-2.2928,-2.2928,-2.2928,-2.2928,-2.2928,-2.2605,-2.2525,-2.2887,-2.2605,-2.2539,-2.2832,-2.2928,-2.2928,-2.2928,-2.2592,-2.2539,-2.2914,-2.2712,-2.2699,-2.2928,-2.2928,-2.2928,-2.2928,-2.2928,-2.2792,-2.2659,-2.2338,-2.2258,-2.2405,-2.2098,-2.2111,-3.0288,-2.8509,-2.6509,-2.5147,-2.3953,-2.3101,-2.3101,-2.3101,-2.3101,-2.3101,-2.3256,-2.3319,-2.3223,-2.3413,0.0,0.0,0.0,0.0,0.0,0.0,0.0,0.0,0.0,0.0,0.0,0.0,0.0,0.0,0.0,0.0,0.0,-3.2012,-3.1797,-3.1426,-3.1169,-3.1223,-3.1651,-2.999,-2.8286,-2.6547,-2.4894,-2.3314,-2.1857,-2.1897,-2.1897,0.0,0.0,0.0,-2.1924,-2.1964,-2.1991,-2.2004,-2.2258,-2.2352,-2.2352,-2.2352,-2.2512,-2.2659,-2.2151,-2.1991,-2.2071,-2.2619,-2.2619,-2.2472,-2.2779,-2.2928,-2.2928,-2.2928,-2.2928,-2.2928,-2.2928,-2.2928,-2.2928,-2.2928,-2.2928,-2.2928,-2.2928,-2.2928,-2.2928,-2.2928,-2.2928,-2.2928,-2.2928,-2.2928,-2.2928,-2.2928,-2.2645,-2.2579,-2.2832,-2.2645,-2.2579,-2.2832,-2.2928,-2.2928,-2.2928,-2.2632,-2.2592,-2.2846,-2.2819,-2.2887,-2.2928,-2.2928,-2.2928,-2.2928,-2.2928,-2.2739,-2.2485,-2.2445,-2.2445,-2.2485,-2.2445,-2.2579,-3.1223,-2.9869,-2.7934,-2.5422,-2.3953,-2.3101,-2.3101,-2.3101,-2.3101,-2.3101,-2.3887,-2.4376,-2.3791,-2.4775,-2.5476,0.0,0.0,0.0,0.0,0.0,0.0,0.0,0.0,0.0,0.0,0.0,0.0,0.0,0.0,0.0,0.0,-3.1289,-3.1055,-3.0996,-2.9624,-2.8911,-2.8966,-2.7367,-2.572,-2.4098,-2.2419,-2.1497,-2.1256,-2.151,-2.1483,0.0,0.0,-2.1844,-2.1708,-2.1884,-2.1991,-2.1991,-2.2031,-2.2044,-2.2044,-2.2044,-2.2084,-2.2111,-2.2017,-2.1991,-2.2044,-2.2378,-2.2458,-2.2472,-2.2779,-2.2928,-2.2928,-2.2928,-2.2928,-2.2928,-2.2928,-2.2928,-2.2928,-2.2928,-2.2928,-2.2928,-2.2928,-2.2928,-2.2928,-2.2928,-2.2928,-2.2928,-2.2928,-2.2928,-2.2928,-2.2928,-2.2887,-2.2806,-2.2928,-2.2887,-2.2806,-2.2859,-2.2928,-2.2928,-2.2928,-2.2819,-2.2887,-2.2928,-2.2619,-2.2605,-2.2914,-2.2928,-2.2928,-2.2928,-2.2928,-2.2846,-2.2792,-2.2539,-2.2552,-2.2792,-2.2539,-2.2579,-3.106,-2.9747,-2.8028,-2.6174,-2.5061,-2.4213,-2.3315,-2.3276,-2.3595,-2.3927,-2.4294,-2.4593,-2.4642,0.0,-2.6172,-2.7035,0.0,0.0,0.0,0.0,0.0,0.0,0.0,0.0,0.0,0.0,0.0,0.0,0.0,0.0,0.0,0.0,-3.045,-2.9589,-2.8783,-2.7572,-2.5818,-2.5085,-2.4363,-2.3574,-2.1915,-2.1109,-2.1109,-2.1256,-2.1243,-2.1122,0.0,-2.143,-2.1323,-2.1456,-2.151,-2.1523,-2.1683,-2.175,-2.1764,-2.1924,-2.179,-2.1563,-2.1871,-2.1777,-2.159,-2.2044,-2.2084,-2.2004,-2.2298,-2.2498,-2.2619,-2.2619,-2.2739,-2.2928,-2.2928,-2.2928,-2.2928,-2.2928,-2.2928,-2.2928,-2.2928,-2.2928,-2.2928,-2.2928,-2.2928,-2.2928,-2.2928,-2.2928,-2.2928,-2.2928,-2.2928,-2.2928,-2.2928,-2.2928,-2.2928,-2.2928,-2.2928,-2.2928,-2.2928,-2.2928,-2.2928,-2.2928,-2.2739,-2.2712,-2.2928,-2.2928,-2.2928,-2.2928,-2.2928,-2.2779,-2.2619,-2.2645,-2.2645,-2.2619,-2.2819,-2.2979,-3.0733,-2.9662,-2.8371,-2.7203,-2.6143,-2.5095,-2.3841,-2.3848,-2.4335,-2.5173,-2.528,-2.5265,0.0,-2.5764,0.0,-2.8613,0.0,0.0,0.0,0.0,0.0,0.0,0.0,0.0,0.0,0.0,0.0,0.0,0.0,0.0,0.0,0.0,-2.9726,-2.8426,-2.7692,-2.6122,-2.3636,-2.3201,-2.3014,-2.3014,-2.1727,-2.1109,-2.1109,-2.1109,-2.1109,-2.1109,-2.1109,-2.1109,-2.1109,-2.1109,-2.1109,-2.1136,-2.1363,-2.1443,-2.1534,-2.1697,-2.1496,-2.1176,-2.163,-2.1483,-2.1189,-2.171,-2.1802,-2.1668,-2.1897,-2.2191,-2.2418,-2.2418,-2.2632,-2.2928,-2.2928,-2.2928,-2.2928,-2.2928,-2.2928,-2.2928,-2.2928,-2.2928,-2.2928,-2.2928,-2.2928,-2.2928,-2.2928,-2.2928,-2.2928,-2.2928,-2.2928,-2.2886,-2.2966,-2.2966,-2.2993,-2.3073,-2.302,-2.2939,-2.2941,-2.2928,-2.2928,-2.2928,-2.2928,-2.2928,-2.2928,-2.2928,-2.2928,-2.2928,-2.2928,-2.2752,-2.2525,-2.2752,-2.2779,-2.2645,-2.3113,-2.3367,-3.0633,-3.0503,-3.005,-2.8387,-2.6419,-2.4863,-2.4927,-2.4988,-2.536,-2.6584,-2.7319,-2.7303,-2.5954,-2.6378,-2.7363,-2.8691,0.0,0.0,0.0,0.0,0.0,0.0,0.0,0.0,0.0,0.0,0.0,0.0,0.0,0.0,0.0,0.0,0.0,-2.8426,-2.5513,-2.3822,-2.3574,-2.2041,-2.1299,-2.1299,-2.1172,-2.1109,-2.1109,-2.1109,-2.1109,-2.1109,-2.1109,-2.1109,-2.1109,-2.1109,-2.1109,-2.1109,-2.1136,-2.1149,-2.1149,-2.1162,-2.1149,-2.1122,-2.1162,-2.1149,-2.1162,-2.1483,-2.1641,-2.1668,-2.1897,-2.2191,-2.2418,-2.2418,-2.2632,-2.2928,-2.2928,-2.2928,-2.2928,-2.2928,-2.2928,-2.2928,-2.2928,-2.2928,-2.2928,-2.2928,-2.2928,-2.2928,-2.2928,-2.2928,-2.2928,-2.2928,-2.2928,-2.2966,-2.326,-2.33,-2.3394,-2.3674,-2.346,-2.318,-2.2886,-2.2928,-2.2928,-2.2928,-2.2928,-2.2928,-2.2928,-2.2928,-2.2928,-2.2928,-2.2928,-2.2914,-2.2832,-2.2914,-2.3006,-2.326,-2.33,-2.3474,-3.0206,-3.0357,-3.0179,-2.8507,-2.7714,-2.7115,-2.6314,-2.6323,-2.6751,-2.7496,-2.7935,-2.7998,-2.7395,0.0,-2.8223,0.0,0.0,0.0,0.0,0.0,0.0,0.0,0.0,0.0,0.0,0.0,0.0,0.0,0.0,0.0,0.0,0.0,0.0,-2.4909,-2.3669,-2.264,-2.181,-2.114,-2.0842,-2.0842,-2.1029,-2.1109,-2.1109,-2.1109,-2.1109,-2.1109,-2.1109,-2.1109,-2.1109,-2.1109,-2.1109,-2.1109,-2.1109,-2.1109,-2.1109,-2.1109,-2.1109,-2.1109,-2.1109,-2.1109,-2.1122,-2.1243,-2.1269,-2.1296,-2.1403,-2.1643,-2.1924,-2.2098,-2.2365,-2.2632,-2.2887,-2.2928,-2.2928,-2.2928,-2.2928,-2.2928,-2.2928,-2.2928,-2.2928,-2.2928,-2.2928,-2.2928,-2.2928,-2.2928,-2.2928,-2.2928,-2.2928,-2.2979,-2.3287,-2.3327,-2.3447,-2.3741,-2.3674,-2.3487,-2.318,-2.3153,-2.3073,-2.2941,-2.2928,-2.2928,-2.2928,-2.2928,-2.2928,-2.2928,-2.2928,-2.2928,-2.2928,-2.306,-2.3207,-2.334,-2.3701,-2.3928,-2.9955,-3.0055,-3.0059,-2.8904,-2.9157,-2.9487,-2.8696,-2.8524,-2.8576,-2.884,-2.8608,-2.8301,-2.8301,0.0,0.0,0.0,0.0,0.0,0.0,0.0,0.0,0.0,0.0,0.0,0.0,0.0,0.0,0.0,0.0,0.0,0.0,0.0,0.0,0.0,-2.2185,-2.1459,-2.0535,-2.0535,-2.0535,-2.0535,-2.0735,-2.0882,-2.0975,-2.1069,-2.1109,-2.1109,-2.1109,-2.1109,-2.1109,-2.1109,-2.1109,-2.1109,-2.1109,-2.1109,-2.1109,-2.1109,-2.1109,-2.1109,-2.1109,-2.1109,-2.1109,-2.1109,-2.1109,-2.1109,-2.1109,-2.1376,-2.1724,-2.1937,-2.2258,-2.2605,-2.2806,-2.2928,-2.2928,-2.2928,-2.2928,-2.2928,-2.2928,-2.2928,-2.2928,-2.2928,-2.2928,-2.2928,-2.2928,-2.2928,-2.2928,-2.2928,-2.2939,-2.3126,-2.3434,-2.3541,-2.3688,-2.3888,-2.3915,-2.3754,-2.3367,-2.3327,-2.3193,-2.2954,-2.2928,-2.2928,-2.2928,-2.2928,-2.2928,-2.2928,-2.2928,-2.2913,-2.3006,-2.322,-2.342,-2.3607,-2.4022,-2.4249,-2.993,-2.9804,-2.9804,-2.9804,-3.0608,-3.1588,-3.2339,-3.1687,-3.088,-3.0903,-2.9512,-2.8301,-2.8301,-2.8301,0.0,0.0,0.0,0.0,0.0,0.0,0.0,0.0,0.0,0.0,0.0,0.0,0.0,0.0,0.0,0.0,0.0,0.0,0.0,0.0,-2.1046,-2.0167,-2.0227,-2.0227,-2.0227,-2.0227,-2.0167,-2.0388,-2.0681,-2.0975,-2.1109,-2.1109,-2.1109,-2.1109,-2.1109,-2.1109,-2.1109,-2.1109,-2.1109,-2.1109,-2.1109,-2.1109,-2.1109,-2.1109,-2.1109,-2.1109,-2.1109,-2.1109,-2.1109,-2.1109,-2.1109,-2.151,-2.1977,-2.1991,-2.2405,-2.2928,-2.2928,-2.2928,-2.2928,-2.2928,-2.2928,-2.2928,-2.2928,-2.2928,-2.2928,-2.2928,-2.2928,-2.2928,-2.2928,-2.2928,-2.2928,-2.2928,-2.3126,-2.3434,-2.3741,-2.4022,-2.4209,-2.4209,-2.4209,-2.3968,-2.338,-2.3327,-2.3193,-2.2954,-2.2928,-2.2928,-2.2928,-2.2928,-2.2928,-2.2928,-2.2928,-2.302,-2.3327,-2.334,-2.3634,-2.4209,-2.4209,-2.4369,-2.9829,-3.008,-3.0357,-3.0357,-3.1185,-3.2134,-3.2886,-3.2096,-3.1012,-3.0525,-2.9746,-2.9199,-2.9199,-2.9199,0.0,0.0,0.0,0.0,0.0,0.0,0.0,0.0,0.0,0.0,0.0,0.0,0.0,0.0,0.0,0.0,0.0,0.0,0.0,0.0,-1.9906,-1.972,-1.992,-1.9933,-1.9933,-1.9933,-2.0134,-2.0281,-2.0374,-2.0668,-2.0802,-2.0815,-2.1015,-2.1109,-2.1109,-2.1109,-2.1109,-2.1109,-2.1109,-2.1109,-2.1109,-2.1109,-2.1109,-2.1109,-2.1109,-2.1109,-2.1109,-2.1109,-2.1109,-2.1109,-2.1109,-2.1229,-2.1456,-2.1871,-2.2111,-2.2338,-2.2752,-2.2928,-2.2928,-2.2928,-2.2928,-2.2928,-2.2928,-2.2928,-2.2928,-2.2928,-2.2928,-2.2928,-2.2928,-2.2928,-2.2939,-2.3153,-2.326,-2.3514,-2.4008,-2.4329,-2.4502,-2.4502,-2.4502,-2.4275,-2.3688,-2.3634,-2.342,-2.2968,-2.3073,-2.3086,-2.2941,-2.2928,-2.2928,-2.2928,-2.3073,-2.3233,-2.3327,-2.3741,-2.4035,-2.4209,-2.4409,-2.4556,-2.9854,-3.0206,-3.0658,-3.0859,-3.1913,-3.292,-3.3118,-3.2571,-3.1881,-3.1442,-3.0413,-2.9685,-2.9785,-2.9687,0.0,0.0,0.0,0.0,0.0,0.0,0.0,0.0,0.0,0.0,0.0,0.0,0.0,0.0,0.0,0.0,0.0,0.0,0.0,0.0,-1.943,-1.9511,-1.9626,-1.9626,-1.9626,-1.9626,-1.98,-1.9893,-1.9907,-2.0307,-2.0494,-2.0521,-2.0802,-2.0935,-2.0949,-2.1069,-2.1109,-2.1109,-2.1109,-2.1109,-2.1109,-2.1109,-2.1109,-2.1109,-2.1109,-2.1109,-2.1109,-2.1109,-2.1109,-2.1109,-2.1109,-2.1269,-2.1537,-2.1884,-2.2151,-2.2418,-2.2834,-2.2928,-2.2928,-2.2928,-2.2928,-2.2928,-2.2928,-2.2928,-2.2928,-2.2928,-2.2928,-2.2928,-2.2928,-2.2928,-2.2926,-2.3113,-2.3354,-2.3714,-2.4302,-2.4529,-2.4636,-2.4636,-2.4636,-2.4449,-2.3981,-2.3834,-2.3621,-2.3247,-2.3287,-2.33,-2.322,-2.3289,-2.3289,-2.3289,-2.3407,-2.3554,-2.3674,-2.4035,-2.4262,-2.4382,-2.4556,-2.4636,-2.993,-3.0206,-3.0758,-3.1336,-3.2792,-3.3945,-3.3174,-3.3095,-3.3121,-3.2839,0.0,-2.9687,-3.0078,-2.9863,0.0,0.0,0.0,0.0,0.0,0.0,0.0,0.0,0.0,0.0,0.0,0.0,0.0,0.0,0.0,0.0,0.0,0.0,0.0,0.0,-1.935,-1.935,-1.935,-1.935,-1.935,0.0,-1.935,-1.9305,-1.9345,-1.9933,-2.0214,-2.0254,-2.0521,-2.0655,-2.0695,-2.0935,-2.1056,-2.1109,-2.1082,-2.1082,-2.1109,-2.1109,-2.1109,-2.1109,-2.1109,-2.1109,-2.1109,-2.1109,-2.1109,-2.1109,-2.1109,-2.1483,-2.1911,-2.1964,-2.2365,-2.2792,-2.2914,-2.2928,-2.2928,-2.2928,-2.2928,-2.2928,-2.2928,-2.2928,-2.2928,-2.2928,-2.2928,-2.2928,-2.2928,-2.2928,-2.2954,-2.3008,-2.3434,-2.4008,-2.4569,-2.4636,-2.4636,-2.4636,-2.4636,-2.4502,-2.4195,-2.3928,-2.3754,-2.3728,-2.35,-2.35,-2.3794,-2.3781,-2.3768,-2.3768,-2.3794,-2.3941,-2.4209,-2.4222,-2.4382,-2.4636,-2.4636,-2.4636,-2.9829,-3.0206,-3.0834,-3.1788,-3.3947,-3.5371,-3.3452,-3.3368,-3.2998,-3.0812,-2.9967,-2.9646,-2.9687,0.0,0.0,0.0,0.0,0.0,0.0,0.0,0.0,0.0,0.0,0.0,0.0,0.0,0.0,0.0,0.0,0.0,0.0,0.0,0.0,-1.8691,-1.8677,-1.8677,-1.8677,-1.8677,-1.8677,0.0,-1.8677,-1.8798,-1.9038,-1.9626,-2.0013,-2.018,-2.0294,-2.0468,-2.0655,-2.0494,-2.0695,-2.1082,-2.0855,-2.0909,-2.1109,-2.1109,-2.1109,-2.1109,-2.1109,-2.1109,-2.1109,-2.1109,-2.1109,-2.1109,-2.1109,-2.1203,-2.139,-2.1857,-2.2071,-2.2285,-2.2807,-2.2928,-2.2928,-2.2928,-2.2928,-2.2928,-2.2928,-2.2928,-2.2928,-2.2928,-2.2928,-2.2928,-2.2928,-2.2928,-2.302,-2.3571,-2.3888,-2.4235,-2.4596,-2.4636,-2.4636,-2.4636,-2.4636,-2.4422,-2.3915,-2.3808,-2.3674,-2.3434,-2.3581,-2.3808,-2.4102,-2.3888,-2.3768,-2.3768,-2.3995,-2.4142,-2.4209,-2.4436,-2.4569,-2.4636,-2.4636,-2.4636,-3.0181,-3.0407,-3.1009,-3.2616,0.0,-3.5885,-3.4,-3.3526,-3.2831,-3.0355,-2.9699,-2.9626,0.0,0.0,0.0,0.0,0.0,0.0,0.0,0.0,0.0,0.0,0.0,0.0,0.0,0.0,0.0,0.0,0.0,0.0,0.0,-1.8718,-1.8651,-1.849,-1.849,-1.849,-1.849,-1.849,-1.849,-1.849,-1.849,-1.8637,-1.8945,-1.9386,-1.9679,-1.9826,-1.996,-2.0107,-2.0254,-2.0241,-2.0414,-2.0695,-2.0681,-2.0775,-2.0922,-2.1056,-2.1109,-2.1109,-2.1109,-2.1109,-2.1109,-2.1109,-2.1109,-2.1109,-2.1109,-2.1203,-2.1416,-2.1857,-2.1991,-2.2124,-2.2712,-2.2752,-2.2686,-2.2832,-2.2928,-2.2928,-2.2928,-2.2928,-2.2928,-2.2928,-2.2928,-2.2928,-2.2928,-2.2993,-2.3193,-2.3514,-2.3928,-2.4262,-2.4409,-2.4436,-2.4436,-2.4436,-2.4436,-2.4302,-2.4008,-2.3848,-2.3821,-2.3941,-2.3834,-2.3968,-2.4396,-2.4262,-2.4182,-2.4182,-2.4329,-2.4409,-2.4409,-2.4569,-2.4636,-2.4636,-2.4636,-2.4716,-3.0528,-3.0683,-3.1235,-3.3244,-3.4851,0.0,-3.3979,-3.3174,-3.2192,-3.0005,-2.9407,0.0,0.0,0.0,0.0,0.0,0.0,0.0,0.0,0.0,0.0,0.0,0.0,0.0,0.0,0.0,0.0,0.0,0.0,0.0,-1.8437,-1.841,-1.8384,-1.833,-1.833,-1.833,-1.833,-1.833,-1.833,-1.833,-1.8384,-1.8544,-1.8784,-1.9078,-1.9279,-1.9386,-1.9626,-1.976,-1.9813,-2.0,-2.0147,-2.0254,-2.0508,-2.0628,-2.0708,-2.1002,-2.1109,-2.1109,-2.1109,-2.1109,-2.1109,-2.1109,-2.1109,-2.1109,-2.1109,-2.1283,-2.1601,-2.183,-2.1951,-2.2098,-2.2646,-2.2565,-2.2472,-2.2659,-2.2752,-2.2806,-2.2914,-2.2928,-2.2928,-2.2928,-2.2928,-2.2928,-2.2928,-2.3073,-2.326,-2.3313,-2.3741,-2.4075,-2.4115,-2.4128,-2.4155,-2.4195,-2.4209,-2.4182,-2.4128,-2.3915,-2.3981,-2.4449,-2.4035,-2.4035,-2.4609,-2.4636,-2.4636,-2.4636,-2.469,-2.469,-2.4636,-2.469,-2.4716,-2.4716,-2.4716,-2.4877,-3.0303,0.0,-3.1587,0.0,-3.3721,-3.374,0.0,0.0,-3.0482,0.0,0.0,0.0,0.0,0.0,0.0,0.0,0.0,0.0,0.0,0.0,0.0,0.0,0.0,0.0,0.0,0.0,0.0,0.0,0.0,0.0,-1.8062,-1.8049,-1.7983,-1.7716,-1.7702,-1.7702,-1.7702,-1.7702,-1.7702,-1.7702,-1.7983,-1.8075,-1.8115,-1.8477,-1.8891,-1.943,-1.947,-1.9573,-1.9786,-1.9573,-1.9773,-2.018,-2.0281,-2.0454,-2.0708,-2.1002,-2.1109,-2.1109,-2.1109,-2.1109,-2.1109,-2.1109,-2.1109,-2.1109,-2.1109,-2.1136,-2.1229,-2.1588,-2.179,-2.2004,-2.2084,-2.2258,-2.2365,-2.2151,-2.2298,-2.2552,-2.2806,-2.2928,-2.2928,-2.2928,-2.2928,-2.2928,-2.2928,-2.2899,-2.302,-2.3287,-2.3394,-2.3541,-2.3794,-2.3834,-2.3928,-2.4182,-2.4209,-2.4102,-2.3848,-2.3794,-2.3808,-2.3888,-2.3808,-2.4035,-2.4609,-2.4636,-2.4636,-2.4636,-2.489,-2.489,-2.4636,-2.489,-2.5024,-2.5024,-2.5024,-2.517,-2.999,-3.0306,-3.0758,0.0,-3.2315,-3.219,-3.1008,0.0,-2.9811,0.0,0.0,0.0,0.0,0.0,0.0,0.0,0.0,0.0,0.0,0.0,0.0,0.0,0.0,0.0,0.0,0.0,0.0,0.0,0.0,-1.8036,-1.7569,-1.7542,-1.7408,-1.7101,-1.7088,-1.7088,-1.7088,-1.7088,-1.7168,-1.7393,-1.7649,-1.7822,-1.8009,-1.8357,-1.8637,-1.8891,-1.9052,-1.9199,-1.9305,-1.9345,-1.9519,-1.9773,-2.0107,-2.0307,-2.0481,-2.0935,-2.1109,-2.1109,-2.1109,-2.1109,-2.1109,-2.1109,-2.1109,-2.1109,-2.1109,-2.1109,-2.1176,-2.1534,-2.1523,-2.1563,-2.1897,-2.1964,-2.1977,-2.2178,-2.2325,-2.2498,-2.2806,-2.2928,-2.2928,-2.2928,-2.2928,-2.2928,-2.2928,-2.3006,-2.3113,-2.3073,-2.3354,-2.3567,-2.3527,-2.3527,-2.3567,-2.3701,-2.3861,-2.3915,-2.3781,-2.3915,-2.4075,-2.4249,-2.4102,-2.4195,-2.4549,-2.4636,-2.4636,-2.4636,-2.493,-2.493,-2.4636,-2.493,-2.4997,-2.4836,-2.4836,-2.5077,-2.9795,0.0,-3.0005,-3.0959,-3.1185,-3.0984,0.0,0.0,0.0,0.0,0.0,0.0,0.0,0.0,0.0,0.0,0.0,0.0,0.0,0.0,0.0,0.0,0.0,0.0,0.0,0.0,0.0,0.0,0.0,-1.7502,-1.7112,-1.7085,-1.6941,-1.6714,-1.67,-1.67,-1.67,-1.67,-1.682,-1.7085,-1.7261,-1.7515,-1.7822,-1.805,-1.8196,-1.8277,-1.8731,-1.8918,-1.8945,-1.9239,-1.943,-1.947,-1.992,-2.0174,-2.0233,-2.0815,-2.1042,-2.1109,-2.1109,-2.1109,-2.1109,-2.1109,-2.1109,-2.1109,-2.1109,-2.1109,-2.1162,-2.1376,-2.1336,-2.1309,-2.167,-2.1657,-2.1722,-2.2098,-2.2258,-2.2405,-2.2779,-2.2928,-2.2928,-2.2928,-2.2928,-2.2928,-2.2928,-2.306,-2.3126,-2.2899,-2.3247,-2.346,-2.3233,-2.3207,-2.3233,-2.3313,-2.3527,-2.3688,-2.3768,-2.3968,-2.4222,-2.4502,-2.4329,-2.4329,-2.4623,-2.4636,-2.4636,-2.4636,-2.493,-2.493,-2.4636,-2.501,-2.5077,-2.4863,-2.4943,-2.5251,0.0,-2.9804,0.0,-3.0507,-3.0658,-3.0195,0.0,0.0,0.0,0.0,0.0,0.0,0.0,0.0,0.0,0.0,0.0,0.0,0.0,0.0,0.0,0.0,0.0,0.0,0.0,0.0,0.0,0.0,0.0,-1.6767,-1.6727,-1.6727,-1.6727,-1.67,-1.67,-1.67,-1.67,-1.67,-1.6714,-1.6727,-1.674,-1.6914,-1.7246,-1.7259,-1.742,-1.7675,-1.8544,-1.8918,-1.8945,-1.9239,-1.943,-1.9457,-1.9706,-1.9987,-2.0267,-2.0588,-2.0869,-2.1109,-2.1109,-2.1109,-2.1109,-2.1109,-2.1109,-2.1109,-2.1109,-2.1109,-2.1109,-2.1122,-2.1323,-2.1534,-2.1216,-2.1349,-2.1628,-2.1655,-2.1804,-2.2164,-2.2739,-2.2928,-2.2928,-2.2928,-2.2928,-2.2928,-2.2928,-2.2873,-2.2954,-2.2928,-2.2954,-2.2968,-2.2886,-2.2886,-2.2993,-2.33,-2.334,-2.346,-2.3754,-2.3781,-2.3915,-2.4209,-2.4209,-2.4329,-2.4623,-2.4636,-2.4636,-2.4636,-2.493,-2.493,-2.4636,-2.5211,-2.5478,-2.5478,-2.5758,-2.6052,0.0,0.0,0.0,-2.9032,-2.8752,-2.8012,-2.6317,0.0,0.0,0.0,0.0,0.0,0.0,0.0,0.0,0.0,0.0,0.0,0.0,0.0,0.0,0.0,0.0,0.0,0.0,0.0,0.0,0.0,0.0,0.0,-1.6433,-1.6433,-1.6339,-1.6152,-1.6139,-1.6139,-1.6139,-1.6139,-1.6233,-1.6433,-1.6433,-1.6737,-1.7206,-1.7206,-1.7367,-1.7609,-1.813,-1.8408,-1.8664,-1.8958,-1.9199,-1.9457,-1.9693,-1.9867,-2.0013,-2.0494,-2.0735,-2.0855,-2.1042,-2.1109,-2.1109,-2.1109,-2.1109,-2.1109,-2.1109,-2.1109,-2.1109,-2.1109,-2.1189,-2.1243,-2.1136,-2.1336,-2.1708,-2.2017,-2.2338,-2.2605,-2.2819,-2.2928,-2.2928,-2.2928,-2.2928,-2.2928,-2.2928,-2.2928,-2.2928,-2.2928,-2.2928,-2.2928,-2.2928,-2.2928,-2.2968,-2.302,-2.3207,-2.3447,-2.3741,-2.3941,-2.4168,-2.4462,-2.4476,-2.4529,-2.4636,-2.4636,-2.4636,-2.4636,-2.4743,-2.4836,-2.4917,-2.5317,-2.5518,-2.5518,-2.5625,-2.5825,-2.9106,-2.8913,0.0,0.0,0.0,-2.6663,-2.5125,0.0,0.0,0.0,0.0,0.0,0.0,0.0,0.0,0.0,0.0,0.0,0.0,0.0,0.0,0.0,0.0,0.0,0.0,0.0,0.0,0.0,0.0,0.0,-1.6139,-1.6126,-1.6032,-1.5784,-1.5784,-1.5784,-1.5784,-1.5784,-1.5925,-1.6126,-1.6126,-1.638,-1.6911,-1.7005,-1.7219,-1.7501,-1.7756,-1.8063,-1.837,-1.8758,-1.9038,-1.9252,-1.9546,-1.972,-1.9853,-2.0241,-2.0508,-2.0708,-2.0895,-2.1029,-2.1109,-2.1109,-2.1109,-2.1109,-2.1109,-2.1109,-2.1109,-2.1109,-2.1109,-2.1109,-2.1109,-2.1403,-2.1817,-2.2298,-2.2645,-2.2928,-2.2928,-2.2928,-2.2928,-2.2928,-2.2928,-2.2928,-2.2928,-2.2928,-2.2928,-2.2928,-2.2928,-2.2928,-2.2928,-2.2928,-2.2928,-2.2928,-2.3046,-2.334,-2.3741,-2.3941,-2.4222,-2.4609,-2.4636,-2.4636,-2.4636,-2.4636,-2.4636,-2.4636,-2.4636,-2.4783,-2.5077,-2.5277,-2.5424,-2.5518,-2.5611,-2.5772,0.0,0.0,0.0,0.0,0.0,0.0,-2.4999,0.0,0.0,0.0,0.0,0.0,0.0,0.0,0.0,0.0,0.0,0.0,0.0,0.0,0.0,0.0,0.0,0.0,0.0,0.0,0.0,0.0,0.0,-1.5784,-1.5784,-1.5784,-1.5784,-1.5784,-1.5784,-1.5784,-1.5784,-1.5784,-1.5784,-1.5784,-1.5784,-1.5979,-1.6335,-1.6567,-1.686,-1.7219,-1.7501,-1.7742,-1.8022,-1.8651,-1.8905,-1.8958,-1.9239,-1.9533,-1.9786,-1.98,-2.016,-2.0655,-2.0668,-2.0855,-2.1096,-2.1109,-2.1109,-2.1109,-2.1109,-2.1109,-2.1109,-2.1109,-2.1109,-2.1109,-2.1122,-2.155,-2.2044,-2.2338,-2.2632,-2.2914,-2.2914,-2.2928,-2.2928,-2.2928,-2.2928,-2.2928,-2.2928,-2.2928,-2.2928,-2.2928,-2.2928,-2.2928,-2.2928,-2.2928,-2.2928,-2.2928,-2.2928,-2.3113,-2.3714,-2.3768,-2.4022,-2.4596,-2.4636,-2.4636,-2.4636,-2.4649,-2.4649,-2.4636,-2.4649,-2.4796,-2.5077,-2.5077,-2.5237,-2.5531,-2.5825,-2.6037,-2.7817,0.0,0.0,0.0,0.0,0.0,0.0,0.0,0.0,0.0,0.0,0.0,0.0,0.0,0.0,0.0,0.0,0.0,0.0,0.0,0.0,0.0,0.0,0.0,0.0,0.0,0.0,0.0,-1.5784,-1.5784,-1.5784,-1.5784,-1.5784,-1.5784,-1.5784,-1.5784,-1.5784,-1.5784,-1.5784,-1.5784,-1.5784,-1.5979,-1.6273,-1.6353,-1.6723,-1.7206,-1.7286,-1.7435,-1.7742,-1.8075,-1.8488,-1.8931,-1.9011,-1.9225,-1.9506,-1.972,-1.9907,-2.0107,-2.0535,-2.0735,-2.0828,-2.1042,-2.1109,-2.1109,-2.1109,-2.1109,-2.1109,-2.1109,-2.1109,-2.1162,-2.1376,-2.1614,-2.1815,-2.2031,-2.2325,-2.2539,-2.2539,-2.2712,-2.2928,-2.2928,-2.2928,-2.2928,-2.2928,-2.2928,-2.2928,-2.2928,-2.2928,-2.2928,-2.2928,-2.2928,-2.2928,-2.2928,-2.2928,-2.3113,-2.3714,-2.3768,-2.4022,-2.4596,-2.4636,-2.4636,-2.4636,-2.4836,-2.485,-2.4562,-2.505,-2.5211,-2.5077,-2.5077,-2.5344,-2.5838,-2.6132,-2.6159,-2.6844,-2.6523,-2.5721,0.0,0.0,0.0,-2.3256,-2.2964,0.0,0.0,0.0,0.0,0.0,0.0,0.0,0.0,0.0,0.0,0.0,0.0,0.0,0.0,0.0,0.0,0.0,0.0,0.0,-1.5784,-1.5784,-1.5784,-1.5784,-1.5784,-1.5784,-1.5784,-1.5784,-1.5784,-1.5784,-1.5784,-1.5784,-1.5784,-1.5784,-1.5925,-1.6086,-1.6219,-1.6509,-1.6844,-1.7099,-1.73,-1.7474,-1.7729,-1.821,-1.8758,-1.8878,-1.9105,-1.9444,-1.9559,-1.9693,-1.9867,-2.0334,-2.0575,-2.0722,-2.1015,-2.1109,-2.1109,-2.1109,-2.1109,-2.1109,-2.1109,-2.1109,-2.1176,-2.1534,-2.1614,-2.1695,-2.1924,-2.2205,-2.2418,-2.2418,-2.2645,-2.2928,-2.2928,-2.2928,-2.2928,-2.2928,-2.2928,-2.2928,-2.2928,-2.2752,-2.2672,-2.2672,-2.2672,-2.2672,-2.2672,-2.2792,-2.3113,-2.3714,-2.3768,-2.4022,-2.4596,-2.4636,-2.4636,-2.4636,-2.4796,-2.4877,-2.4823,-2.5157,-2.5304,-2.5264,-2.5264,-2.5504,-2.6037,-2.6132,-2.6052,-2.5821,-2.5409,-2.4954,-2.358,0.0,0.0,-2.3159,-2.2847,-2.2559,0.0,0.0,0.0,0.0,0.0,0.0,0.0,0.0,0.0,0.0,0.0,0.0,0.0,0.0,0.0,0.0,-1.59,-1.5994,-1.592,-1.592,-1.5981,-1.6008,-1.5879,-1.5784,-1.5784,-1.5784,-1.5784,-1.5784,-1.5784,-1.5784,-1.5784,-1.5784,-1.5784,-1.5784,-1.6099,-1.6246,-1.6348,-1.6871,-1.7139,-1.7219,-1.7474,-1.7889,-1.8477,-1.8758,-1.9052,-1.9319,-1.9417,-1.9533,-1.9786,-2.008,-2.0361,-2.0628,-2.0962,-2.1069,-2.1069,-2.1096,-2.1109,-2.1109,-2.1109,-2.1109,-2.1162,-2.1494,-2.1574,-2.1563,-2.183,-2.2111,-2.2325,-2.2325,-2.2552,-2.2834,-2.2834,-2.2819,-2.2928,-2.2928,-2.2928,-2.2928,-2.2928,-2.2605,-2.2418,-2.2418,-2.2418,-2.2418,-2.2418,-2.2712,-2.314,-2.3728,-2.3794,-2.4048,-2.4596,-2.4636,-2.4649,-2.469,-2.4716,-2.4863,-2.5117,-2.5157,-2.5317,-2.5611,-2.5585,-2.5692,-2.6037,-2.6063,-2.5838,-2.5879,-2.5304,0.0,0.0,0.0,0.0,-2.3672,-2.332,-2.2886,0.0,0.0,0.0,0.0,0.0,0.0,0.0,0.0,0.0,0.0,0.0,0.0,0.0,0.0,0.0,0.0,-1.6621,-1.7162,-1.6793,-1.6764,-1.6926,-1.7296,-1.6339,-1.5784,-1.5784,-1.5784,-1.5784,-1.5784,-1.5784,-1.5784,-1.5784,-1.5784,-1.5784,-1.5784,-1.5885,-1.6046,-1.6335,-1.6442,-1.6764,-1.7206,-1.7259,-1.7582,-1.8102,-1.8464,-1.8758,-1.9038,-1.9279,-1.9399,-1.9492,-1.9786,-1.992,-2.0054,-2.0588,-2.0762,-2.0802,-2.1042,-2.1109,-2.1109,-2.1109,-2.1109,-2.1122,-2.1176,-2.1189,-2.1203,-2.1269,-2.151,-2.1789,-2.1789,-2.1951,-2.2151,-2.2151,-2.2539,-2.2928,-2.2928,-2.2928,-2.2928,-2.2928,-2.2605,-2.2418,-2.2418,-2.2418,-2.2418,-2.2418,-2.2913,-2.338,-2.3741,-2.3981,-2.4262,-2.4609,-2.4636,-2.4743,-2.4983,-2.5224,-2.5371,-2.5424,-2.5665,-2.5932,-2.6213,-2.5985,-2.5905,-2.6037,-2.6199,-2.6146,0.0,0.0,0.0,-2.4473,0.0,0.0,0.0,-2.3457,-2.2984,0.0,0.0,0.0,0.0,0.0,0.0,0.0,0.0,0.0,0.0,0.0,0.0,0.0,0.0,0.0,0.0,-1.7462,-1.8237,-1.8267,-1.769,-1.7459,-1.7684,-1.648,-1.5784,-1.5784,-1.5784,-1.5784,-1.5784,-1.5784,-1.5784,-1.5784,-1.5784,-1.5784,-1.5784,-1.5784,-1.5912,-1.6059,-1.6206,-1.6576,-1.6941,-1.7139,-1.746,-1.7862,-1.8317,-1.8664,-1.8958,-1.9252,-1.943,-1.947,-1.9693,-1.98,-1.9867,-2.0307,-2.0548,-2.0708,-2.0855,-2.0989,-2.1109,-2.1109,-2.1109,-2.1109,-2.1109,-2.1109,-2.1109,-2.1109,-2.1336,-2.1614,-2.1614,-2.1777,-2.1991,-2.1991,-2.2218,-2.2472,-2.2619,-2.2766,-2.2928,-2.2928,-2.2605,-2.2418,-2.2418,-2.2418,-2.2418,-2.2418,-2.2966,-2.3447,-2.3741,-2.4035,-2.4329,-2.4549,-2.4636,-2.477,-2.5064,-2.5224,-2.5438,-2.5732,-2.6026,-2.6239,-2.6386,-2.6239,-2.6092,-2.6037,-2.6253,-2.6159,0.0,0.0,0.0,0.0,0.0,-2.4023,0.0,0.0,0.0,0.0,0.0,0.0,0.0,0.0,0.0,0.0,0.0,0.0,0.0,0.0,0.0,0.0,0.0,0.0,0.0,-1.8459,-1.9457,-2.0144,-1.8762,-1.7933,-1.8041,-1.6622,-1.5784,-1.5784,-1.5784,-1.5784,-1.5784,-1.5784,-1.5784,-1.5784,-1.5784,-1.5784,-1.5784,-1.5784,-1.5784,-1.5798,-1.6086,-1.6353,-1.6647,-1.6991,-1.7286,-1.7555,-1.817,-1.8584,-1.8878,-1.9172,-1.9319,-1.9457,-1.9639,-1.972,-1.976,-2.0054,-2.0347,-2.0601,-2.0655,-2.0842,-2.1042,-2.1096,-2.1109,-2.1109,-2.1109,-2.1109,-2.1109,-2.1109,-2.1296,-2.1534,-2.1534,-2.1657,-2.1817,-2.1817,-2.1857,-2.2004,-2.2352,-2.2619,-2.2792,-2.2928,-2.2565,-2.2352,-2.2405,-2.2365,-2.2378,-2.2485,-2.3046,-2.3527,-2.3834,-2.4115,-2.4382,-2.4623,-2.469,-2.485,-2.5157,-2.5277,-2.5558,-2.6039,-2.6266,-2.6386,-2.6386,-2.6386,-2.6239,-2.6037,-2.6199,-2.6026,0.0,0.0,0.0,0.0,-2.5254,0.0,0.0,0.0,0.0,0.0,0.0,0.0,0.0,0.0,0.0,0.0,0.0,0.0,0.0,0.0,0.0,0.0,0.0,0.0,0.0,0.0,-2.1105,-2.2561,-2.0182,-1.8836,-1.9252,-1.7063,-1.5784,-1.5784,-1.5784,-1.5784,-1.5784,-1.5784,-1.5784,-1.5784,-1.5784,-1.5784,-1.5784,-1.5784,-1.5784,-1.5784,-1.5824,-1.6046,-1.6388,-1.6633,-1.6927,-1.7313,-1.7862,-1.8277,-1.8571,-1.8865,-1.9145,-1.943,-1.9399,-1.947,-1.9466,-1.976,-2.004,-2.0334,-2.0601,-2.0695,-2.0775,-2.1042,-2.1109,-2.1109,-2.1109,-2.1109,-2.1109,-2.1109,-2.1136,-2.1162,-2.1162,-2.1189,-2.1203,-2.1203,-2.1416,-2.1842,-2.2325,-2.2445,-2.2565,-2.2887,-2.2392,-2.2124,-2.2392,-2.2191,-2.2231,-2.2752,-2.3354,-2.3834,-2.4128,-2.4422,-2.4596,-2.4636,-2.489,-2.5157,-2.5451,-2.5959,-2.6266,-2.6333,-2.6373,-2.6386,-2.6386,-2.6386,-2.6239,-2.6037,-2.6063,-2.5825,0.0,0.0,0.0,0.0,0.0,0.0,-2.4844,0.0,-2.373,0.0,0.0,0.0,0.0,0.0,0.0,0.0,0.0,0.0,0.0,0.0,0.0,0.0,0.0,0.0,0.0,0.0,0.0,0.0,0.0,-1.9286,-1.948,-1.7156,-1.5784,-1.5784,-1.5784,-1.5784,-1.5784,-1.5784,-1.5784,-1.5784,-1.5784,-1.5784,-1.5784,-1.5784,-1.5784,-1.5784,-1.5784,-1.6005,-1.6348,-1.658,-1.6874,-1.7246,-1.7609,-1.7969,-1.829,-1.8758,-1.8998,-1.9132,-1.9305,-1.943,-1.9412,-1.9706,-1.988,-2.0067,-2.0535,-2.0681,-2.0735,-2.1029,-2.1109,-2.1109,-2.1109,-2.1109,-2.1109,-2.1109,-2.1109,-2.1109,-2.1109,-2.1109,-2.1109,-2.1109,-2.1203,-2.143,-2.1844,-2.2191,-2.2405,-2.2365,-2.2432,-2.2472,-2.2432,-2.2458,-2.2659,-2.3086,-2.3514,-2.3888,-2.4182,-2.4476,-2.4636,-2.4636,-2.5077,-2.5384,-2.5504,-2.6079,-2.6386,-2.6386,-2.6386,-2.6386,-2.6386,-2.6386,-2.6146,-2.5705,-2.5879,-2.5798,-2.5693,0.0,0.0,0.0,0.0,0.0,0.0,0.0,0.0,0.0,0.0,0.0,0.0,0.0,0.0,0.0,0.0,0.0,0.0,0.0,0.0,0.0,0.0,0.0,0.0,0.0,0.0,-2.2342,-2.0359,-1.9097,-1.8878,-1.684,-1.5704,-1.5784,-1.5784,-1.5784,-1.5784,-1.5784,-1.5784,-1.5784,-1.5784,-1.5784,-1.5784,-1.5784,-1.5784,-1.5784,-1.5784,-1.5952,-1.6179,-1.6553,-1.6834,-1.7112,-1.7435,-1.7716,-1.7929,-1.8435,-1.8784,-1.8958,-1.9172,-1.9305,-1.9399,-1.9613,-1.9733,-1.9893,-2.0401,-2.0615,-2.0735,-2.1029,-2.1109,-2.1109,-2.1109,-2.1109,-2.1109,-2.1109,-2.1109,-2.1109,-2.1109,-2.1109,-2.1109,-2.1109,-2.1109,-2.1176,-2.139,-2.1844,-2.2138,-2.2004,-2.2352,-2.2579,-2.2432,-2.2605,-2.2926,-2.3394,-2.3647,-2.3928,-2.4289,-2.4516,-2.4676,-2.4756,-2.4694,-2.4688,-2.4765,-2.523,-2.5489,-2.5489,-2.6056,-2.6346,-2.6266,-2.6346,-2.6092,-2.5518,-2.5732,-2.541,0.0,0.0,0.0,-2.5693,0.0,0.0,0.0,0.0,-2.4832,0.0,0.0,0.0,0.0,0.0,0.0,0.0,0.0,0.0,0.0,0.0,0.0,0.0,0.0,0.0,0.0,0.0,0.0,-2.0376,-1.9127,-1.8125,-1.7342,-1.6067,-1.5538,-1.5771,-1.5784,-1.5784,-1.5784,-1.5784,-1.5784,-1.5784,-1.5784,-1.5784,-1.5784,-1.5784,-1.5784,-1.5784,-1.5784,-1.5832,-1.5838,-1.6473,-1.6714,-1.678,-1.7355,-1.7595,-1.7635,-1.7902,-1.8382,-1.8918,-1.8931,-1.9132,-1.943,-1.943,-1.9573,-1.9853,-2.016,-2.0441,-2.0735,-2.1029,-2.1109,-2.1109,-2.1109,-2.1109,-2.1109,-2.1109,-2.1109,-2.1109,-2.1109,-2.1109,-2.1109,-2.1109,-2.1109,-2.1109,-2.1122,-2.1376,-2.1735,-2.1951,-2.2004,-2.2111,-2.2378,-2.2432,-2.2779,-2.3661,-2.3768,-2.3995,-2.4569,-2.4636,-2.4756,-2.505,-2.3399,-2.2494,-2.2819,-2.3079,-2.322,-2.322,-2.533,-2.6253,-2.605,-2.6253,-2.6092,-2.5518,-2.5518,-2.4419,0.0,0.0,-2.5693,-2.5693,0.0,0.0,0.0,0.0,0.0,0.0,0.0,0.0,0.0,0.0,0.0,0.0,0.0,0.0,0.0,0.0,0.0,0.0,0.0,0.0,0.0,0.0,0.0,-2.028,-1.9093,-1.8049,0.0,-1.6053,-1.5524,-1.5771,-1.5784,-1.5784,-1.5784,-1.5784,-1.5784,-1.5784,-1.5784,-1.5784,-1.5784,-1.5784,-1.5784,-1.5784,-1.5784,-1.5784,-1.5872,-1.646,-1.67,-1.6767,-1.7355,-1.7582,-1.7622,-1.7876,-1.8115,-1.8342,-1.8784,-1.9118,-1.943,-1.943,-1.9439,-1.9573,-1.9853,-2.0147,-2.0441,-2.0735,-2.0962,-2.1109,-2.1109,-2.1109,-2.1109,-2.1109,-2.1109,-2.1109,-2.1109,-2.1109,-2.1109,-2.1109,-2.1109,-2.1109,-2.1109,-2.1189,-2.1296,-2.139,-2.1897,-2.2231,-2.2151,-2.2472,-2.2979,-2.3688,-2.3768,-2.4008,-2.4583,-2.4636,-2.4071,-2.2868,-2.2448,-2.1713,-2.0451,-2.0745,-2.1684,-2.306,-2.3872,-2.4882,-2.6239,-2.6346,-2.6186,-2.5798,-2.5798,-2.4687,-2.5635,-2.5693,0.0,-2.5527,-2.5508,0.0,-2.4941,0.0,0.0,0.0,0.0,0.0,0.0,0.0,0.0,0.0,0.0,0.0,0.0,-2.1113,0.0,0.0,0.0,0.0,0.0,0.0,-2.0818,-1.9283,-1.8566,-1.7656,0.0,0.0,-1.5524,-1.5771,-1.5784,-1.5784,-1.5784,-1.5784,-1.5784,-1.5784,-1.5784,-1.5784,-1.5784,-1.5784,-1.5784,-1.5784,-1.5784,-1.5784,-1.5872,-1.646,-1.67,-1.6767,-1.7355,-1.7582,-1.7622,-1.7876,-1.8129,-1.8368,-1.8918,-1.9212,-1.943,-1.943,-1.9439,-1.9559,-1.9746,-2.0,-2.0267,-2.0468,-2.0735,-2.0949,-2.0949,-2.1029,-2.1109,-2.1109,-2.1109,-2.1109,-2.1109,-2.1109,-2.1109,-2.1109,-2.1109,-2.1109,-2.1109,-2.1109,-2.1109,-2.1109,-2.1764,-2.2205,-2.2004,-2.2498,-2.3169,-2.3701,-2.3768,-2.3707,-2.3523,-2.3589,-2.2805,-2.0751,-2.1057,-2.0373,-1.8246,-1.9313,-2.0554,-2.1925,-2.3377,-2.4809,-2.6079,-2.6186,-2.6079,-2.5798,-2.6012,-2.4588]}]]